[[{"header":{"parameterUnit":"m.s-1","parameterCategory":1,"la1":30.6,"la2":29.2853,"lo1":-89.7004,"lo2":-87.6739,"dy":0.0162,"dx":0.0183,"nx":112,"ny":82,"refTime":"2024-10-08T12:00:00:Z","depth":0,"parameterNumber":2,"parameterNumberName":"U-component_of_WINDS"},"data":[0.0,0.0,0.0,0.0,0.0,0.0,0.0,0.0,0.0,0.0,0.0,0.0,0.0,0.0,0.0,0.0,0.0,0.0,0.0,0.0,0.0,0.0,0.0,0.0,0.0,0.0,0.0,0.0,0.0,0.0,0.0,0.0,0.0,0.0,0.0,0.0,0.0,0.0,0.0,0.0,0.0,0.0,0.0,0.0,0.0,0.0,0.0,0.0,0.0,0.0,0.0,0.0,0.0,0.0,0.0,0.0,0.0,0.0,0.0,0.0,0.0,0.0,0.0,0.0,0.0,0.0,0.0,0.0,0.0,0.0,0.0,0.0,0.0,0.0,0.0,0.0,0.0,0.0,0.0,0.0,0.0,0.0,0.0,0.0,0.0,0.0,0.0,0.0,0.0,0.0,0.0,-2.3629,-2.5956,-2.6956,-2.6148,-2.5958,-2.431,-2.0622,0.0,0.0,0.0,0.0,0.0,0.0,0.0,0.0,0.0,0.0,0.0,0.0,0.0,0.0,0.0,0.0,0.0,0.0,0.0,0.0,0.0,0.0,0.0,0.0,0.0,0.0,0.0,0.0,0.0,0.0,0.0,0.0,0.0,0.0,0.0,0.0,0.0,0.0,0.0,0.0,0.0,0.0,0.0,0.0,0.0,0.0,0.0,0.0,0.0,0.0,0.0,0.0,0.0,0.0,0.0,0.0,0.0,0.0,0.0,0.0,0.0,0.0,0.0,0.0,0.0,0.0,0.0,0.0,0.0,0.0,0.0,0.0,0.0,0.0,0.0,0.0,0.0,0.0,0.0,0.0,0.0,0.0,0.0,0.0,0.0,0.0,0.0,0.0,0.0,0.0,0.0,0.0,0.0,0.0,0.0,0.0,0.0,0.0,0.0,0.0,0.0,0.0,0.0,0.0,-1.9834,-2.4353,-2.622,-2.6842,-2.6086,-2.5341,-2.3602,-2.0502,0.0,0.0,0.0,0.0,0.0,0.0,0.0,0.0,0.0,0.0,0.0,0.0,0.0,0.0,0.0,0.0,0.0,0.0,0.0,0.0,0.0,0.0,0.0,0.0,0.0,0.0,0.0,0.0,0.0,0.0,0.0,0.0,0.0,0.0,0.0,0.0,0.0,0.0,0.0,0.0,0.0,0.0,0.0,0.0,0.0,0.0,0.0,0.0,0.0,0.0,0.0,0.0,0.0,0.0,0.0,0.0,0.0,0.0,0.0,0.0,0.0,0.0,0.0,0.0,0.0,0.0,0.0,0.0,0.0,0.0,0.0,0.0,0.0,0.0,0.0,0.0,0.0,0.0,0.0,0.0,0.0,0.0,0.0,0.0,0.0,0.0,0.0,0.0,0.0,0.0,0.0,0.0,0.0,0.0,0.0,0.0,0.0,0.0,0.0,0.0,0.0,0.0,0.0,-1.9321,-2.1593,-2.4623,-2.585,-2.6317,-2.5975,-2.4801,-2.2996,-2.0401,-1.7764,0.0,0.0,0.0,0.0,0.0,0.0,0.0,0.0,0.0,0.0,0.0,0.0,0.0,0.0,0.0,0.0,0.0,0.0,0.0,0.0,0.0,0.0,0.0,0.0,0.0,0.0,0.0,0.0,0.0,0.0,0.0,0.0,0.0,0.0,0.0,0.0,0.0,0.0,0.0,0.0,0.0,0.0,0.0,0.0,0.0,0.0,0.0,0.0,0.0,0.0,0.0,0.0,0.0,0.0,0.0,0.0,0.0,0.0,0.0,0.0,0.0,0.0,0.0,0.0,0.0,0.0,0.0,0.0,0.0,0.0,0.0,0.0,0.0,0.0,0.0,0.0,0.0,0.0,0.0,0.0,0.0,0.0,0.0,0.0,0.0,0.0,0.0,0.0,0.0,0.0,0.0,0.0,0.0,0.0,0.0,0.0,0.0,0.0,0.0,0.0,0.0,0.0,-2.1528,-2.3313,-2.4494,-2.5208,-2.5523,-2.5335,-2.392,-2.2054,-1.9777,-1.6819,0.0,0.0,0.0,0.0,0.0,0.0,0.0,0.0,0.0,0.0,0.0,0.0,0.0,0.0,0.0,0.0,0.0,0.0,0.0,0.0,0.0,0.0,0.0,0.0,0.0,0.0,0.0,0.0,0.0,0.0,0.0,0.0,0.0,0.0,0.0,0.0,0.0,0.0,0.0,0.0,0.0,0.0,0.0,0.0,0.0,0.0,0.0,0.0,0.0,0.0,0.0,0.0,0.0,0.0,0.0,0.0,0.0,0.0,0.0,0.0,0.0,0.0,0.0,0.0,0.0,0.0,0.0,0.0,0.0,0.0,0.0,0.0,0.0,0.0,0.0,0.0,0.0,0.0,0.0,0.0,0.0,0.0,0.0,0.0,0.0,0.0,0.0,0.0,0.0,0.0,0.0,0.0,0.0,0.0,0.0,0.0,0.0,0.0,0.0,0.0,0.0,0.0,-2.131,-2.3656,-2.3776,-2.4328,-2.4409,-2.3728,-2.2261,-2.0408,-1.8115,-1.5208,0.0,0.0,0.0,0.0,0.0,0.0,0.0,0.0,0.0,0.0,0.0,0.0,0.0,0.0,0.0,0.0,0.0,0.0,0.0,0.0,0.0,0.0,0.0,0.0,0.0,0.0,0.0,0.0,0.0,0.0,0.0,0.0,0.0,0.0,0.0,0.0,0.0,0.0,0.0,0.0,0.0,0.0,0.0,0.0,0.0,0.0,0.0,0.0,0.0,0.0,0.0,0.0,0.0,0.0,0.0,0.0,0.0,0.0,0.0,0.0,0.0,0.0,0.0,0.0,0.0,0.0,0.0,0.0,0.0,0.0,0.0,0.0,0.0,0.0,0.0,0.0,0.0,0.0,0.0,0.0,0.0,0.0,0.0,0.0,0.0,0.0,0.0,0.0,0.0,0.0,0.0,0.0,0.0,0.0,0.0,0.0,0.0,0.0,0.0,0.0,0.0,0.0,-2.0323,-2.2566,0.0,-2.3733,-2.3742,-2.3454,-2.2477,-2.072,-1.7969,0.0,0.0,0.0,0.0,0.0,0.0,0.0,0.0,0.0,0.0,0.0,0.0,0.0,0.0,0.0,0.0,0.0,0.0,0.0,0.0,0.0,0.0,0.0,0.0,0.0,0.0,0.0,0.0,0.0,0.0,0.0,0.0,0.0,0.0,0.0,0.0,0.0,0.0,0.0,0.0,0.0,0.0,0.0,0.0,0.0,0.0,0.0,0.0,0.0,0.0,0.0,0.0,0.0,0.0,0.0,0.0,0.0,0.0,0.0,0.0,0.0,0.0,0.0,0.0,0.0,0.0,0.0,0.0,0.0,0.0,0.0,0.0,0.0,0.0,0.0,0.0,0.0,0.0,0.0,0.0,0.0,0.0,0.0,0.0,0.0,0.0,0.0,0.0,0.0,0.0,0.0,0.0,0.0,0.0,0.0,0.0,0.0,0.0,0.0,0.0,0.0,0.0,-1.7401,-2.0026,-2.2081,0.0,-2.3095,-2.3069,-2.3083,-2.1935,-2.0145,-1.7608,0.0,0.0,0.0,0.0,0.0,0.0,0.0,0.0,0.0,0.0,0.0,0.0,0.0,0.0,0.0,0.0,0.0,0.0,0.0,0.0,0.0,0.0,0.0,0.0,0.0,0.0,0.0,0.0,0.0,0.0,0.0,0.0,0.0,0.0,0.0,0.0,0.0,0.0,0.0,0.0,0.0,0.0,0.0,0.0,0.0,0.0,0.0,0.0,0.0,0.0,0.0,0.0,0.0,0.0,0.0,0.0,0.0,0.0,0.0,0.0,0.0,0.0,0.0,0.0,0.0,0.0,0.0,0.0,0.0,0.0,0.0,0.0,0.0,0.0,0.0,0.0,0.0,0.0,0.0,0.0,0.0,0.0,0.0,0.0,0.0,0.0,0.0,0.0,0.0,0.0,0.0,0.0,0.0,0.0,0.0,0.0,0.0,0.0,0.0,0.0,0.0,0.0,-1.7915,-2.0665,-2.2501,-2.2501,-2.2394,-2.2338,-2.2391,-2.0268,-1.8296,0.0,0.0,0.0,0.0,0.0,0.0,0.0,0.0,0.0,0.0,0.0,0.0,0.0,0.0,0.0,0.0,0.0,0.0,0.0,0.0,0.0,0.0,0.0,0.0,0.0,0.0,0.0,0.0,0.0,0.0,0.0,0.0,0.0,0.0,0.0,0.0,0.0,0.0,0.0,0.0,0.0,0.0,0.0,0.0,0.0,0.0,0.0,0.0,0.0,0.0,0.0,0.0,0.0,0.0,0.0,0.0,0.0,0.0,0.0,0.0,0.0,0.0,0.0,0.0,0.0,0.0,0.0,0.0,0.0,0.0,0.0,0.0,0.0,0.0,0.0,0.0,0.0,0.0,0.0,0.0,0.0,0.0,0.0,0.0,0.0,0.0,0.0,0.0,0.0,0.0,0.0,0.0,0.0,0.0,0.0,0.0,0.0,0.0,0.0,0.0,0.0,0.0,0.0,-1.7652,-2.0611,-2.2555,-2.2515,-2.2419,-2.2394,-2.2391,-2.1264,-1.965,-1.7608,0.0,0.0,0.0,0.0,0.0,0.0,0.0,0.0,0.0,0.0,0.0,0.0,0.0,0.0,0.0,0.0,0.0,0.0,0.0,0.0,0.0,0.0,0.0,0.0,0.0,0.0,0.0,0.0,0.0,0.0,0.0,0.0,0.0,0.0,0.0,0.0,0.0,0.0,0.0,0.0,0.0,0.0,0.0,0.0,0.0,0.0,0.0,0.0,0.0,0.0,0.0,0.0,0.0,0.0,0.0,0.0,0.0,0.0,0.0,0.0,0.0,0.0,0.0,0.0,0.0,0.0,0.0,0.0,0.0,0.0,0.0,0.0,0.0,0.0,0.0,0.0,0.0,0.0,0.0,0.0,0.0,0.0,0.0,0.0,0.0,0.0,0.0,0.0,0.0,0.0,0.0,0.0,0.0,0.0,0.0,0.0,0.0,0.0,0.0,0.0,0.0,0.0,-1.7652,-2.0623,-2.2565,-2.2515,-2.2432,-2.2405,-2.2432,-2.1685,-2.0238,-1.798,0.0,0.0,0.0,0.0,0.0,0.0,0.0,0.0,0.0,0.0,0.0,0.0,0.0,0.0,0.0,0.0,0.0,0.0,0.0,0.0,0.0,0.0,0.0,0.0,0.0,0.0,0.0,0.0,0.0,0.0,0.0,0.0,0.0,0.0,0.0,0.0,0.0,0.0,0.0,0.0,0.0,0.0,0.0,0.0,0.0,0.0,0.0,0.0,0.0,0.0,0.0,0.0,0.0,0.0,0.0,0.0,0.0,0.0,0.0,0.0,0.0,0.0,0.0,0.0,0.0,0.0,0.0,0.0,0.0,0.0,0.0,0.0,0.0,0.0,0.0,0.0,0.0,0.0,0.0,0.0,0.0,0.0,0.0,0.0,0.0,0.0,0.0,0.0,0.0,0.0,0.0,0.0,0.0,0.0,0.0,0.0,0.0,0.0,0.0,0.0,0.0,0.0,-1.7828,-2.0698,-2.2579,-2.2515,-2.2446,-2.2432,-2.2501,-2.1711,-2.0297,-1.8149,0.0,0.0,0.0,0.0,0.0,0.0,0.0,0.0,0.0,0.0,0.0,0.0,0.0,0.0,0.0,0.0,0.0,0.0,0.0,0.0,0.0,0.0,0.0,0.0,0.0,0.0,0.0,0.0,0.0,0.0,0.0,0.0,0.0,0.0,0.0,0.0,0.0,0.0,0.0,0.0,0.0,0.0,0.0,0.0,0.0,0.0,0.0,0.0,0.0,0.0,0.0,0.0,0.0,0.0,0.0,0.0,0.0,0.0,0.0,0.0,-2.0773,0.0,0.0,0.0,0.0,0.0,0.0,0.0,0.0,0.0,0.0,0.0,0.0,0.0,0.0,0.0,0.0,0.0,0.0,0.0,0.0,0.0,0.0,0.0,0.0,0.0,0.0,0.0,0.0,0.0,0.0,0.0,0.0,0.0,0.0,0.0,0.0,0.0,0.0,0.0,0.0,0.0,-1.7815,-2.073,-2.2646,-2.2596,-2.2528,-2.2487,-2.2501,-2.1748,-2.0552,-1.8875,-1.6669,0.0,0.0,0.0,0.0,0.0,0.0,0.0,0.0,0.0,0.0,0.0,0.0,0.0,0.0,0.0,0.0,0.0,0.0,0.0,0.0,0.0,0.0,0.0,0.0,0.0,0.0,0.0,0.0,0.0,0.0,0.0,0.0,0.0,0.0,0.0,0.0,0.0,0.0,0.0,0.0,0.0,0.0,0.0,0.0,0.0,0.0,0.0,0.0,0.0,0.0,0.0,0.0,0.0,0.0,0.0,0.0,0.0,0.0,0.0,0.0,-2.293,0.0,0.0,0.0,0.0,0.0,0.0,0.0,0.0,0.0,0.0,0.0,0.0,0.0,0.0,0.0,0.0,0.0,0.0,0.0,0.0,0.0,0.0,0.0,0.0,0.0,0.0,0.0,0.0,0.0,0.0,0.0,0.0,0.0,0.0,0.0,0.0,0.0,0.0,0.0,0.0,-1.8395,-2.099,-2.2659,-2.2552,-2.2528,-2.2501,-2.2501,-2.2089,-2.1343,-2.0218,-1.8415,0.0,0.0,0.0,0.0,0.0,0.0,0.0,0.0,0.0,0.0,0.0,0.0,0.0,0.0,0.0,0.0,0.0,0.0,0.0,0.0,0.0,0.0,0.0,0.0,0.0,0.0,0.0,0.0,0.0,0.0,0.0,0.0,0.0,0.0,0.0,0.0,0.0,0.0,0.0,0.0,0.0,0.0,0.0,0.0,0.0,0.0,0.0,0.0,0.0,0.0,0.0,0.0,0.0,-2.9312,-3.0424,-3.1955,-3.1763,-3.1942,-3.2265,-2.8913,-2.7497,-2.7343,-2.4866,0.0,0.0,0.0,0.0,0.0,0.0,0.0,0.0,0.0,0.0,0.0,0.0,0.0,0.0,0.0,0.0,0.0,0.0,0.0,0.0,0.0,0.0,0.0,0.0,-2.2647,-2.2819,0.0,0.0,0.0,0.0,0.0,0.0,0.0,0.0,0.0,0.0,0.0,0.0,-1.9218,-2.1347,-2.2646,-2.2542,-2.2515,-2.2515,-2.2515,-2.246,-2.2123,-2.146,-2.0137,-1.8745,0.0,0.0,0.0,0.0,0.0,0.0,0.0,0.0,0.0,0.0,0.0,0.0,0.0,0.0,0.0,0.0,0.0,0.0,0.0,0.0,0.0,0.0,0.0,0.0,0.0,0.0,0.0,0.0,0.0,0.0,0.0,0.0,-1.8074,-1.9095,0.0,0.0,0.0,0.0,0.0,0.0,0.0,0.0,0.0,0.0,0.0,0.0,0.0,-2.8059,-2.9619,-3.1924,-3.2811,-3.2342,-3.4519,-3.4959,-3.3882,-3.5274,-3.5566,-3.5027,-3.5151,0.0,-2.9962,-2.8044,0.0,0.0,0.0,0.0,0.0,0.0,0.0,0.0,0.0,0.0,0.0,0.0,0.0,0.0,0.0,0.0,0.0,0.0,0.0,0.0,0.0,0.0,-2.518,-2.4557,-2.4612,-2.466,0.0,-2.1199,-1.8407,-1.6846,-1.6036,0.0,0.0,0.0,0.0,0.0,0.0,0.0,-2.0049,-2.1674,-2.2672,-2.2592,-2.2596,-2.2596,-2.2596,-2.2528,-2.2203,-2.1537,-2.0646,-1.9771,-1.8921,-1.6818,0.0,0.0,0.0,0.0,0.0,0.0,0.0,0.0,0.0,0.0,0.0,0.0,0.0,0.0,0.0,0.0,0.0,0.0,0.0,0.0,0.0,0.0,0.0,0.0,0.0,0.0,0.0,0.0,0.0,-1.8029,-2.0777,-2.112,-2.1558,-2.1333,0.0,0.0,0.0,0.0,0.0,0.0,0.0,0.0,0.0,-2.9775,-3.0942,-3.2128,-3.3336,-3.486,-3.5646,-3.577,-3.6853,-3.7225,-3.6983,-3.7708,-3.7856,-3.7522,-3.7411,-3.6365,-3.4494,-3.1844,-2.9349,-2.7023,0.0,0.0,0.0,0.0,-2.4262,-2.4464,-2.5934,-2.6198,0.0,-2.4412,0.0,0.0,0.0,0.0,0.0,0.0,0.0,0.0,0.0,0.0,-2.6008,-2.5712,-2.5971,-2.6161,-2.573,-2.4301,-2.2423,0.0,-1.8959,-1.7787,-1.5762,0.0,0.0,0.0,0.0,-1.9832,-2.0933,-2.2031,-2.2672,-2.2623,-2.2592,-2.2592,-2.2592,-2.2565,-2.2428,-2.2142,-2.1812,-2.1301,-2.0521,-1.9104,-1.7558,0.0,0.0,0.0,0.0,0.0,0.0,0.0,0.0,0.0,0.0,0.0,0.0,0.0,0.0,0.0,0.0,0.0,0.0,0.0,0.0,0.0,0.0,0.0,0.0,0.0,0.0,0.0,0.0,-2.0633,-2.3168,-2.2943,-2.4208,-2.4339,0.0,0.0,0.0,0.0,0.0,0.0,-2.9523,-3.0362,-3.1773,-3.3988,-3.4754,-3.5646,-3.6736,-3.7145,-3.7726,-3.8525,-3.8302,-3.8525,-3.9101,-3.9101,-3.9101,-3.9064,-3.8469,-3.8079,-3.7671,-3.4822,-3.2444,-3.0538,-2.9529,-2.8603,-2.7919,-2.8361,-2.8534,-2.8722,-3.0109,-3.0462,-3.0049,-2.8508,-2.7664,-2.6765,-2.42,0.0,0.0,0.0,0.0,-2.4396,-2.4809,-2.5811,-2.6644,-2.6454,-2.6868,-2.7144,-2.654,-2.6247,-2.537,0.0,-2.1992,-2.0751,-1.8086,0.0,0.0,0.0,0.0,-2.1002,-2.1785,-2.2354,-2.2672,-2.2619,-2.2636,-2.2636,-2.2636,-2.2605,-2.2623,-2.2619,-2.2659,-2.2418,-2.1829,-2.1048,-1.9635,-1.7534,0.0,0.0,0.0,0.0,0.0,0.0,0.0,0.0,0.0,0.0,0.0,0.0,0.0,0.0,0.0,0.0,0.0,0.0,0.0,0.0,0.0,0.0,0.0,0.0,0.0,0.0,0.0,0.0,0.0,-2.4689,-2.743,0.0,0.0,0.0,0.0,-2.9194,-2.9336,-3.0432,-3.2924,-3.3758,-3.4919,-3.6565,-3.732,-3.8488,-4.0137,-3.9361,-3.9417,-4.0253,-3.9435,-3.9064,-3.9101,-3.9101,-3.9101,-3.9101,-3.9064,-3.8599,-3.7764,-3.6067,-3.481,-3.3869,-3.2847,-3.1949,-3.1268,-3.1293,-3.1311,-3.1335,-3.1621,-3.1225,-3.0686,-3.1336,-3.0383,-2.9075,-2.9577,-2.8439,0.0,0.0,-2.8559,-2.8488,-2.8075,-2.812,-2.8109,-2.7402,-2.7264,-2.7297,-2.7263,-2.6644,-2.585,0.0,-2.4798,-2.4264,-2.263,0.0,-2.2216,-2.1475,-2.147,-2.1802,-2.2543,-2.2681,-2.2699,-2.2699,-2.2699,-2.2699,-2.2699,-2.2632,-2.2636,-2.2685,-2.2632,-2.2632,-2.2634,-2.194,-2.0766,-1.9121,-1.6944,0.0,0.0,0.0,0.0,0.0,0.0,0.0,0.0,0.0,0.0,0.0,0.0,0.0,0.0,0.0,0.0,0.0,0.0,0.0,0.0,0.0,0.0,0.0,0.0,0.0,0.0,0.0,0.0,-2.8547,-3.0208,0.0,-3.0011,-3.0696,-3.1654,-3.2762,-3.3352,-3.4486,-3.6419,-3.7254,-3.8153,-3.9216,-3.9969,-4.0607,-4.1177,-4.0847,-4.0847,-4.1144,-4.0327,-3.9937,-3.9918,-3.9361,-3.9101,-3.9101,-3.9101,-3.8934,-3.8618,-3.8042,-3.7021,-3.5776,-3.5403,-3.5099,-3.4784,-3.4266,-3.4062,-3.4,-3.3505,-3.3169,-3.289,-3.2648,-3.1675,-3.0654,-3.1108,-3.0467,-2.973,-3.0245,-3.0193,-2.9789,-2.8879,-2.8692,-2.8481,-2.7518,-2.7299,-2.7299,-2.7299,-2.7075,-2.6782,-2.6523,-2.5678,-2.4646,-2.3595,-2.3836,-2.375,-2.2492,-2.2716,-2.294,-2.2733,-2.2699,-2.2699,-2.2699,-2.2699,-2.2699,-2.2699,-2.2672,-2.2672,-2.2699,-2.2224,-2.1966,-2.1992,-2.1201,-2.0283,-1.9213,-1.7954,-1.5925,0.0,0.0,0.0,0.0,0.0,0.0,0.0,0.0,0.0,0.0,0.0,0.0,0.0,0.0,0.0,0.0,0.0,0.0,0.0,0.0,0.0,0.0,0.0,0.0,0.0,0.0,-2.9363,-3.0743,-3.2611,-3.355,-3.3006,-3.3982,-3.4977,-3.5784,-3.6648,-3.7718,-3.907,-3.9889,-4.0517,-4.0979,-4.1451,-4.1789,-4.1999,-4.1739,-4.1739,-4.1999,-4.1181,-4.0806,-4.0773,-3.9918,-3.9528,-3.951,-3.9231,-3.9101,-3.9101,-3.9101,-3.8469,-3.7503,-3.7503,-3.7503,-3.7411,-3.6606,-3.6142,-3.5751,-3.4599,-3.4197,-3.4104,-3.3577,-3.2913,-3.2373,-3.2565,-3.2312,-3.1999,-3.2109,-3.1665,-3.0898,-2.9886,-2.9245,-2.8647,-2.7774,-2.7496,-2.7436,-2.7436,-2.7436,-2.7405,-2.733,-2.6471,-2.5523,-2.4715,-2.5008,-2.4939,-2.3664,-2.3664,-2.3629,-2.3129,-2.2854,-2.2699,-2.2699,-2.2699,-2.2699,-2.2699,-2.2699,-2.2699,-2.2699,-2.2009,-2.1608,-2.1608,-2.0776,-1.9979,-1.9218,-1.8218,-1.6705,-1.4691,0.0,0.0,0.0,0.0,0.0,0.0,0.0,0.0,0.0,0.0,0.0,0.0,0.0,0.0,0.0,0.0,0.0,0.0,0.0,0.0,0.0,0.0,0.0,-2.5045,-2.9119,-3.1917,-3.1212,-3.4695,-3.6509,-3.4913,-3.6246,-3.7542,-3.8319,-3.9195,-4.0021,-4.0797,-4.1539,-4.1902,-4.1857,-4.1801,-4.2124,-4.285,-4.2073,-4.2073,-4.2835,-4.2017,-4.1627,-4.1609,-4.0806,-4.0453,-4.0383,-3.951,-3.9138,-3.9138,-3.9101,-3.9101,-3.9101,-3.9101,-3.9101,-3.9008,-3.8191,-3.7355,-3.6439,-3.4791,-3.4216,-3.4197,-3.4197,-3.4197,-3.4197,-3.4197,-3.4161,-3.4086,-3.4023,-3.3156,-3.2056,-3.122,-2.9948,-2.874,-2.8211,-2.7897,-2.7698,-2.7698,-2.7698,-2.7627,-2.736,-2.7297,-2.7056,-2.6281,-2.6128,-2.587,-2.5109,-2.4336,0.0,-2.3781,-2.316,-2.2712,-2.2712,-2.2712,-2.2712,-2.2699,-2.2699,-2.2681,-2.2664,-2.1957,-2.1561,-2.1561,-2.0783,-2.0003,-1.9253,-1.7714,-1.6968,-1.7026,0.0,0.0,0.0,0.0,0.0,0.0,0.0,0.0,0.0,0.0,0.0,0.0,0.0,0.0,0.0,0.0,0.0,0.0,0.0,0.0,0.0,0.0,-3.0461,-3.0105,-3.2292,-3.4489,-3.6073,-3.7268,-3.8037,-3.8218,-3.9164,-3.9877,-4.0103,-4.0891,-4.1441,-4.1667,-4.2474,-4.2883,-4.2819,-4.331,-4.3666,-4.38,-4.3497,-4.3448,-4.3652,-4.2853,-4.2463,-4.2445,-4.1627,-4.1256,-4.1219,-4.0401,-4.003,-3.9974,-3.9361,-3.9101,-3.9101,-3.9101,-3.9101,-3.9008,-3.8191,-3.7021,-3.577,-3.5306,-3.4729,-3.4197,-3.4197,-3.4197,-3.4197,-3.4197,-3.4185,-3.4161,-3.4086,-3.3806,-3.3123,-3.1513,-3.0726,-3.0014,-2.8465,-2.8047,-2.7992,-2.7992,-2.7992,-2.7911,-2.7642,-2.76,-2.7472,-2.7035,-2.6971,-2.6523,-2.5195,-2.4801,0.0,-2.3406,-2.3117,-2.2995,-2.2995,-2.2995,-2.2919,-2.2712,-2.2699,-2.2474,-2.1953,-2.1165,-2.0734,-2.0734,-1.9998,-1.9746,-2.0055,-1.8564,-1.7773,0.0,0.0,0.0,0.0,0.0,0.0,0.0,0.0,0.0,0.0,0.0,0.0,0.0,0.0,0.0,0.0,0.0,0.0,0.0,0.0,0.0,0.0,-3.1421,-3.3743,-3.4732,-3.5606,-3.6686,-3.8131,-3.8619,-3.9183,-4.0021,-4.0534,-4.0947,-4.1285,-4.2061,-4.253,-4.253,-4.3351,-4.3774,-4.369,-4.4129,-4.4285,-4.4199,-4.4119,-4.4055,-4.3986,-4.3522,-4.3299,-4.328,-4.2463,-4.2092,-4.2054,-4.1237,-4.0713,-4.0346,-3.9844,-3.9435,0.0,0.0,0.0,0.0,0.0,-3.7076,-3.5956,-3.5621,-3.4934,-3.4197,-3.4197,-3.4197,-3.4197,-3.4197,-3.4197,-3.4185,-3.4124,-3.3593,-3.2779,-3.161,-3.067,-2.9787,-2.8763,-2.8412,-2.8308,-2.8308,-2.8308,-2.8228,-2.7926,-2.7869,0.0,-2.7657,-2.7452,-2.6932,-2.5791,-2.5337,-2.4787,-2.3846,-2.3436,-2.3224,-2.3224,-2.3163,-2.3045,-2.2881,-2.2764,0.0,0.0,0.0,-2.0918,-2.0707,-2.0203,0.0,0.0,0.0,0.0,0.0,0.0,0.0,0.0,-1.8463,-1.8152,0.0,0.0,0.0,0.0,0.0,0.0,0.0,0.0,0.0,0.0,0.0,0.0,0.0,0.0,0.0,0.0,-3.4224,-3.616,-3.854,-3.8648,-3.8467,-3.8456,-3.9214,-4.0021,-4.0722,-4.0966,-4.1379,-4.2098,-4.2956,-4.3444,-4.3444,0.0,0.0,0.0,0.0,-4.4344,-4.4229,-4.4199,-4.4135,-4.402,-4.4005,-4.4005,-4.3986,-4.3262,-4.2946,-4.289,-4.2073,-4.1274,-4.0527,-4.0453,-3.9881,-3.9101,-3.9101,-3.9101,-3.9008,-3.8302,-3.7466,-3.6593,-3.5882,0.0,0.0,-3.4197,-3.4197,-3.4197,-3.4197,-3.4197,-3.4185,-3.4124,-3.3092,-3.192,-3.1676,-3.0326,-2.9053,-2.9111,-2.8887,-2.8682,-2.8651,-2.8651,-2.8563,-2.8224,-2.8156,-2.8143,-2.8116,-2.7716,-2.7207,-2.664,-2.5862,-2.5178,-2.47,-2.3926,-2.3455,-2.3455,0.0,0.0,-2.3139,-2.2889,-2.2816,-2.3003,-2.233,-2.1728,-2.1268,-2.1146,-2.1478,-2.2313,-2.2386,-2.2747,-2.3403,-2.3403,-2.3414,-2.3354,-1.9454,-1.8944,0.0,0.0,0.0,0.0,0.0,0.0,0.0,0.0,0.0,0.0,0.0,0.0,0.0,0.0,0.0,-3.4309,-3.6566,-3.847,-3.9658,-3.9694,-3.9554,-3.9444,-4.0089,-4.0628,-4.0778,-4.2018,-4.2881,-4.3031,-4.382,-4.4271,-4.4271,-4.4407,-4.4501,-4.4487,-4.4426,-4.4383,-4.4354,-4.424,-4.4184,-4.4169,0.0,0.0,-4.3986,-4.3838,-4.3763,-4.3726,-4.2927,-4.211,-4.1311,-4.0661,-3.9881,-3.9101,-3.9101,-3.9101,-3.9082,-3.8934,-3.7949,-3.6681,-3.6532,-3.546,-3.4197,-3.4197,-3.4197,-3.4197,-3.4197,-3.4197,0.0,-3.4185,-3.3926,-3.3321,-3.2031,-3.1364,-3.0733,-2.9481,-2.9134,-2.9078,-2.9021,-2.901,-2.8899,-2.8576,-2.8495,-2.8417,-2.8143,-2.8006,-2.7702,-2.7019,-2.6223,-2.5515,-2.4987,-2.4219,-2.3714,-2.3714,-2.3488,-2.3341,-2.3341,-2.3145,-2.2857,-2.248,-2.2306,-2.2185,-2.2068,-2.2602,-2.2983,-2.316,-2.3189,-2.326,-2.3403,-2.3403,-2.3511,-2.3696,-2.2635,-2.244,0.0,0.0,0.0,0.0,0.0,0.0,0.0,0.0,0.0,0.0,0.0,-2.8338,-3.0414,0.0,-3.4647,-3.6757,-3.8107,-3.9195,-4.0072,-4.0077,-3.9943,-3.9815,-4.0443,-4.1067,-4.145,-4.2583,-4.3463,-4.3876,-4.4271,-4.4501,-4.4501,-4.4501,-4.4501,-4.4501,-4.4473,-4.4426,-4.4397,-4.4329,-4.4274,-4.4199,-4.4135,-4.407,-4.4005,-4.4005,-4.4005,-4.3986,-4.3578,-4.2723,-4.1497,-4.0253,-3.9491,-3.9101,-3.9101,-3.9101,-3.9101,-3.9101,-3.8079,-3.6699,-3.6699,-3.559,-3.4197,-3.4197,-3.4197,-3.4197,-3.4197,-3.4197,-3.4197,-3.4197,-3.3894,-3.3258,-3.2064,-3.1395,-3.0757,-2.9547,-2.9211,-2.9189,-2.9163,-2.9145,-2.91,-2.8934,-2.891,-2.8845,-2.8676,-2.8652,-2.8318,-2.7342,-2.6488,-2.578,-2.5269,-2.4498,-2.3996,-2.3996,-2.3764,-2.3599,-2.3599,-2.3513,-2.3341,-2.307,-2.3044,-2.3115,-2.3246,-2.3483,-2.3671,-2.3795,-2.3806,-2.3806,-2.3806,-2.3806,-2.3876,-2.3996,-2.3847,-2.3806,0.0,0.0,0.0,0.0,0.0,0.0,0.0,0.0,-2.6071,-2.8637,-3.0376,-3.2248,-3.4953,-3.5725,-3.6604,-3.8667,-3.9145,-3.9508,-4.0205,-4.0215,-4.0106,-3.9994,-4.0583,-4.1328,-4.2121,-4.288,-4.3641,-4.4426,-4.4501,-4.4501,-4.4501,-4.4501,-4.4501,-4.4501,-4.4501,-4.4468,-4.4411,-4.4397,-4.4358,-4.4244,-4.4229,-4.4165,-4.4051,-4.4036,-4.4036,-4.4036,-4.367,-4.2797,-4.146,-3.9788,-3.9101,-3.9101,-3.9101,-3.9101,-3.9101,-3.9101,-3.8172,-3.6922,-3.6742,-3.5714,-3.442,-3.4253,-3.4197,-3.4197,-3.4197,-3.4197,-3.4197,-3.4197,-3.3733,-3.302,-3.2054,-3.1266,-3.0509,-2.9545,-2.9272,-2.924,-2.9211,-2.9229,-2.9229,-2.92,-2.92,-2.92,-2.92,-2.9189,-2.8857,-2.7881,-2.701,-2.6311,-2.5933,-2.5044,-2.4428,-2.4428,-2.4038,-2.3806,-2.3806,-2.3855,-2.3886,-2.3886,-2.3886,-2.3958,-2.419,-2.3996,-2.3986,-2.4208,-2.419,-2.419,-2.419,-2.419,-2.419,-2.419,-2.4355,-2.4428,-2.2627,-2.2484,-2.292,-2.4394,-2.4771,-2.5931,0.0,0.0,-3.1286,-3.3834,-3.5125,-3.5908,-3.629,-3.757,-3.8667,-3.8954,-3.9661,-4.0186,-4.0282,-4.0291,-4.0263,-4.0253,-4.0748,-4.1385,-4.2134,-4.2919,-4.3696,-4.4439,-4.4501,-4.4501,-4.4501,-4.4501,-4.4501,-4.4501,-4.4501,-4.4501,-4.4501,-4.4426,-4.4383,-4.4368,-4.4314,-4.4285,-4.427,-4.4195,-4.4184,-4.4075,-4.2545,-4.1757,-4.146,-3.9788,-3.9101,-3.9101,-3.9101,-3.9101,-3.9101,-3.9101,-3.8525,-3.7652,-3.6959,-3.6105,-3.5231,-3.4439,-3.4197,-3.4197,-3.4197,-3.4197,-3.4197,-3.4197,-3.4141,-3.3714,-3.2184,-3.1738,-3.1262,-2.9739,-2.9386,-2.9365,-2.9312,-2.9291,-2.9262,-2.92,-2.92,-2.92,-2.92,-2.9145,-2.9093,-2.9005,-2.8268,-2.7684,-2.7632,-2.625,-2.5264,-2.5264,-2.4395,-2.3806,-2.3806,-2.4016,-2.4161,-2.4161,-2.4161,-2.417,-2.419,-2.417,-2.417,-2.419,-2.419,-2.419,-2.419,-2.419,-2.419,-2.4208,-2.4934,-2.5264,-2.6044,-2.6364,0.0,0.0,-2.8485,-2.9535,-3.2107,-3.2814,-3.3624,-3.6146,-3.7349,-3.8104,-3.862,-3.927,-3.9747,0.0,-4.0053,-4.0301,-4.0301,-4.0301,-4.011,-3.9603,-4.0186,-4.1113,-4.2322,-4.3085,-4.3819,-4.4562,-4.4619,-4.4578,-4.4496,-4.4501,-4.4501,-4.4501,-4.4501,-4.4501,-4.4501,-4.4468,-4.4426,-4.4397,-4.4368,-4.4344,-4.43,-4.4255,-4.4244,-4.4106,-4.2447,-4.1678,-4.146,-3.983,-3.9142,-3.9101,-3.9101,-3.9101,-3.9101,-3.9101,-3.8284,-3.7151,-3.6829,-3.5844,-3.468,-3.4309,-3.4197,-3.4197,-3.4197,-3.4197,-3.4197,-3.4197,-3.4197,-3.3826,-3.2221,-3.1794,-3.1385,-2.9768,-2.9396,-2.9396,-2.9365,-2.9365,-2.9355,-2.9315,-2.9315,-2.9315,-2.9315,-2.9294,-2.9283,-2.9304,-2.8473,-2.7838,-2.7838,-2.6817,-2.5925,-2.5448,-2.4579,-2.4026,-2.4026,-2.4141,-2.419,-2.419,-2.419,-2.419,-2.419,-2.419,-2.419,-2.419,-2.419,-2.419,-2.419,-2.4677,-2.4897,-2.4915,-2.5713,-2.6337,-2.7888,0.0,0.0,-3.0068,-3.12,-3.2401,-3.3215,-3.4063,-3.5267,-3.7273,-3.819,-3.8839,-3.947,-3.9766,-3.9938,-3.9938,-4.0129,-4.0301,-4.0301,-4.0091,-3.9804,-3.9412,-3.969,-4.0559,-4.2138,-4.2696,-4.3355,-4.4259,-4.434,-4.4401,-4.4496,-4.4501,-4.4501,-4.4501,-4.4501,-4.4501,-4.4501,-4.4501,-4.4487,-4.4426,-4.4426,-4.4397,-4.4358,-4.4344,-4.4285,-4.4136,-4.2487,-4.1721,-4.1504,-3.9858,-3.9142,-3.9101,-3.9101,-3.9101,-3.9101,-3.9101,-3.8209,-3.7002,-3.6779,-3.5757,-3.4513,-3.4271,-3.4197,-3.4197,-3.4197,-3.4197,-3.4197,-3.4197,-3.403,-3.3559,-3.2165,-3.1645,-3.1125,-2.9731,-2.9396,-2.9396,-2.9396,-2.9396,-2.9396,-2.9396,-2.9396,-2.9396,-2.9396,-2.9386,-2.9376,-2.9376,-2.8709,-2.8191,-2.8191,-2.7442,-2.6539,-2.5503,-2.4879,-2.4438,-2.4208,-2.4199,-2.419,-2.419,-2.4228,-2.4228,-2.4228,-2.4228,-2.4228,-2.419,-2.419,-2.4319,-2.453,-2.5117,-2.5503,-2.576,-2.6557,-2.7236,0.0,0.0,-3.0337,-3.0228,-3.2079,-3.412,-3.4942,-3.5793,-3.6672,-3.7521,-3.7712,-3.775,-3.7769,-3.8476,-3.9049,-3.9049,-3.9747,-4.0301,-4.0301,-3.9565,-3.9336,-4.0148,-3.9546,-3.9699,0.0,-4.1424,-4.1957,-4.3335,-4.3454,-4.3747,-4.4458,-4.4501,-4.4501,-4.4501,-4.4501,-4.4501,-4.4501,-4.4501,-4.4501,-4.4501,-4.4501,-4.4501,-4.4501,-4.4426,-4.4373,-4.4192,-4.2458,-4.1702,-4.1557,-3.983,-3.9101,-3.9101,-3.9101,-3.9101,-3.9101,-3.9101,-3.8581,-3.7745,-3.6965,-3.616,-3.5324,-3.4457,-3.4197,-3.4197,-3.4197,-3.4197,-3.4197,-3.4197,-3.3652,-3.2853,-3.2017,-3.1218,-3.0418,-2.9601,-2.9396,-2.9396,-2.9396,-2.9396,-2.9396,-2.9396,-2.9396,-2.9396,-2.9396,-2.9344,-2.9302,-2.9302,-2.9222,-2.9152,-2.9152,-2.8353,-2.7155,-2.5558,-2.5374,-2.5044,-2.4263,-2.4191,-2.4201,-2.4201,-2.4266,-2.4303,-2.4303,-2.4303,-2.4266,-2.4201,-2.4201,-2.4587,-2.5356,-2.5393,-2.5797,-2.6583,-2.7383,-2.778,-2.9491,0.0,-3.1456,-3.2531,-3.3829,-3.5058,-3.5889,-3.6331,-3.6779,-3.7538,-3.7357,-3.7003,-3.6922,-3.7135,-3.7536,-3.811,-3.8906,-3.9642,-4.0225,-4.052,-4.0348,-3.9527,-4.0157,0.0,0.0,0.0,0.0,-4.3544,-4.3583,-4.3851,-4.4589,-4.4556,-4.4501,-4.4501,-4.4501,-4.4501,-4.4501,-4.4501,-4.4501,-4.4501,-4.4501,-4.4501,-4.4501,-4.4487,-4.4426,-4.426,-4.2627,-4.1856,-4.1628,-4.0032,-3.9346,-3.9288,-3.9288,-3.9288,-3.9288,-3.9202,-3.8667,-3.7849,-3.6991,-3.6179,-3.5361,-3.4476,-3.4197,-3.4197,-3.4197,-3.4197,-3.4197,-3.4197,-3.4011,-3.3503,-3.2147,-3.1608,-3.105,-2.9712,-2.9396,-2.9396,-2.9396,-2.9396,-2.9396,-2.9396,-2.9396,-2.9396,-2.9396,-2.9386,-2.9365,-2.9365,-2.9272,-2.92,-2.92,-2.8455,-2.7733,-2.7179,-2.6645,-2.5999,-2.5132,-2.5059,-2.4819,-2.4303,-2.4284,-2.4294,-2.4294,-2.4266,-2.422,-2.4201,-2.4763,-2.5205,-2.5461,-2.6569,-2.7251,-2.7474,-2.8283,-2.864,-3.0747,-3.1727,-3.2445,-3.3769,-3.469,-3.5442,-3.5948,-3.5894,-3.5851,-3.6291,-3.5602,-3.4981,-3.5155,-3.5182,-3.5657,-3.7102,-3.8265,-3.9393,-4.0578,-4.117,-4.1208,-4.0444,-4.1036,0.0,0.0,0.0,0.0,-4.3295,-4.3559,-4.3973,-4.4655,-4.4619,-4.4537,-4.4501,-4.4501,-4.4501,-4.4501,-4.4501,-4.4501,-4.4501,-4.4501,-4.4501,-4.4501,-4.4501,-4.4487,-4.4332,-4.2677,-4.1924,-4.1712,-4.013,-3.9444,-3.9405,-3.9405,-3.9405,-3.9391,-3.9301,-3.8952,-3.8324,-3.7115,-3.6179,-3.5361,-3.4476,-3.4197,-3.4197,-3.4197,-3.4197,-3.4197,-3.4197,-3.3993,-3.3473,-3.2147,-3.1589,-3.1032,-2.9712,-2.9396,-2.9396,-2.9396,-2.9396,-2.9396,-2.9396,-2.9396,-2.9396,-2.9396,-2.9396,-2.9396,-2.9396,-2.9326,-2.9262,-2.924,-2.8756,-2.8321,-2.8025,-2.7545,-2.6898,-2.6039,-2.5956,-2.5744,-2.5226,-2.5208,-2.5227,-2.5227,-2.5199,-2.5152,-2.5124,-2.5687,-2.6101,-2.6405,-2.7479,-2.8133,-2.8386,-2.8883,-2.91,-3.064,-3.1882,-3.3326,-3.4007,-3.4745,-3.5304,-3.5246,-3.467,-3.4102,-3.3913,-3.2647,-3.1794,0.0,0.0,-3.3537,-3.5989,-3.7815,-3.9527,-4.1266,-4.1533,-4.1858,0.0,0.0,0.0,0.0,0.0,0.0,-4.2667,0.0,-4.4068,-4.4681,-4.4712,-4.4646,-4.4496,-4.4501,-4.4501,-4.4501,-4.4501,-4.4501,-4.4501,-4.4501,-4.4501,-4.4501,-4.4501,-4.4501,-4.4407,-4.2664,-4.1906,-4.178,-4.0098,-3.9418,-3.9418,-3.9418,-3.9418,-3.9418,-3.9405,-3.9405,-3.9149,-3.7346,-3.6197,-3.5417,-3.4562,-3.4246,-3.4209,-3.4209,-3.4209,-3.4209,-3.4209,-3.367,-3.289,-3.2072,-3.1292,-3.0511,-2.9712,-2.9489,-2.9452,-2.9452,-2.9434,-2.9396,-2.9396,-2.9396,-2.9396,-2.9396,-2.9396,-2.9396,-2.9396,-2.9396,-2.9376,-2.9312,-2.9251,-2.8923,-2.8146,-2.8073,-2.774,-2.6945,-2.6864,-2.6857,-2.682,-2.6859,-2.6897,-2.6907,-2.6888,-2.6859,-2.6811,-2.6857,-2.7234,-2.8017,-2.8054,-2.8461,-2.9218,-2.9211,-2.9211,-3.2246,-3.3289,-3.4186,-3.5007,-3.5333,-3.5284,-3.4629,-3.3947,-3.3229,-3.2451,-3.1018,-2.995,-3.0028,0.0,0.0,-3.4411,-3.6589,0.0,-4.117,-4.2049,0.0,-4.2775,0.0,-4.3214,-4.2832,-4.3348,0.0,0.0,-4.3738,-4.4148,-4.4953,-4.4815,-4.4667,-4.4646,-4.4551,-4.4501,-4.4501,-4.4501,-4.4501,-4.4501,-4.4501,-4.4501,-4.4501,-4.4501,-4.4501,-4.4407,-4.2704,-4.1978,-4.1847,-4.0215,-3.9558,-3.9558,-3.9558,-3.9558,-3.954,-3.9495,-3.9469,-3.9213,-3.7461,-3.6708,-3.641,-3.5571,-3.4881,-3.434,-3.434,-3.434,-3.434,-3.4293,-3.412,-3.3773,-3.292,-3.2537,-3.2184,-3.1385,-3.0734,-3.0288,-3.0288,-2.9824,-2.9396,-2.9396,-2.9396,-2.9396,-2.9396,-2.9396,-2.9396,-2.9396,-2.9396,-2.9396,-2.9376,-2.9365,-2.9262,-2.9058,-2.9039,-2.8705,-2.7833,-2.7769,-2.7509,-2.6906,-2.6878,-2.6963,-2.7115,-2.6926,-2.6888,-2.7026,-2.752,-2.7865,-2.8077,-2.8722,-2.9111,-2.9272,-2.9384,-2.9334,-3.3514,-3.4413,-3.5105,-3.5498,-3.53,-3.4782,-3.3887,-3.2869,-3.1705,-3.0327,-2.9081,0.0,-2.7525,0.0,0.0,0.0,0.0,0.0,-4.1094,-4.2545,-4.3482,0.0,-4.4303,0.0,-4.394,-4.4303,-4.4571,0.0,-4.4499,-4.4644,-4.5076,-4.4955,-4.4821,-4.4712,-4.4632,-4.4551,-4.4501,-4.4501,-4.4501,-4.4501,-4.4501,-4.4501,-4.4501,-4.4501,-4.4313,-4.3895,0.0,-4.1798,-4.1366,-4.0115,-3.9589,-3.9589,-3.9589,-3.9589,-3.9608,-3.9558,-3.9546,-3.9358,-3.7997,-3.7273,-3.6786,-3.553,-3.4797,-3.4386,-3.4381,-3.4351,-3.434,-3.4269,-3.4257,-3.4059,-3.3224,-3.2741,-3.2277,-3.1459,-3.066,-3.0065,-3.0065,-2.9712,-2.9396,-2.9396,-2.9396,-2.9396,-2.9396,-2.9396,-2.9396,-2.9396,-2.9396,-2.9396,-2.9396,-2.9396,-2.9396,-2.9396,-2.9396,-2.9192,-2.8709,-2.8672,-2.8507,-2.8119,-2.8082,-2.8174,-2.8374,-2.8165,-2.8119,-2.833,-2.8615,-2.881,-2.8886,-2.9383,-2.9608,-2.9579,-2.9635,-2.9616,-3.4389,-3.5249,-3.5824,-3.5539,-3.4936,-3.4112,-3.2968,-3.1499,-2.9859,-2.7976,0.0,-2.6133,-2.5293,-2.6549,-2.8549,-3.1078,0.0,-3.7387,-4.0845,-4.2679,-4.4036,-4.501,-4.522,-4.5307,-4.5307,-4.5307,-4.5307,-4.5307,-4.5307,-4.5254,-4.5136,-4.5114,-4.4986,-4.4712,-4.4712,-4.4632,-4.4501,-4.4501,-4.4501,-4.4501,-4.4501,-4.4501,-4.4501,-4.4388,-4.397,-4.3238,-4.2267,0.0,-4.0741,-3.9927,-3.9589,-3.9589,-3.9589,-3.9589,-3.9589,-3.9589,-3.9589,-3.9458,-3.8488,-3.7681,-3.6824,-3.5146,-3.4532,-3.4427,-3.4351,-3.434,-3.4328,-3.4257,-3.4245,-3.4066,-3.3378,-3.2671,-3.1946,-3.1147,-3.0328,-2.9696,-2.9603,-2.9492,-2.9399,-2.9399,-2.9399,-2.9399,-2.9388,-2.9417,-2.9417,-2.9388,-2.9419,-2.944,-2.944,-2.9427,-2.9396,-2.9396,-2.9427,-2.9429,-2.9429,-2.945,-2.9521,-2.9635,-2.9644,-2.9734,-2.9926,-2.9732,-2.9724,-2.9926,-2.9751,-2.9734,-2.9902,-2.9902,-2.9902,-2.9902,-2.9918,-2.9918,-3.4445,-3.5277,-3.5727,-3.4961,-3.4672,-3.3954,-3.164,-2.9853,0.0,0.0,0.0,-2.3802,-2.4233,-2.5639,0.0,-3.0976,0.0,0.0,0.0,0.0,-4.2507,0.0,0.0,0.0,0.0,0.0,0.0,0.0,0.0,-4.5297,-4.5275,-4.5159,-4.4986,-4.4712,-4.4712,-4.4632,-4.4501,-4.4501,-4.4501,-4.4501,-4.4501,-4.4501,-4.4482,-4.382,-4.3426,-4.32,-4.168,0.0,-4.0741,-3.9927,-3.9589,-3.9589,-3.9589,-3.9589,-3.9589,-3.9589,-3.9589,-3.9383,-3.7843,-3.7223,-3.6941,-3.595,-3.5162,-3.4561,-3.4539,-3.4539,-3.4528,-3.4473,-3.445,-3.4401,-3.4206,-3.4045,-3.3747,-3.2952,-3.2131,-3.1347,-3.0619,-2.9958,-2.9472,-2.9472,-2.9472,-2.9471,-2.9402,-2.9461,-2.9453,-2.9402,-2.9532,-2.9645,-2.9645,-2.9501,-2.9396,-2.9396,-2.9492,-2.957,-2.957,-2.9716,-2.982,-2.9853,-2.9853,-2.9907,-3.0066,-2.9923,-2.9907,-3.0066,-2.9915,-2.9869,-2.9902,-2.9902,-2.9902,-2.9902,-3.0015,-3.0007,-3.4452,-3.5318,-3.5726,-3.4839,-3.4287,-3.3286,-3.0621,0.0,0.0,0.0,0.0,-2.2829,-2.223,0.0,0.0,0.0,0.0,0.0,0.0,0.0,0.0,0.0,0.0,0.0,0.0,0.0,0.0,0.0,0.0,-4.5307,-4.5307,-4.517,-4.5045,-4.4907,-4.4757,-4.4672,-4.4605,-4.4524,-4.4501,-4.4501,-4.4501,-4.4501,-4.4463,-4.367,-4.305,-4.2562,-4.1323,0.0,-4.0153,-3.9758,-3.9589,-3.9589,-3.9589,-3.9589,-3.9589,-3.9589,-3.9589,-3.9364,-3.7674,-3.711,-3.6885,-3.5634,-3.494,-3.4583,-3.455,-3.4539,-3.4528,-3.4473,-3.445,-3.445,-3.4416,-3.3769,-3.306,-3.2657,-3.1621,-3.0576,-3.0165,-2.9772,-2.9502,-2.9502,-2.9561,-2.9579,-2.9551,-2.9662,-2.976,-2.9715,-2.9792,-2.9869,-2.9869,-2.9777,-2.9708,-2.9654,-2.9716,-2.976,-2.976,-2.9845,-2.9942,-3.0049,-3.0056,-3.0135,-3.0304,-3.0143,-3.0129,-3.0291,-3.0136,-3.0102,-3.0202,-3.0202,-3.0202,-3.0202,-3.0286,-3.026,-3.4413,-3.5193,-3.5498,-3.4567,-3.3727,-3.2434,-2.9764,-2.7755,0.0,0.0,-2.2759,-2.2086,-2.081,0.0,0.0,0.0,0.0,0.0,0.0,0.0,0.0,0.0,0.0,0.0,0.0,0.0,0.0,0.0,0.0,0.0,-4.5307,-4.5192,-4.5136,-4.5103,-4.4914,-4.4764,-4.4712,-4.4592,-4.4528,-4.4501,-4.4332,-4.4252,-4.4214,-4.3219,-4.2393,-4.1704,-4.0891,0.0,0.0,-3.9589,-3.9589,-3.9589,-3.9589,-3.9495,-3.9326,-3.9326,-3.9214,-3.8857,-3.7354,-3.6847,-3.6603,-3.5101,-3.4612,-3.4602,-3.4528,-3.4517,-3.4506,-3.4461,-3.4465,-3.4509,-3.4509,-3.3441,-3.2239,-3.185,-3.0625,-2.9541,-2.9579,-2.9589,-2.9589,-2.9617,-2.9715,-2.979,-2.9782,-2.9904,-3.0022,-3.0007,-3.0037,-3.0059,-3.0059,-3.008,-3.0092,-3.0034,-2.9996,-2.9954,-2.9954,-2.9992,-3.0099,-3.0254,-3.0267,-3.0342,-3.0499,-3.0352,-3.0346,-3.0504,-3.0346,-3.0346,-3.0504,-3.0504,-3.0504,-3.0504,-3.0504,-3.0504,-3.4256,-3.4764,-3.4608,-3.3725,-3.2868,-3.1543,-2.8983,0.0,0.0,-2.3316,-2.1846,-2.0883,-2.1388,-2.2383,-2.3852,0.0,0.0,0.0,0.0,0.0,0.0,0.0,0.0,0.0,0.0,0.0,0.0,0.0,0.0,0.0,-4.5307,-4.5297,-4.5243,-4.5095,-4.508,-4.4943,-4.4712,-4.4699,-4.4619,-4.4482,-4.3764,-4.3407,-4.3351,-4.1755,-4.0985,-4.0872,-4.0059,0.0,0.0,-3.9589,-3.9589,-3.9589,-3.9589,-3.912,-3.8432,-3.8432,-3.7962,-3.7204,-3.631,-3.601,-3.5841,-3.4902,-3.4612,-3.4602,-3.4583,-3.4602,-3.4602,-3.4572,-3.472,-3.4851,-3.4851,-3.416,-3.3034,-3.1383,-3.0321,-2.9701,-2.9849,-2.9855,-2.9905,-3.003,-3.0047,-3.0047,-2.9984,-3.004,-3.0068,-3.0006,-3.0163,-3.0266,-3.0266,-3.0383,-3.0453,-3.0447,-3.0279,-3.0164,-3.0164,-3.034,-3.0453,-3.0463,-3.0463,-3.0469,-3.0504,-3.0474,-3.0474,-3.0504,-3.0474,-3.0474,-3.0504,-3.0504,-3.0504,-3.0504,-3.0504,-3.0504,-3.2792,-3.3515,-3.371,-3.2831,-3.1953,-3.0782,-2.8752,0.0,-2.4142,-2.3277,-2.1753,-2.0798,-2.1518,-2.1942,-2.281,-2.474,-2.5604,-2.7215,0.0,0.0,0.0,0.0,0.0,0.0,0.0,0.0,0.0,0.0,0.0,0.0,-4.5307,-4.5307,-4.5286,-4.5213,-4.5148,-4.5057,-4.4931,-4.4858,-4.4783,-4.4732,-4.3882,-4.3486,-4.3429,-4.1701,-4.091,-4.0872,-3.9983,0.0,0.0,-3.9589,-3.9619,-3.9672,-3.9672,-3.9152,-3.8418,-3.8418,-3.789,-3.7051,-3.6241,-3.6021,-3.5941,-3.5064,-3.4831,-3.486,-3.4658,-3.4678,-3.4761,-3.4626,-3.4803,-3.4857,-3.4177,-3.3053,-3.1801,-3.0579,-3.0118,-2.9958,-3.0019,-3.0015,-3.003,-3.0095,-3.0164,-3.0216,-3.0184,-3.0296,-3.0386,-3.0369,-3.0433,-3.0479,-3.0479,-3.053,-3.0569,-3.0569,-3.0444,-3.0369,-3.0369,-3.0458,-3.0509,-3.05,-3.05,-3.051,-3.0569,-3.0569,-3.0569,-3.0569,-3.0569,-3.0569,-3.0569,-3.0569,-3.0569,-3.0569,-3.0569,-3.0569,-3.1485,-3.2343,-3.2871,-3.2246,-3.127,-3.0001,0.0,0.0,-2.3774,-2.2916,-2.1608,-2.0757,-2.1241,-2.1733,-2.2426,-2.3565,-2.4312,-2.5772,-2.8699,0.0,0.0,0.0,0.0,0.0,0.0,0.0,0.0,0.0,0.0,0.0,-4.4571,-4.4781,-4.5029,-4.5288,-4.5203,-4.5033,-4.4722,-4.4611,-4.4438,-4.4144,-4.3272,-4.2856,-4.2818,-4.1335,-4.0665,-4.0646,-3.9979,0.0,0.0,-3.9698,-3.9708,-3.9751,-3.9751,-3.9108,-3.8164,-3.8164,-3.7484,-3.6445,-3.5918,-3.5789,-3.578,-3.5171,-3.5049,-3.5083,-3.4851,-3.4879,-3.4963,-3.4792,-3.4754,-3.4541,-3.353,-3.2273,-3.1059,-3.0194,-3.0059,-3.015,-3.0183,-3.0196,-3.0196,-3.0247,-3.0325,-3.0386,-3.0397,-3.0501,-3.0602,-3.0607,-3.0602,-3.0598,-3.0598,-3.0598,-3.0602,-3.0607,-3.0559,-3.0535,-3.053,-3.0525,-3.0535,-3.0525,-3.053,-3.0554,-3.0598,-3.0598,-3.0598,-3.0598,-3.0598,-3.0602,-3.0592,-3.0592,-3.0592,-3.0597,-3.0597,-3.0597,-3.0587,-3.1446,-3.211,-3.2091,-3.0842,-2.9163,0.0,-2.4986,-2.2896,-2.2075,-2.1217,-2.0588,-2.0524,-2.1818,-2.2881,-2.2919,-2.4979,-2.7168,-2.8864,0.0,0.0,0.0,0.0,0.0,0.0,0.0,0.0,0.0,0.0,0.0,-4.287,-4.3567,-4.4418,-4.5269,-4.5297,-4.4824,-4.3808,-4.3808,-4.3342,-4.2415,-4.1537,-4.1132,-4.1094,-4.0279,-3.9919,0.0,0.0,0.0,0.0,-3.99,-3.99,-3.99,-3.99,-3.8877,-3.7409,-3.7409,-3.6367,-3.4946,-3.5072,-3.5115,-3.5122,-3.5182,-3.5208,-3.5208,-3.5181,-3.52,-3.5178,-3.5119,-3.4561,-3.3871,-3.3182,-3.2356,-3.143,-3.0433,-3.0209,-3.0235,-3.0375,-3.04,-3.0447,-3.0563,-3.0595,-3.0604,-3.0602,-3.0606,-3.0607,-3.0595,-3.0597,-3.0598,-3.0598,-3.0598,-3.0607,-3.0595,-3.06,-3.0606,-3.0598,-3.0598,-3.0598,-3.0598,-3.0598,-3.0598,-3.0598,-3.0598,-3.0598,-3.0598,-3.0598,-3.0592,-3.06,-3.06,-3.0608,-3.0606,-3.0606,-3.0606,-2.7972,-2.8402,-2.846,-2.7874,-2.7327,-2.6624,-2.5472,-2.4126,-2.2877,-2.2075,-2.1168,-2.0703,-2.1271,-2.1248,-2.2078,-2.5023,-2.561,0.0,0.0,0.0,0.0,0.0,0.0,0.0,0.0,0.0,0.0,0.0,0.0,0.0,-4.2813,-4.3042,-4.331,-4.3577,-4.3596,-4.3442,-4.3125,-4.3125,-4.2971,-4.2663,-4.1796,-4.1377,-4.1339,-4.0458,-4.0036,0.0,0.0,0.0,0.0,-3.9892,-3.9954,-4.0036,-4.0036,-3.902,-3.7528,-3.7528,-3.65,-3.5111,-3.5152,-3.527,-3.5385,-3.5406,-3.5463,-3.5537,-3.5537,-3.547,-3.5425,-3.5482,-3.4353,-3.3094,-3.3008,-3.1918,-3.0725,-3.0417,-3.0407,-3.0482,-3.0525,-3.0539,-3.0552,-3.0593,-3.0597,-3.0597,-3.0606,-3.0593,-3.0608,-3.0597,-3.0608,-3.0604,-3.0604,-3.0604,-3.0608,-3.0597,-3.0597,-3.0608,-3.0606,-3.0606,-3.0606,-3.0606,-3.0607,-3.0607,-3.0606,-3.0606,-3.0606,-3.0606,-3.06,-3.0608,-3.0597,-3.0597,-3.0602,-3.0606,-3.0606,-3.0618,0.0,-2.6254,-2.6372,-2.5844,-2.5453,-2.4984,-2.4105,-2.3247,-2.2408,-2.1588,-2.0928,-2.0672,-2.1213,-2.1021,-2.1768,-2.4772,-2.5037,0.0,0.0,0.0,0.0,0.0,0.0,0.0,0.0,0.0,0.0,0.0,0.0,0.0,-4.1887,-4.2173,-4.2202,-4.1877,-4.2469,-4.2641,-4.2316,-4.2316,-4.2163,-4.1858,-4.1304,-4.1055,-4.1036,-4.0453,-4.0186,0.0,0.0,0.0,0.0,-4.0057,-3.9907,-3.9671,-3.9671,-3.868,-3.7215,-3.7215,-3.6411,-3.5316,-3.5378,-3.5464,-3.5574,-3.5607,-3.5674,-3.5732,-3.5732,-3.5658,-3.559,-3.5708,-3.4571,-3.3312,-3.3146,-3.2063,-3.0921,-3.0592,-3.0574,-3.0649,-3.0641,-3.0645,-3.0649,-3.0641,-3.0637,-3.0641,-3.063,-3.0618,-3.061,-3.0637,-3.061,-3.0606,-3.0606,-3.0606,-3.061,-3.0637,-3.0634,-3.0638,-3.0645,-3.0606,-3.0608,-3.0608,-3.0595,-3.0591,-3.0608,-3.0608,-3.0608,-3.0608,-3.0597,-3.0607,-3.0648,-3.0659,-3.0678,-3.0684,-3.0684,-3.0689,0.0,-2.4632,-2.5336,-2.5336,-2.4789,-2.3988,-2.3111,-2.2388,0.0,-2.0789,-2.0558,-2.0537,-2.0654,-2.1179,-2.1961,-2.3079,-2.3889,0.0,0.0,0.0,0.0,0.0,0.0,0.0,0.0,0.0,0.0,0.0,0.0,0.0,-4.0354,-4.1073,-4.1141,-4.0329,-4.18,-4.2221,-4.1418,-4.1399,-4.1036,-4.0301,-4.0301,-4.0301,-4.0301,-4.0301,-4.0301,0.0,0.0,0.0,0.0,-4.0225,-3.9737,-3.9001,-3.8944,-3.797,-3.6603,-3.6603,-3.6136,-3.5513,-3.5632,-3.5707,-3.5713,-3.5786,-3.5803,-3.5803,-3.5803,-3.5756,-3.5713,-3.5778,-3.5087,-3.4158,-3.3472,-3.2613,-3.17,-3.0888,-3.0697,-3.0694,-3.0715,-3.0706,-3.0713,-3.0715,-3.0711,-3.0715,-3.0717,-3.0668,-3.0645,-3.0707,-3.0653,-3.0618,-3.0618,-3.0603,-3.0634,-3.0695,-3.0691,-3.0691,-3.0691,-3.0637,-3.0618,-3.0603,-3.0603,-3.0603,-3.0611,-3.0611,-3.0611,-3.0611,-3.0611,-3.0639,-3.0699,-3.0767,-3.0785,-3.0791,-3.0791,-3.0755,-1.9286,0.0,-2.1804,-2.1804,-2.2154,-2.2251,0.0,-2.1569,-2.1646,-2.0789,0.0,-2.0885,-2.2177,-2.1967,-2.2712,-2.6178,-2.6887,0.0,0.0,0.0,0.0,0.0,0.0,0.0,0.0,0.0,0.0,0.0,0.0,-4.0618,-4.0389,-4.0562,-4.0563,-4.0308,-4.0672,-4.0787,-4.0578,-4.0578,-4.0492,-4.0301,-4.0301,-4.0301,-4.0301,-4.0301,-4.0301,0.0,0.0,0.0,-4.0244,-3.9584,-3.9218,-3.9016,-3.841,-3.7533,-3.6603,-3.6603,-3.6136,-3.5501,-3.5544,-3.5689,-3.5853,-3.5876,-3.5885,-3.5885,-3.5885,-3.5838,-3.5773,-3.5791,-3.4718,-3.3526,-3.3348,-3.2166,-3.095,-3.0743,-3.0691,-3.0716,-3.0773,-3.0781,-3.0781,-3.0778,-3.0778,-3.0778,-3.0781,-3.0756,-3.0753,-3.0776,-3.0753,-3.0751,-3.0751,-3.0743,-3.0763,-3.0767,-3.0731,-3.0704,-3.0704,-3.0689,-3.0675,-3.0687,-3.068,-3.0672,-3.0684,-3.0686,-3.0686,-3.0686,-3.0674,-3.0681,-3.0708,-3.0714,-3.0717,-3.0717,-3.0717,-3.0741,-1.7295,-1.8973,-2.0594,-2.0594,-2.1257,-2.1783,-2.1296,0.0,0.0,0.0,0.0,-2.0899,-2.2172,-2.2327,0.0,-2.6216,-2.7407,0.0,0.0,0.0,0.0,0.0,0.0,0.0,0.0,0.0,0.0,0.0,0.0,-4.0447,-4.0441,-4.0441,-4.0424,-4.0353,-4.0386,-4.037,-4.0301,-4.0301,-4.0301,-4.0301,-4.0301,-4.0301,-4.0301,-4.0336,-4.0327,0.0,0.0,0.0,-3.9684,-3.8848,-3.8303,-3.7955,-3.7483,-3.6839,-3.6132,-3.6132,-3.5944,-3.5674,-3.5674,-3.5776,-3.5908,-3.5903,-3.5908,-3.5908,-3.5908,-3.5866,-3.5755,-3.5362,-3.4604,-3.3712,-3.2954,-3.2059,-3.1248,-3.0834,-3.0739,-3.0764,-3.0796,-3.0801,-3.0801,-3.0801,-3.0801,-3.0806,-3.0804,-3.0808,-3.0792,-3.0767,-3.0749,-3.0749,-3.0749,-3.074,-3.0747,-3.0747,-3.0757,-3.0741,-3.0741,-3.0752,-3.0723,-3.0703,-3.0699,-3.0704,-3.0696,-3.0696,-3.0697,-3.07,-3.0703,-3.0699,-3.0699,-3.0693,-3.0706,-3.0703,-3.0703,-3.0713,-1.6631,-1.8719,-2.0574,-2.0437,-2.1257,-2.2056,-2.1939,0.0,0.0,0.0,0.0,0.0,0.0,0.0,0.0,0.0,0.0,0.0,0.0,0.0,0.0,0.0,0.0,0.0,0.0,0.0,0.0,0.0,0.0,-4.0414,-4.0531,-4.0416,-4.0373,-4.046,-4.0385,-4.0288,-4.0161,-4.0286,-4.0354,-4.0354,-4.0353,-4.0362,-4.0362,-4.0422,-4.0329,-4.0132,0.0,0.0,-3.8869,-3.804,-3.73,-3.6708,-3.6517,-3.6119,-3.5636,-3.5636,-3.5745,-3.588,-3.5892,-3.5897,-3.5897,-3.5899,-3.5921,-3.5921,-3.5921,-3.5824,-3.5532,-3.4669,-3.4411,-3.4052,-3.2494,-3.2007,-3.1717,-3.0981,-3.0806,-3.0808,-3.0791,-3.0793,-3.0793,-3.08,-3.08,-3.0792,-3.0799,-3.0805,-3.0771,-3.0721,-3.0702,-3.0703,-3.0703,-3.0703,-3.0703,-3.0703,-3.0741,-3.0777,-3.0777,-3.0772,-3.0754,-3.0703,-3.0703,-3.0703,-3.0703,-3.0703,-3.0702,-3.0679,-3.0689,-3.0683,-3.0681,-3.0675,-3.0678,-3.0681,-3.0681,-3.0674,-1.7356,-1.9169,-2.0418,-1.9675,-2.1217,-2.274,-2.2056,0.0,0.0,0.0,0.0,0.0,0.0,0.0,0.0,0.0,0.0,0.0,0.0,0.0,0.0,0.0,0.0,0.0,0.0,0.0,0.0,0.0,0.0,-3.998,-4.0717,-4.0052,-3.9984,-4.0718,-4.0034,-3.9625,-3.9533,-4.0205,-4.0552,-4.0552,-4.061,-4.0641,-4.0641,-4.0653,-4.026,-3.9527,0.0,-3.8823,-3.8096,-3.713,-3.6776,-3.6801,-3.6046,-3.5757,-3.5776,-3.5776,-3.5791,-3.582,-3.5885,-3.5901,-3.5906,-3.596,-3.5985,-3.5985,-3.5985,-3.5479,-3.4698,-3.3838,-3.3544,-3.3278,-3.234,-3.1542,-3.0962,-3.0827,-3.0794,-3.0798,-3.0791,-3.0794,-3.0799,-3.0793,-3.0795,-3.0798,-3.08,-3.0797,-3.0791,-3.0789,-3.0742,-3.0696,-3.0696,-3.0696,-3.07,-3.07,-3.0706,-3.0719,-3.0719,-3.0716,-3.0716,-3.0706,-3.07,-3.0704,-3.0689,-3.0709,-3.0678,-3.062,-3.0623,-3.0625,-3.0626,-3.0611,-3.0622,-3.0618,-3.0618,-3.0618,-1.6384,-1.8567,-2.0398,-1.9519,-2.1568,-2.3832,-2.393,0.0,0.0,0.0,0.0,0.0,0.0,0.0,0.0,0.0,0.0,0.0,0.0,0.0,0.0,0.0,0.0,0.0,0.0,0.0,0.0,0.0,0.0,0.0,-3.9422,-3.9068,-3.9044,-3.9447,-3.9096,-3.8892,-3.8859,-3.9259,-3.9398,-3.9259,-3.9287,-3.9298,-3.9303,-3.9369,-3.9146,-3.8673,0.0,-3.787,-3.7378,-3.6494,-3.6188,-3.6267,-3.5814,-3.5749,-3.5862,-3.5894,-3.5912,-3.5901,-3.5944,-3.5953,-3.5957,-3.5983,-3.5971,-3.5956,-3.5956,-3.5663,-3.5077,-3.371,-3.3015,-3.2457,-3.1617,-3.1133,-3.0831,-3.0812,-3.0797,-3.0799,-3.0741,-3.0759,-3.0759,-3.0754,-3.0753,-3.0748,-3.0747,-3.0755,-3.0741,-3.0743,-3.073,-3.0703,-3.0703,-3.0675,-3.0659,-3.0707,-3.0667,-3.0642,-3.0656,-3.0645,-3.0642,-3.0656,-3.0656,-3.0656,-3.0642,-3.0618,-3.0582,-3.055,-3.0543,-3.0496,-3.0381,-3.0487,-3.0427,-3.0221,-3.0292,-3.0262,-1.5898,-1.8101,-2.0222,-1.9967,0.0,-2.4671,-2.5765,0.0,0.0,0.0,0.0,0.0,0.0,0.0,0.0,0.0,0.0,0.0,0.0,0.0,0.0,0.0,0.0,0.0,0.0,0.0,0.0,0.0,0.0,0.0,-3.8354,-3.8179,-3.8159,-3.8354,-3.8228,-3.8144,-3.8144,-3.7998,-3.801,-3.8185,-3.8218,-3.8222,-3.8227,-3.8319,-3.8198,-3.7892,-3.7394,-3.7011,-3.6697,-3.6036,-3.5797,-3.5814,-3.576,-3.5817,-3.5938,-3.5989,-3.6001,-3.6006,-3.6006,-3.6008,-3.5991,-3.5991,-3.5976,-3.5897,-3.5682,-3.5466,-3.4974,-3.343,-3.2538,-3.1854,-3.1028,-3.0836,-3.084,-3.0797,-3.0774,-3.0768,-3.0707,-3.07,-3.0698,-3.0691,-3.0708,-3.0696,-3.0675,-3.0658,-3.0656,-3.0653,-3.0657,-3.0653,-3.0653,-3.0614,-3.0591,-3.0649,-3.058,-3.0482,-3.0462,-3.0458,-3.0453,-3.0405,-3.0485,-3.0518,-3.0501,-3.0423,-3.0362,-3.0351,-3.0344,-3.0241,-3.007,-3.0248,-3.015,-2.9829,-2.995,-2.9882,-1.7363,-1.8588,-1.9772,-2.1314,-2.307,0.0,-2.6528,-2.6801,0.0,0.0,0.0,0.0,0.0,0.0,0.0,0.0,0.0,0.0,0.0,0.0,0.0,0.0,0.0,0.0,0.0,0.0,0.0,0.0,0.0,0.0,-3.8544,-3.7801,-3.7743,-3.8544,-3.7803,-3.7373,-3.7373,-3.6575,-3.6953,-3.8466,-3.8532,-3.8562,-3.8562,-3.8564,-3.8135,-3.7349,-3.7183,-3.6673,-3.5975,-3.5772,-3.5772,-3.5886,-3.5883,-3.5923,-3.5983,-3.6008,-3.5991,-3.5991,-3.5991,-3.5991,-3.5991,-3.5991,-3.5992,-3.5836,-3.5035,-3.4179,-3.3291,-3.2354,-3.2019,-3.1742,-3.0989,-3.0768,-3.0708,-3.0705,-3.0705,-3.0703,-3.0702,-3.07,-3.0693,-3.0699,-3.07,-3.0675,-3.0621,-3.0563,-3.0515,-3.051,-3.0511,-3.05,-3.05,-3.0519,-3.0519,-3.05,-3.0339,-3.0171,-3.0047,-3.0032,-2.9984,-2.987,-3.0152,-3.0294,-3.0222,-3.0096,-2.9988,-2.9855,-2.9847,-2.981,-2.9739,-2.9756,-2.9712,-2.9632,-2.9622,-2.9595,-1.6191,-1.8201,-2.0261,-2.0925,-2.2759,0.0,0.0,0.0,0.0,0.0,0.0,0.0,0.0,0.0,0.0,0.0,0.0,0.0,0.0,0.0,0.0,0.0,0.0,0.0,0.0,0.0,0.0,0.0,0.0,0.0,0.0,-3.6677,-3.6636,-3.697,-3.6657,-3.648,-3.648,-3.6168,-3.6321,-3.6957,-3.6965,-3.6989,-3.6989,-3.6989,-3.6794,-3.65,-3.6444,-3.6241,-3.5953,-3.5901,-3.5927,-3.5965,-3.595,-3.598,-3.6009,-3.5991,-3.5992,-3.5993,-3.5993,-3.5995,-3.5996,-3.5955,-3.5535,-3.5007,-3.4632,-3.3899,-3.2992,-3.211,-3.1851,-3.1676,-3.093,-3.1085,-3.1313,-3.0764,-3.0637,-3.0639,-3.0579,-3.0587,-3.0576,-3.0582,-3.0585,-3.0572,-3.0544,-3.0511,-3.0491,-3.0491,-3.0392,-3.0309,-3.0309,-3.0196,-3.0129,-3.0129,-2.998,-2.9874,-2.9823,-2.9815,-2.9799,-2.9746,-2.9905,-2.9965,-2.9893,-2.9848,-2.9763,-2.9674,-2.9674,-2.9577,-2.94,-2.9523,-2.9409,-2.9115,-2.9227,-2.9052,-1.6228,-1.8554,-2.0989,0.0,0.0,0.0,0.0,0.0,0.0,0.0,0.0,0.0,0.0,0.0,0.0,0.0,0.0,0.0,0.0,0.0,0.0,0.0,0.0,0.0,0.0,0.0,0.0,0.0,0.0,0.0,0.0,-3.5995,-3.5996,-3.5996,-3.5999,-3.6,-3.6,-3.6,-3.6,-3.6,-3.6,-3.5999,-3.5996,-3.5994,-3.5994,-3.5996,-3.5994,-3.5994,-3.5996,-3.6002,-3.6005,-3.6007,-3.5991,-3.5992,-3.5992,-3.5993,-3.5996,-3.5976,-3.5975,-3.5953,-3.5885,-3.557,-3.5027,-3.4399,-3.3785,-3.3176,-3.2518,-3.1633,-3.1564,-3.1583,-3.0814,-3.1025,-3.1319,-3.0719,-3.0564,-3.0554,-3.0506,-3.0505,-3.05,-3.0504,-3.0488,-3.0442,-3.0389,-3.0365,-3.0316,-3.0254,-3.0124,-3.0035,-3.0035,-2.9916,-2.9796,-2.9729,-2.9613,-2.9523,-2.9476,-2.9466,-2.9466,-2.9447,-2.9467,-2.9514,-2.957,-2.9514,-2.9447,-2.9389,-2.9253,-2.9079,-2.8879,-2.8879,-2.8716,-2.8386,-2.8492,-2.8296,-1.7985,-1.9844,-2.1796,0.0,0.0,0.0,0.0,0.0,0.0,0.0,0.0,0.0,0.0,0.0,0.0,0.0,0.0,0.0,0.0,0.0,0.0,0.0,0.0,0.0,0.0,0.0,0.0,0.0,0.0,0.0,0.0,-3.6,-3.6004,-3.6004,-3.6009,-3.5991,-3.5991,-3.5991,-3.5991,-3.5991,-3.5991,-3.6009,-3.6004,-3.5996,-3.5998,-3.6004,-3.5998,-3.5998,-3.6004,-3.6004,-3.6007,-3.5991,-3.5994,-3.5995,-3.5995,-3.5996,-3.5953,-3.5893,-3.5905,-3.5853,-3.5651,-3.4782,-3.4487,-3.4156,-3.2421,-3.1859,-3.1601,-3.0735,-3.106,-3.1493,-3.0617,-3.0458,-3.0499,-3.0504,-3.0504,-3.0504,-3.0499,-3.0499,-3.0479,-3.0499,-3.0444,-3.0323,-3.0129,-3.0044,-2.9939,-2.9731,-2.9705,-2.9696,-2.9696,-2.9696,-2.9588,-2.9329,-2.924,-2.9132,-2.8998,-2.8994,-2.897,-2.8905,-2.8834,-2.895,-2.9279,-2.9097,-2.8952,-2.8893,-2.8496,-2.8259,-2.8183,-2.7787,-2.7554,-2.7495,-2.7352,-2.7293,-1.7243,-1.8984,0.0,0.0,0.0,0.0,0.0,0.0,0.0,0.0,0.0,0.0,0.0,0.0,0.0,0.0,0.0,0.0,0.0,0.0,0.0,0.0,0.0,0.0,0.0,0.0,0.0,0.0,0.0,0.0,0.0,-3.6008,-3.6009,-3.6009,-3.5991,-3.5975,-3.5937,-3.5937,-3.5914,-3.586,-3.586,-3.5914,-3.6009,-3.5956,-3.5937,-3.5937,-3.5872,-3.5892,-3.5937,-3.5975,-3.5994,-3.5996,-3.5996,-3.5975,-3.5927,-3.5922,-3.59,-3.5819,-3.5786,-3.5382,-3.4834,-3.454,-3.3599,-3.2496,-3.1932,-3.1321,-3.0753,-3.0491,-3.0562,-3.0624,-3.0227,-3.0136,-3.0196,-3.0375,-3.0431,-3.0385,-3.019,-3.0144,-3.0103,-2.9954,-2.992,-2.988,-2.9761,-2.9727,-2.9693,-2.9632,-2.9476,-2.9319,-2.9209,-2.9123,-2.9034,-2.8962,-2.8838,-2.8761,-2.8724,-2.8712,-2.8619,-2.836,-2.8268,-2.8425,-2.8862,-2.8779,-2.8582,-2.8268,-2.8088,-2.788,-2.7574,-2.7341,-2.7203,-2.7159,-2.7111,-2.6936,-1.8584,0.0,0.0,0.0,0.0,0.0,0.0,0.0,0.0,0.0,0.0,0.0,0.0,0.0,0.0,0.0,0.0,0.0,0.0,0.0,0.0,0.0,0.0,0.0,0.0,0.0,0.0,0.0,0.0,0.0,0.0,-3.4976,-3.4979,-3.4961,-3.4961,-3.4939,-3.4863,-3.4863,-3.4853,-3.4807,-3.4807,-3.4853,-3.4957,-3.5574,-3.5865,-3.5891,-3.5886,-3.5891,-3.5937,-3.5956,-3.5954,-3.5912,-3.5554,-3.5576,-3.5782,-3.5466,-3.5293,-3.5228,-3.517,-3.4574,-3.3789,-3.3407,-3.2573,-3.1653,-3.1255,-3.0714,-3.0235,-3.0235,-3.0148,-2.9991,-2.9874,-2.9821,-2.9864,-3.0075,-3.0122,-3.0073,-2.9908,-2.985,-2.9802,-2.9686,-2.9633,-2.957,-2.9467,-2.9409,-2.937,-2.9299,-2.9121,-2.8952,-2.8858,-2.8749,-2.8619,-2.85,-2.8383,-2.8264,-2.8097,-2.8079,-2.7964,-2.773,-2.7646,-2.7733,-2.8002,-2.8065,-2.7936,-2.7646,-2.7452,-2.7222,-2.6986,-2.674,-2.659,-2.6573,-2.6522,-2.6316,-2.0915,0.0,0.0,0.0,0.0,0.0,0.0,0.0,0.0,0.0,0.0,0.0,0.0,0.0,0.0,0.0,0.0,0.0,0.0,0.0,0.0,0.0,0.0,0.0,0.0,0.0,0.0,0.0,0.0,0.0,0.0,-3.3398,-3.3398,-3.3386,-3.338,-3.3363,-3.3285,-3.3285,-3.3283,-3.3278,-3.3275,-3.3275,-3.3336,-3.4876,-3.5582,-3.5644,-3.572,-3.5742,-3.5742,-3.5689,-3.5651,-3.5562,-3.4703,-3.4824,-3.5366,-3.463,-3.4326,-3.4255,-3.4187,-3.355,-3.2648,-3.1853,-3.1527,-3.1314,-3.0522,-3.0133,-2.9969,-2.9962,-2.978,-2.9587,-2.9569,-2.9505,-2.9495,-2.9598,-2.9633,-2.967,-2.9661,-2.9606,-2.956,-2.9532,-2.9486,-2.9368,-2.9188,-2.9082,-2.9,-2.8798,-2.8724,-2.8644,-2.8562,-2.8479,-2.8304,-2.7968,-2.7869,-2.7663,-2.7303,-2.7255,-2.7191,-2.7046,-2.6967,-2.692,-2.6855,-2.7129,-2.7191,-2.7046,-2.664,-2.642,-2.6386,-2.5975,-2.5754,-2.577,-2.5607,-2.5422,0.0,-2.1068,0.0,0.0,0.0,0.0,0.0,0.0,0.0,0.0,0.0,0.0,0.0,0.0,0.0,0.0,0.0,0.0,0.0,0.0,0.0,0.0,0.0,0.0,0.0,0.0,0.0,0.0,0.0,0.0,-3.339,-3.3355,-3.3317,-3.3329,-3.3327,-3.3281,-3.3213,-3.3213,-3.32,0.0,-3.3146,-3.3141,-3.3165,-3.3573,-3.3739,-3.3708,-3.3774,-3.3799,-3.3809,-3.3785,-3.377,-3.3757,-3.3571,-3.3547,-3.3638,-3.3466,-3.3321,-3.3222,-3.3211,-3.2622,-3.1853,-3.1654,-3.1037,-3.0292,-3.0064,-2.9845,-2.9676,-2.9613,-2.956,-2.9495,-2.9318,-2.9254,-2.914,-2.8959,-2.9204,-2.9418,-2.9248,-2.9225,-2.9161,-2.9,-2.8962,-2.8892,-2.8755,-2.8718,-2.8657,-2.851,-2.8523,-2.8409,-2.8079,-2.7986,-2.7783,-2.7341,-2.7236,-2.7128,-2.7002,-2.6986,-2.6856,-2.6573,-2.6539,-2.628,-2.5777,-2.6539,-2.6856,-2.6556,-2.6212,-2.5892,-2.5645,-2.5024,-2.4712,-2.4728,-2.4425,-2.4163,0.0,0.0,0.0,0.0,0.0,0.0,0.0,0.0,0.0,0.0,0.0,0.0,0.0,0.0,0.0,0.0,0.0,0.0,0.0,0.0,0.0,0.0,0.0,0.0,0.0,0.0,0.0,0.0,0.0,-3.2199,-3.2169,-3.2116,-3.2071,-3.2005,-3.2002,-3.1988,-3.196,-3.1928,-3.1893,-3.1869,-3.1867,-3.1857,-3.1881,-3.279,-3.316,-3.3107,-3.3172,-3.32,-3.3202,-3.317,-3.3144,-3.3103,-3.2671,-3.2706,-3.2951,-3.2538,-3.2341,-3.2263,-3.2163,-3.1544,-3.0767,-3.067,-3.0243,-2.9756,-2.9686,-2.9514,-2.9351,-2.9321,-2.9217,-2.9093,-2.8943,-2.8862,-2.8767,-2.8594,-2.8815,-2.9038,-2.8897,-2.8838,-2.8779,-2.8669,-2.8637,-2.8587,-2.851,-2.8375,-2.8237,-2.8132,-2.7954,-2.7747,-2.7497,-2.7409,-2.7208,-2.6806,-2.674,-2.6607,-2.6351,-2.6246,-2.6104,-2.5901,-2.5793,-2.5497,-2.4942,-2.5419,-2.5713,-2.5738,-2.5246,-2.4902,-2.4732,-2.4096,-2.3767,-2.3767,-2.3591,-2.3455,0.0,0.0,0.0,0.0,0.0,0.0,0.0,0.0,0.0,0.0,0.0,0.0,0.0,0.0,0.0,0.0,0.0,0.0,0.0,0.0,0.0,0.0,0.0,0.0,0.0,0.0,0.0,0.0,0.0,-3.0832,-3.0765,-3.0757,-3.0699,-3.0587,-3.0583,-3.0591,-3.0588,-3.052,-3.051,-3.051,-3.0485,-3.0474,-3.0532,-3.2024,-3.2689,-3.2645,-3.2716,-3.272,-3.272,-3.2667,-3.2638,-3.2566,-3.1761,-3.1833,-3.2308,-3.1584,-3.1308,-3.1242,-3.1089,-3.0492,-2.9796,-2.9644,-2.9504,-2.9427,-2.9349,-2.9183,-2.9016,-2.9004,-2.8827,-2.865,-2.8574,-2.8523,-2.8458,-2.8327,-2.8414,-2.8525,-2.8562,-2.8523,-2.8453,-2.8383,-2.8251,-2.8156,-2.8156,-2.7911,-2.7707,-2.7654,-2.7282,-2.6982,-2.6871,-2.6773,-2.6556,-2.6209,-2.619,-2.5995,-2.5535,-2.5307,-2.5185,-2.5084,-2.489,-2.4655,-2.4266,-2.4266,-2.4379,-2.4614,-2.4184,-2.3909,-2.3867,-2.3259,-2.2951,-2.2907,-2.2759,-2.2721,0.0,0.0,0.0,0.0,0.0,0.0,0.0,0.0,0.0,0.0,0.0,0.0,0.0,0.0,0.0,0.0,0.0,0.0,0.0,0.0,0.0,0.0,0.0,0.0,0.0,0.0,0.0,0.0,-3.0765,-3.0701,-3.0623,-3.0567,-3.0525,-3.0515,-3.0515,-3.051,-3.0514,-3.0509,-3.0509,-3.0509,-3.0439,-3.0406,-3.0421,-3.0665,-3.0793,-3.0858,-3.0859,-3.0829,-3.076,-3.0763,-3.0761,-3.0747,-3.0565,-3.0452,-3.0367,-3.0261,-3.0102,-2.9956,-2.9921,-2.9756,-2.9561,-2.9523,-2.9358,-2.914,-2.9064,-2.8874,-2.8657,-2.8607,-2.8505,-2.8432,-2.8437,-2.8406,-2.8327,-2.7979,-2.7861,-2.7947,-2.834,-2.8406,-2.8309,-2.7954,-2.7497,-2.7191,-2.7191,-2.7096,-2.7017,-2.7017,-2.6822,-2.6556,-2.6264,-2.6071,-2.5764,-2.5307,-2.5285,-2.5079,-2.4612,-2.4552,-2.4405,-2.411,-2.4048,-2.3943,-2.3724,-2.3724,-2.3551,-2.3201,-2.3493,-2.3537,-2.3311,-2.2711,-2.2314,-2.2133,-2.1441,-2.1004,0.0,0.0,0.0,0.0,0.0,0.0,0.0,0.0,0.0,0.0,0.0,0.0,0.0,0.0,0.0,0.0,0.0,0.0,0.0,0.0,0.0,0.0,0.0,0.0,0.0,0.0,0.0,0.0,-3.072,-3.0664,-3.0605,-3.0571,-3.0534,-3.0505,-3.0509,-3.0504,-3.0504,-3.0463,-3.0394,-3.0286,-3.0254,-3.0196,-3.0126,-3.0121,-3.0241,-3.0444,-3.0359,-3.0298,-3.0241,-3.0143,-3.0107,-3.0063,-3.003,-2.9943,-2.9829,-2.9796,-2.9722,-2.9626,-2.9474,-2.9357,-2.9256,-2.9097,-2.8955,-2.8821,-2.8731,-2.8619,-2.8445,-2.8219,-2.8138,-2.8073,-2.7844,-2.7722,-2.7616,-2.7409,-2.7301,-2.7301,-2.7515,-2.756,-2.7515,-2.733,-2.7096,-2.6936,-2.6936,-2.6674,-2.6437,-2.6437,-2.6071,-2.5638,-2.5297,-2.5109,-2.4855,-2.4482,-2.442,-2.4338,-2.4137,-2.4012,-2.3822,-2.3537,-2.3406,-2.3143,-2.2731,-2.246,-2.2123,-2.1728,-2.2374,-2.2558,-2.2305,-2.1428,-2.0966,-2.087,-2.0283,-2.0029,0.0,0.0,0.0,0.0,0.0,0.0,0.0,0.0,0.0,0.0,0.0,0.0,0.0,0.0,0.0,0.0,0.0,0.0,0.0,0.0,0.0,0.0,0.0,0.0,0.0,0.0,0.0,0.0,-3.0669,-3.0658,-3.0576,-3.0571,-3.0543,-3.0485,-3.0469,-3.0477,-3.0477,-3.0364,-3.0222,-3.0052,-3.0052,-2.9985,-2.9878,-2.9878,-3.0004,-3.0215,-3.0135,-3.0059,-2.9988,-2.9891,-2.9817,-2.9765,-2.9775,-2.9706,-2.9588,-2.9533,-2.9466,-2.9375,-2.9166,-2.9056,-2.8948,-2.8645,-2.85,-2.8427,-2.8277,-2.8169,-2.8073,-2.7811,-2.7707,-2.7604,-2.7301,-2.7144,-2.7031,-2.6871,-2.6773,-2.6757,-2.6871,-2.6773,-2.6657,-2.6657,-2.6522,-2.6386,-2.6266,-2.5931,-2.5654,-2.5545,-2.5063,-2.4639,-2.4379,-2.4199,-2.4012,-2.3773,-2.3687,-2.3601,-2.35,-2.3319,-2.3031,-2.262,-2.2452,-2.2119,-2.1565,-2.121,-2.083,-2.0434,-2.1004,-2.1261,-2.1129,-2.0257,-1.9837,-1.9824,-1.9265,-1.916,0.0,0.0,0.0,0.0,0.0,0.0,0.0,0.0,0.0,0.0,0.0,0.0,0.0,0.0,0.0,0.0,0.0,0.0,0.0,0.0,0.0,0.0,0.0,0.0,0.0,0.0,0.0,0.0,-3.06,-3.0587,-3.0505,-3.0514,-3.0463,-3.0416,-3.041,-3.041,-3.041,-3.0209,-3.0052,-2.991,-2.991,-2.9859,-2.9809,-2.9809,-2.9792,-2.9739,-2.9809,-2.9773,-2.9722,-2.9713,-2.9713,-2.9705,-2.9707,-2.9551,-2.9314,-2.9251,-2.9064,-2.8846,-2.8822,-2.8785,-2.8669,-2.825,-2.8093,-2.7954,-2.7574,-2.7409,-2.7348,-2.735,-2.7192,-2.7049,-2.7017,-2.6969,-2.6839,-2.6505,-2.6333,-2.6351,-2.6806,-2.6403,-2.5949,-2.5949,-2.55,-2.4974,-2.4592,-2.4496,-2.4369,-2.4053,-2.3815,-2.3659,-2.3659,-2.348,-2.3348,-2.3341,-2.3105,-2.2785,-2.2406,-2.2203,-2.1756,-2.0968,-2.0919,-2.0708,-2.0308,-2.0283,-1.9991,-1.9386,-1.9412,-1.958,-1.9901,-1.9503,-1.9371,-1.942,-1.8414,-1.8116,0.0,0.0,0.0,0.0,0.0,0.0,0.0,0.0,0.0,0.0,0.0,0.0,0.0,0.0,0.0,0.0,0.0,0.0,0.0,0.0,0.0,0.0,0.0,0.0,0.0,0.0,0.0,0.0,0.0,-2.9154,-2.9699,-2.9679,-2.9885,-3.0381,-3.0279,-3.0162,-3.009,-3.0011,-2.9875,-2.9716,-2.9652,-2.9598,-2.9482,-2.9434,-2.9384,-2.9304,-2.9283,-2.9346,-2.9438,-2.9346,-2.9262,-2.9198,-2.9188,-2.9108,-2.898,-2.8957,-2.8851,-2.8694,-2.8443,-2.8313,-2.8174,-2.7779,-2.7604,-2.7515,-2.7378,-2.7224,-2.7049,-2.6839,-2.6691,-2.6556,-2.6349,-2.6033,-2.5615,-2.5047,-2.4816,-2.478,-2.4945,-2.496,-2.4937,-2.4937,-2.4588,-2.4251,-2.4095,-2.397,-2.3858,-2.3724,-2.3545,-2.3326,-2.3068,-2.2807,-2.2595,-2.2356,-2.186,-2.1489,-2.1345,-2.1028,-2.0633,-2.0207,-2.0156,-2.0029,-1.9708,-1.9448,-1.9212,-1.8975,-1.8509,-1.8498,-1.8977,-1.8605,-1.8417,-1.8414,-1.776,-1.7634,-1.2266,0.0,0.0,0.0,0.0,0.0,0.0,0.0,0.0,0.0,0.0,0.0,0.0,0.0,0.0,0.0,0.0,0.0,0.0,0.0,0.0,0.0,0.0,0.0,0.0,0.0,0.0,0.0,0.0,0.0,-2.8732,-2.8716,-2.9038,-2.98,-2.97,-2.9669,-2.9767,-2.9767,-2.9662,-2.9474,-2.9425,-2.9343,-2.9229,-2.9197,-2.9112,-2.9021,-2.8994,-2.903,-2.9169,-2.9048,-2.8875,-2.8694,-2.8694,-2.8583,-2.8404,-2.8404,-2.8334,-2.8228,-2.7964,-2.7837,-2.7739,-2.7317,-2.7129,-2.705,-2.6905,-2.664,-2.6352,-2.6124,-2.5892,-2.567,-2.5406,-2.5001,-2.4578,-2.4147,-2.39,-2.3794,-2.3794,-2.397,-2.4137,-2.4137,-2.39,-2.3659,-2.3515,-2.3384,-2.3231,-2.3046,-2.2762,-2.2466,-2.2105,-2.1785,-2.15,-2.1286,-2.0771,-2.0446,-2.0446,-2.0144,-1.9798,-1.9474,-1.9448,-1.9317,-1.8999,-1.8479,-1.8154,-1.8034,-1.729,-1.7056,-1.7302,-1.7556,-1.7689,-1.7689,-1.7256,-1.706,0.0,0.0,0.0,0.0,0.0,0.0,0.0,0.0,0.0,0.0,0.0,0.0,0.0,0.0,0.0,0.0,0.0,0.0,0.0,0.0,0.0,0.0,0.0,0.0,0.0,0.0,0.0,0.0,-2.7903,-2.7841,-2.7667,-2.7674,-2.7994,-2.8651,-2.8662,-2.889,-2.942,-2.942,-2.9312,-2.9126,-2.9134,-2.9082,-2.9034,-2.9023,-2.8955,-2.8857,-2.8827,-2.8845,-2.8851,-2.881,-2.857,-2.8285,-2.8285,-2.7998,-2.7599,-2.7599,-2.7512,-2.7411,-2.7363,-2.7363,-2.7303,-2.6873,-2.664,-2.6471,-2.6083,-2.5589,-2.5192,-2.5157,-2.4788,-2.4369,-2.421,-2.4017,-2.3879,-2.3858,-2.3687,-2.3551,-2.353,-2.353,-2.3551,-2.3573,-2.3392,-2.3127,-2.2731,-2.2649,-2.2443,-2.1841,-2.142,-2.1091,-2.082,-2.0434,-2.0181,-2.0181,-1.994,-1.9773,-1.9773,-1.9512,-1.9184,-1.8798,-1.8744,-1.853,-1.8057,-1.7346,-1.6803,-1.6492,-1.5777,-1.5245,-1.4922,-1.6418,-1.7172,-1.7222,-1.6902,-1.6392,-1.0378,0.0,0.0,0.0,0.0,0.0,0.0,0.0,0.0,0.0,0.0,0.0,0.0,0.0,0.0,0.0,0.0,0.0,0.0,0.0,0.0,0.0,0.0,0.0,0.0,0.0,0.0,0.0,-2.5863,-2.6058,-2.6581,-2.7164,-2.7509,-2.7614,-2.7581,-2.7528,-2.7538,-2.7546,-2.7515,-2.7452,-2.7421,-2.7351,-2.7269,-2.7034,-2.7175,-2.7591,-2.7381,-2.7558,-2.797,-2.825,-2.8098,-2.773,-2.773,-2.7599,-2.7454,-2.7454,-2.7424,-2.7317,-2.6723,-2.6539,-2.6387,-2.5566,-2.5246,-2.5205,-2.5044,-2.4808,-2.4592,-2.4496,-2.4343,-2.4069,-2.3593,-2.3355,-2.3172,-2.2889,-2.2686,-2.248,-2.2072,-2.1941,-2.2091,-2.2807,-2.2549,-2.2086,-2.168,-2.1441,-2.1175,-2.0708,-2.0559,-2.0459,-2.0383,-2.0093,-1.9927,-1.9927,-1.9396,-1.9078,-1.9078,-1.8506,-1.8111,-1.8002,-1.7457,-1.7084,-1.6944,-1.6425,-1.6083,-1.5997,-1.5604,-1.5352,-1.5264,-1.5439,-1.5555,-1.5565,-1.5729,-1.5681,0.0,0.0,0.0,0.0,0.0,0.0,0.0,0.0,0.0,0.0,0.0,0.0,0.0,0.0,0.0,0.0,0.0,0.0,0.0,0.0,0.0,0.0,0.0,0.0,0.0,-2.5141,-2.5096,-2.5011,-2.4987,-2.5125,-2.552,-2.5921,-2.6249,-2.6476,-2.6441,-2.6544,-2.676,-2.6767,-2.6727,-2.6657,-2.6533,-2.641,-2.6337,-2.6026,-2.6079,-2.642,-2.6233,-2.6279,-2.6498,-2.6665,-2.6933,-2.7251,-2.7251,-2.7016,-2.669,-2.669,-2.6556,-2.6284,-2.5752,-2.5568,-2.5456,-2.4871,-2.4612,-2.4552,-2.445,-2.4225,-2.3954,-2.3813,-2.3442,-2.2972,-2.2612,-2.2276,-2.1936,-2.1694,-2.1551,-2.1345,-2.1042,-2.0894,-2.0966,-2.1605,-2.1417,-2.1066,-2.0832,-2.0633,-2.0434,-2.0093,-1.9888,-1.9734,-1.9643,-1.9305,-1.8989,-1.8741,-1.8321,-1.7952,-1.7683,-1.7196,-1.6927,-1.6927,-1.6464,-1.6197,-1.6197,-1.5652,-1.5332,-1.5332,-1.4874,-1.4608,-1.4608,-1.4942,-1.5118,-1.5118,-1.5186,-1.5098,0.0,0.0,0.0,0.0,0.0,0.0,-1.7615,-1.7332,0.0,0.0,0.0,0.0,0.0,0.0,0.0,0.0,0.0,0.0,0.0,0.0,0.0,0.0,0.0,0.0,-2.4987,-2.4974,-2.4936,-2.4871,-2.4831,-2.4752,-2.4532,-2.4419,-2.4644,-2.527,-2.5278,-2.5627,-2.6321,-2.634,-2.6258,-2.614,-2.5884,-2.5739,-2.5661,-2.5399,-2.5287,-2.5301,-2.5208,-2.4986,-2.4748,-2.4639,-2.5343,-2.6535,-2.6535,-2.6115,-2.5496,-2.5478,-2.5227,-2.4863,-2.4672,-2.4612,-2.4592,-2.4482,-2.4343,-2.4204,-2.4008,-2.3599,-2.3187,-2.2995,-2.2244,-2.1482,-2.1482,-2.1031,-2.0585,-2.0585,-2.0497,-2.0345,-2.0295,-2.0181,-2.0105,-2.0169,-2.0181,-2.0131,-2.0105,-2.0055,-1.994,-1.9643,-1.9253,-1.8883,-1.8652,-1.8193,-1.7678,-1.7146,-1.6933,-1.6652,-1.6102,-1.5872,-1.5767,-1.5767,-1.5671,-1.5613,-1.5613,-1.4932,-1.4529,-1.4469,-1.3683,-1.329,-1.329,-1.4569,-1.5206,-1.5177,-1.4883,-1.4478,0.0,0.0,0.0,0.0,0.0,0.0,0.0,-1.4736,0.0,0.0,0.0,0.0,0.0,0.0,0.0,0.0,0.0,0.0,0.0,0.0,0.0,0.0,0.0,0.0,-2.485,-2.4799,-2.4704,-2.4591,-2.4476,-2.432,-2.4135,-2.4095,-2.4051,-2.3973,-2.392,-2.3948,-2.4037,-2.3993,-2.3907,-2.3826,-2.3791,-2.3732,-2.3643,-2.3322,-2.3492,-2.4036,-2.374,-2.3719,-2.3852,-2.3836,-2.3968,-2.4248,-2.4248,-2.4248,-2.4236,-2.4125,-2.4358,-2.4672,-2.422,-2.4069,-2.3985,-2.3538,-2.3304,-2.3098,-2.2566,-2.2282,-2.1992,-2.1441,-2.1042,-2.0809,-2.0809,-2.0622,-2.0434,-2.0434,-2.0333,-2.0131,-1.9696,-1.9475,-1.9279,-1.8869,-1.9384,-1.9773,-1.9462,-1.9212,-1.8946,-1.8506,-1.7957,-1.7562,-1.7518,-1.6922,-1.6443,-1.633,-1.6159,-1.5987,-1.5872,-1.5623,-1.5497,-1.5497,-1.4854,-1.4499,-1.4499,-1.4022,-1.3463,-1.294,-1.2258,-1.1888,-1.1888,-1.3213,-1.3863,-1.3863,-1.3812,-1.3442,0.0,0.0,0.0,-1.6509,0.0,0.0,0.0,0.0,-1.4754,0.0,0.0,0.0,0.0,0.0,0.0,0.0,0.0,0.0,0.0,0.0,0.0,0.0,0.0,0.0,-2.4654,-2.4464,-2.4274,-2.407,-2.3961,-2.384,-2.3703,-2.3671,-2.3577,-2.3403,-2.3369,-2.3335,-2.3311,-2.3277,-2.323,-2.3153,-2.3021,-2.2928,-2.2845,-2.2541,-2.2471,-2.2595,-2.2405,-2.2278,-2.2246,-2.2146,-2.1995,-2.1939,-2.2848,-2.3147,-2.3051,-2.2905,-2.2948,-2.3006,-2.274,-2.2622,-2.2513,-2.2252,-2.2049,-2.187,-2.1503,-2.1299,-2.1129,-2.0795,-2.0409,-2.0105,-2.0105,-1.9811,-1.9489,-1.9489,-1.9397,-1.9226,-1.8948,-1.8762,-1.8467,-1.7913,-1.819,-1.854,-1.8629,-1.8306,-1.7897,-1.7595,-1.7045,-1.6602,-1.6518,-1.6177,-1.5843,-1.5516,-1.5362,-1.5138,-1.4835,-1.4579,-1.446,-1.446,-1.3773,-1.3351,-1.3351,-1.2818,-1.2351,-1.2012,-1.1664,-1.1516,-1.1516,-1.2166,-1.2512,-1.2512,-1.2512,-1.232,0.0,0.0,0.0,0.0,0.0,-1.638,0.0,0.0,0.0,-1.6017,0.0,0.0,0.0,0.0,0.0,0.0,0.0,0.0,0.0,0.0,0.0,0.0,0.0,0.0,0.0,-2.3702,-2.3495,-2.3559,-2.3224,-2.3111,-2.3282,-2.3253,-2.3171,-2.3063,-2.3063,-2.3051,-2.3038,-2.3026,-2.2989,-2.2928,-2.2669,-2.2489,-2.2378,-2.2149,-2.1797,-2.1385,-2.1292,-2.1055,-2.073,-2.0464,-2.0139,-1.9998,-2.1626,-2.2028,-2.1712,-2.1581,-2.1357,-2.1116,-2.1075,-2.0988,-2.0907,-2.0979,-2.0844,-2.065,-2.062,-2.0382,-2.0116,-2.0232,-1.9773,-1.9226,-1.9226,-1.8804,-1.8333,-1.8224,-1.8182,-1.8139,-1.8018,-1.7854,-1.7567,-1.709,-1.695,-1.709,-1.7623,-1.7296,-1.695,-1.6793,-1.6244,-1.5805,-1.5642,-1.5497,-1.5177,-1.4551,-1.4362,-1.4043,-1.342,-1.3199,-1.31,-1.31,-1.2604,-1.232,-1.232,-1.1671,-1.1305,-1.1305,-1.118,-1.1111,-1.1111,-1.1111,-1.1236,-1.1516,-1.1516,-1.1423,0.0,0.0,0.0,0.0,-2.0098,0.0,0.0,0.0,-1.524,-1.3194,0.0,0.0,0.0,0.0,0.0,0.0,0.0,0.0,0.0,0.0,0.0,0.0,0.0,0.0,0.0,-2.1956,-2.2047,-2.3336,-2.2096,-2.1766,-2.291,-2.2955,-2.2829,-2.2592,-2.2579,-2.2552,-2.2497,-2.2429,-2.2377,-2.2293,-2.2141,-2.1924,-2.1613,-2.154,-2.1308,-2.0958,-2.0779,-2.0496,-2.0152,-1.9651,-1.9247,-1.903,-1.9888,-2.0128,-1.9969,-1.9898,-1.9949,-2.0043,-1.9872,-1.9789,-1.984,-2.0184,-1.9898,-1.9467,-1.98,-1.9166,-1.8398,-1.8867,-1.8467,-1.7913,-1.7913,-1.7738,-1.7407,-1.6888,-1.7045,-1.7174,-1.6652,-1.6415,-1.6291,-1.6234,-1.6073,-1.6044,-1.6273,-1.6273,-1.6159,-1.5958,-1.541,-1.5031,-1.5002,-1.443,-1.3782,-1.31,-1.2879,-1.2473,-1.1826,-1.1726,-1.1734,-1.1734,-1.1671,-1.1602,-1.1602,-1.0968,-1.0604,-1.0604,-1.0047,-0.9734,-0.9734,-0.9734,-1.0345,-1.1516,-1.1516,-1.118,0.0,0.0,0.0,0.0,0.0,0.0,-1.6127,0.0,-1.4982,0.0,0.0,0.0,0.0,0.0,0.0,0.0,0.0,0.0,0.0,0.0,0.0,0.0,0.0,0.0,0.0,0.0,0.0,0.0,-2.0197,-2.0025,-2.1281,-2.1626,-2.1774,-2.1687,-2.1687,-2.1703,-2.1766,-2.166,-2.16,-2.1569,-2.1477,-2.1338,-2.1134,-2.0797,-2.0435,-2.0008,-1.9609,-1.9247,-1.8935,-1.865,-1.8467,-1.8344,-1.8554,-1.8652,-1.8687,-1.854,-1.8543,-1.8615,-1.8521,-1.8406,-1.8341,-1.8518,-1.8372,-1.8167,-1.8223,-1.7873,-1.7502,-1.7564,-1.7296,-1.6989,-1.6989,-1.6877,-1.6708,-1.6454,-1.6528,-1.6613,-1.6358,-1.5948,-1.5496,-1.508,-1.4632,-1.415,-1.3673,-1.4611,-1.5342,-1.5196,-1.4314,-1.3627,-1.3528,-1.2901,-1.2358,-1.2081,-1.1981,-1.1826,-1.1509,-1.1516,-1.1516,-1.1516,-1.1118,-1.0755,-1.0351,-1.0079,-0.9919,-0.9919,-0.9638,-0.9516,-0.9516,-0.9516,-0.9792,-1.0345,-1.0345,-1.0199,-2.0481,0.0,0.0,0.0,0.0,0.0,0.0,0.0,0.0,0.0,0.0,0.0,0.0,0.0,0.0,0.0,0.0,0.0,0.0,0.0,0.0,0.0,0.0,0.0,0.0,0.0,0.0,0.0,0.0,-1.8212,-2.0046,-2.0508,-2.083,-2.107,-2.107,-2.1118,-2.1213,-2.1102,-2.0991,-2.0878,-2.0797,-2.0601,-2.03,-1.9928,-1.9489,-1.9026,-1.8612,-1.8313,-1.806,-1.7868,-1.7767,-1.7707,-1.7271,-1.7188,-1.7312,-1.7407,-1.7284,-1.7065,-1.7046,-1.6915,-1.6768,-1.6728,-1.6712,-1.6731,-1.6792,-1.6699,-1.6563,-1.6629,-1.6291,-1.592,-1.592,-1.5718,-1.5467,-1.5293,-1.5381,-1.5477,-1.5293,-1.4817,-1.4248,-1.3712,-1.3132,-1.2525,-1.185,-1.3006,-1.3999,-1.3849,-1.3053,-1.2389,-1.2228,-1.1795,-1.1423,-1.1243,-1.1243,-1.1149,-1.0961,-1.0961,-1.0961,-1.0961,-1.051,-1.0015,-0.9516,-0.9516,-0.942,-0.9215,-0.9215,-0.9119,-0.8926,-0.8926,-0.8926,-0.8926,-0.9318,-0.9516,0.0,0.0,0.0,-1.8787,0.0,0.0,0.0,0.0,-1.6055,0.0,0.0,0.0,0.0,0.0,0.0,0.0,0.0,0.0,0.0,0.0,0.0,0.0,0.0,0.0,0.0,0.0,0.0,0.0,0.0,0.0,-1.9819,-2.0012,-2.0318,-2.0975,-2.0991,-2.1023,-2.1023,-2.0926,-2.0715,-2.0318,-2.0186,-1.9685,-1.8867,-1.8852,-1.8579,-1.8145,-1.8054,-1.8008,-1.7968,-1.7434,-1.7144,-1.6951,-1.6015,-1.5588,-1.5599,-1.6505,-1.6247,-1.5456,-1.539,-1.5279,-1.5158,-1.5012,-1.4974,-1.5123,-1.5908,-1.568,-1.5353,-1.6259,-1.5535,-1.4464,-1.4464,-1.399,-1.336,-1.2749,-1.3067,-1.333,-1.2749,-1.2351,-1.2097,-1.2074,-1.1788,-1.154,-1.1509,-1.1734,-1.1826,-1.1633,-1.1571,-1.154,-1.1547,-1.1509,-1.1236,-1.0604,-1.0548,-1.0269,-0.9606,-0.9574,-0.9574,-0.9574,-0.9548,-0.9516,-0.9516,-0.9516,-0.9183,-0.8554,-0.8522,-0.8166,-0.7451,-0.7451,-0.7451,-0.7484,-0.8861,-0.9516,0.0,0.0,-2.1125,-1.8995,0.0,0.0,0.0,0.0,0.0,0.0,0.0,0.0,0.0,0.0,0.0,0.0,0.0,0.0,0.0,0.0,0.0,0.0,0.0,0.0,0.0,0.0,0.0,0.0,-1.4769,0.0,0.0,-1.888,-1.9449,-2.0124,-2.0189,-2.0122,-1.9949,-1.9826,-1.9528,-1.9041,-1.8943,-1.8717,-1.8319,-1.7966,-1.772,-1.7544,-1.716,-1.6782,-1.6403,-1.6222,-1.5874,-1.5432,-1.5039,-1.4846,-1.4846,-1.5152,-1.5084,-1.4778,-1.4628,-1.453,-1.4445,-1.4128,-1.4047,-1.4023,-1.3986,-1.383,-1.3671,-1.3818,-1.352,-1.3127,-1.3127,-1.2984,-1.274,-1.2535,-1.2596,-1.2626,-1.242,-1.1826,-1.1298,-1.1236,-1.0755,-1.032,-1.0193,-1.0225,-1.0566,-1.1392,-1.1118,-1.085,-1.085,-1.0446,-1.0104,-0.9856,-0.983,-0.9734,-0.9516,-0.9087,-0.885,-0.885,-0.8366,-0.8107,-0.8107,-0.8107,-0.8004,-0.7777,-0.7777,-0.7647,-0.7386,-0.7386,-0.7386,-0.7419,-0.7874,-0.8107,-2.1275,-2.14,0.0,-1.9341,-1.8648,0.0,-1.5962,0.0,0.0,0.0,0.0,0.0,0.0,0.0,0.0,0.0,0.0,0.0,0.0,0.0,0.0,0.0,0.0,0.0,0.0,0.0,-1.1729,-1.3555,0.0,0.0,0.0,0.0,-1.8144,-1.8837,-1.9071,-1.9114,-1.8949,-1.8855,-1.8554,-1.808,-1.8034,-1.7868,-1.7578,-1.7063,-1.679,-1.6672,-1.616,-1.5678,-1.5276,-1.5276,-1.5028,-1.4606,-1.4342,-1.4109,-1.3946,-1.4295,-1.4168,-1.3784,-1.345,-1.3188,-1.2958,-1.2767,-1.2709,-1.2684,-1.2578,-1.2547,-1.2543,-1.25,-1.2328,-1.2151,-1.2151,-1.1934,-1.1717,-1.1717,-1.1593,-1.1469,-1.1469,-1.1,-1.0566,-1.0471,-1.004,-0.9644,-0.9516,-0.9318,-0.9524,-1.0622,-1.0415,-1.0142,-1.0142,-0.9766,-0.9414,-0.9183,-0.9151,-0.9055,-0.8759,-0.8366,-0.8102,-0.8102,-0.7679,-0.7386,-0.7386,-0.7386,-0.7288,-0.7055,-0.7055,-0.6929,-0.6704,-0.6704,-0.6704,-0.6704,-0.6704,-0.6704]},{"header":{"parameterUnit":"m.s-1","parameterCategory":1,"la1":30.6,"la2":29.2853,"lo1":-89.7004,"lo2":-87.6739,"dy":0.0162,"dx":0.0183,"nx":112,"ny":82,"refTime":"2024-10-08T12:00:00:Z","depth":0,"parameterNumber":3,"parameterNumberName":"V-component_of_WINDS"},"data":[0.0,0.0,0.0,0.0,0.0,0.0,0.0,0.0,0.0,0.0,0.0,0.0,0.0,0.0,0.0,0.0,0.0,0.0,0.0,0.0,0.0,0.0,0.0,0.0,0.0,0.0,0.0,0.0,0.0,0.0,0.0,0.0,0.0,0.0,0.0,0.0,0.0,0.0,0.0,0.0,0.0,0.0,0.0,0.0,0.0,0.0,0.0,0.0,0.0,0.0,0.0,0.0,0.0,0.0,0.0,0.0,0.0,0.0,0.0,0.0,0.0,0.0,0.0,0.0,0.0,0.0,0.0,0.0,0.0,0.0,0.0,0.0,0.0,0.0,0.0,0.0,0.0,0.0,0.0,0.0,0.0,0.0,0.0,0.0,0.0,0.0,0.0,0.0,0.0,0.0,0.0,-1.2597,-1.3837,-1.437,-1.3976,-1.3875,-1.3062,-1.1138,0.0,0.0,0.0,0.0,0.0,0.0,0.0,0.0,0.0,0.0,0.0,0.0,0.0,0.0,0.0,0.0,0.0,0.0,0.0,0.0,0.0,0.0,0.0,0.0,0.0,0.0,0.0,0.0,0.0,0.0,0.0,0.0,0.0,0.0,0.0,0.0,0.0,0.0,0.0,0.0,0.0,0.0,0.0,0.0,0.0,0.0,0.0,0.0,0.0,0.0,0.0,0.0,0.0,0.0,0.0,0.0,0.0,0.0,0.0,0.0,0.0,0.0,0.0,0.0,0.0,0.0,0.0,0.0,0.0,0.0,0.0,0.0,0.0,0.0,0.0,0.0,0.0,0.0,0.0,0.0,0.0,0.0,0.0,0.0,0.0,0.0,0.0,0.0,0.0,0.0,0.0,0.0,0.0,0.0,0.0,0.0,0.0,0.0,0.0,0.0,0.0,0.0,0.0,0.0,-1.091,-1.2983,-1.4089,-1.4499,-1.409,-1.3867,-1.3016,-1.1277,0.0,0.0,0.0,0.0,0.0,0.0,0.0,0.0,0.0,0.0,0.0,0.0,0.0,0.0,0.0,0.0,0.0,0.0,0.0,0.0,0.0,0.0,0.0,0.0,0.0,0.0,0.0,0.0,0.0,0.0,0.0,0.0,0.0,0.0,0.0,0.0,0.0,0.0,0.0,0.0,0.0,0.0,0.0,0.0,0.0,0.0,0.0,0.0,0.0,0.0,0.0,0.0,0.0,0.0,0.0,0.0,0.0,0.0,0.0,0.0,0.0,0.0,0.0,0.0,0.0,0.0,0.0,0.0,0.0,0.0,0.0,0.0,0.0,0.0,0.0,0.0,0.0,0.0,0.0,0.0,0.0,0.0,0.0,0.0,0.0,0.0,0.0,0.0,0.0,0.0,0.0,0.0,0.0,0.0,0.0,0.0,0.0,0.0,0.0,0.0,0.0,0.0,0.0,-1.0627,-1.1846,-1.3265,-1.4035,-1.4401,-1.4213,-1.3712,-1.278,-1.1338,-0.9771,0.0,0.0,0.0,0.0,0.0,0.0,0.0,0.0,0.0,0.0,0.0,0.0,0.0,0.0,0.0,0.0,0.0,0.0,0.0,0.0,0.0,0.0,0.0,0.0,0.0,0.0,0.0,0.0,0.0,0.0,0.0,0.0,0.0,0.0,0.0,0.0,0.0,0.0,0.0,0.0,0.0,0.0,0.0,0.0,0.0,0.0,0.0,0.0,0.0,0.0,0.0,0.0,0.0,0.0,0.0,0.0,0.0,0.0,0.0,0.0,0.0,0.0,0.0,0.0,0.0,0.0,0.0,0.0,0.0,0.0,0.0,0.0,0.0,0.0,0.0,0.0,0.0,0.0,0.0,0.0,0.0,0.0,0.0,0.0,0.0,0.0,0.0,0.0,0.0,0.0,0.0,0.0,0.0,0.0,0.0,0.0,0.0,0.0,0.0,0.0,0.0,0.0,-1.1842,-1.2691,-1.3299,-1.3865,-1.4184,-1.408,-1.3328,-1.2383,-1.1133,-0.9419,0.0,0.0,0.0,0.0,0.0,0.0,0.0,0.0,0.0,0.0,0.0,0.0,0.0,0.0,0.0,0.0,0.0,0.0,0.0,0.0,0.0,0.0,0.0,0.0,0.0,0.0,0.0,0.0,0.0,0.0,0.0,0.0,0.0,0.0,0.0,0.0,0.0,0.0,0.0,0.0,0.0,0.0,0.0,0.0,0.0,0.0,0.0,0.0,0.0,0.0,0.0,0.0,0.0,0.0,0.0,0.0,0.0,0.0,0.0,0.0,0.0,0.0,0.0,0.0,0.0,0.0,0.0,0.0,0.0,0.0,0.0,0.0,0.0,0.0,0.0,0.0,0.0,0.0,0.0,0.0,0.0,0.0,0.0,0.0,0.0,0.0,0.0,0.0,0.0,0.0,0.0,0.0,0.0,0.0,0.0,0.0,0.0,0.0,0.0,0.0,0.0,0.0,-1.1752,-1.2877,-1.2943,-1.352,-1.3775,-1.3391,-1.2691,-1.1723,-1.0459,-0.8736,0.0,0.0,0.0,0.0,0.0,0.0,0.0,0.0,0.0,0.0,0.0,0.0,0.0,0.0,0.0,0.0,0.0,0.0,0.0,0.0,0.0,0.0,0.0,0.0,0.0,0.0,0.0,0.0,0.0,0.0,0.0,0.0,0.0,0.0,0.0,0.0,0.0,0.0,0.0,0.0,0.0,0.0,0.0,0.0,0.0,0.0,0.0,0.0,0.0,0.0,0.0,0.0,0.0,0.0,0.0,0.0,0.0,0.0,0.0,0.0,0.0,0.0,0.0,0.0,0.0,0.0,0.0,0.0,0.0,0.0,0.0,0.0,0.0,0.0,0.0,0.0,0.0,0.0,0.0,0.0,0.0,0.0,0.0,0.0,0.0,0.0,0.0,0.0,0.0,0.0,0.0,0.0,0.0,0.0,0.0,0.0,0.0,0.0,0.0,0.0,0.0,0.0,-1.1557,-1.2508,0.0,-1.3462,-1.3604,-1.3439,-1.2944,-1.1963,-1.04,0.0,0.0,0.0,0.0,0.0,0.0,0.0,0.0,0.0,0.0,0.0,0.0,0.0,0.0,0.0,0.0,0.0,0.0,0.0,0.0,0.0,0.0,0.0,0.0,0.0,0.0,0.0,0.0,0.0,0.0,0.0,0.0,0.0,0.0,0.0,0.0,0.0,0.0,0.0,0.0,0.0,0.0,0.0,0.0,0.0,0.0,0.0,0.0,0.0,0.0,0.0,0.0,0.0,0.0,0.0,0.0,0.0,0.0,0.0,0.0,0.0,0.0,0.0,0.0,0.0,0.0,0.0,0.0,0.0,0.0,0.0,0.0,0.0,0.0,0.0,0.0,0.0,0.0,0.0,0.0,0.0,0.0,0.0,0.0,0.0,0.0,0.0,0.0,0.0,0.0,0.0,0.0,0.0,0.0,0.0,0.0,0.0,0.0,0.0,0.0,0.0,0.0,-1.025,-1.1446,-1.2335,0.0,-1.32,-1.3285,-1.326,-1.2632,-1.1631,-1.0166,0.0,0.0,0.0,0.0,0.0,0.0,0.0,0.0,0.0,0.0,0.0,0.0,0.0,0.0,0.0,0.0,0.0,0.0,0.0,0.0,0.0,0.0,0.0,0.0,0.0,0.0,0.0,0.0,0.0,0.0,0.0,0.0,0.0,0.0,0.0,0.0,0.0,0.0,0.0,0.0,0.0,0.0,0.0,0.0,0.0,0.0,0.0,0.0,0.0,0.0,0.0,0.0,0.0,0.0,0.0,0.0,0.0,0.0,0.0,0.0,0.0,0.0,0.0,0.0,0.0,0.0,0.0,0.0,0.0,0.0,0.0,0.0,0.0,0.0,0.0,0.0,0.0,0.0,0.0,0.0,0.0,0.0,0.0,0.0,0.0,0.0,0.0,0.0,0.0,0.0,0.0,0.0,0.0,0.0,0.0,0.0,0.0,0.0,0.0,0.0,0.0,0.0,-0.9778,-1.1425,-1.2505,-1.2505,-1.2735,-1.2832,-1.27,-1.1613,-1.0537,0.0,0.0,0.0,0.0,0.0,0.0,0.0,0.0,0.0,0.0,0.0,0.0,0.0,0.0,0.0,0.0,0.0,0.0,0.0,0.0,0.0,0.0,0.0,0.0,0.0,0.0,0.0,0.0,0.0,0.0,0.0,0.0,0.0,0.0,0.0,0.0,0.0,0.0,0.0,0.0,0.0,0.0,0.0,0.0,0.0,0.0,0.0,0.0,0.0,0.0,0.0,0.0,0.0,0.0,0.0,0.0,0.0,0.0,0.0,0.0,0.0,0.0,0.0,0.0,0.0,0.0,0.0,0.0,0.0,0.0,0.0,0.0,0.0,0.0,0.0,0.0,0.0,0.0,0.0,0.0,0.0,0.0,0.0,0.0,0.0,0.0,0.0,0.0,0.0,0.0,0.0,0.0,0.0,0.0,0.0,0.0,0.0,0.0,0.0,0.0,0.0,0.0,0.0,-1.0089,-1.1483,-1.2406,-1.248,-1.2652,-1.2735,-1.27,-1.2153,-1.1316,-1.0166,0.0,0.0,0.0,0.0,0.0,0.0,0.0,0.0,0.0,0.0,0.0,0.0,0.0,0.0,0.0,0.0,0.0,0.0,0.0,0.0,0.0,0.0,0.0,0.0,0.0,0.0,0.0,0.0,0.0,0.0,0.0,0.0,0.0,0.0,0.0,0.0,0.0,0.0,0.0,0.0,0.0,0.0,0.0,0.0,0.0,0.0,0.0,0.0,0.0,0.0,0.0,0.0,0.0,0.0,0.0,0.0,0.0,0.0,0.0,0.0,0.0,0.0,0.0,0.0,0.0,0.0,0.0,0.0,0.0,0.0,0.0,0.0,0.0,0.0,0.0,0.0,0.0,0.0,0.0,0.0,0.0,0.0,0.0,0.0,0.0,0.0,0.0,0.0,0.0,0.0,0.0,0.0,0.0,0.0,0.0,0.0,0.0,0.0,0.0,0.0,0.0,0.0,-1.0089,-1.1461,-1.2348,-1.248,-1.2627,-1.2676,-1.2627,-1.2362,-1.1626,-1.0303,0.0,0.0,0.0,0.0,0.0,0.0,0.0,0.0,0.0,0.0,0.0,0.0,0.0,0.0,0.0,0.0,0.0,0.0,0.0,0.0,0.0,0.0,0.0,0.0,0.0,0.0,0.0,0.0,0.0,0.0,0.0,0.0,0.0,0.0,0.0,0.0,0.0,0.0,0.0,0.0,0.0,0.0,0.0,0.0,0.0,0.0,0.0,0.0,0.0,0.0,0.0,0.0,0.0,0.0,0.0,0.0,0.0,0.0,0.0,0.0,0.0,0.0,0.0,0.0,0.0,0.0,0.0,0.0,0.0,0.0,0.0,0.0,0.0,0.0,0.0,0.0,0.0,0.0,0.0,0.0,0.0,0.0,0.0,0.0,0.0,0.0,0.0,0.0,0.0,0.0,0.0,0.0,0.0,0.0,0.0,0.0,0.0,0.0,0.0,0.0,0.0,0.0,-0.9857,-1.1326,-1.2323,-1.248,-1.2603,-1.2627,-1.2505,-1.2315,-1.1601,-1.0242,0.0,0.0,0.0,0.0,0.0,0.0,0.0,0.0,0.0,0.0,0.0,0.0,0.0,0.0,0.0,0.0,0.0,0.0,0.0,0.0,0.0,0.0,0.0,0.0,0.0,0.0,0.0,0.0,0.0,0.0,0.0,0.0,0.0,0.0,0.0,0.0,0.0,0.0,0.0,0.0,0.0,0.0,0.0,0.0,0.0,0.0,0.0,0.0,0.0,0.0,0.0,0.0,0.0,0.0,0.0,0.0,0.0,0.0,0.0,0.0,-0.728,0.0,0.0,0.0,0.0,0.0,0.0,0.0,0.0,0.0,0.0,0.0,0.0,0.0,0.0,0.0,0.0,0.0,0.0,0.0,0.0,0.0,0.0,0.0,0.0,0.0,0.0,0.0,0.0,0.0,0.0,0.0,0.0,0.0,0.0,0.0,0.0,0.0,0.0,0.0,0.0,0.0,-0.9799,-1.1226,-1.22,-1.2332,-1.2455,-1.2529,-1.2505,-1.2211,-1.1628,-1.0625,-0.9407,0.0,0.0,0.0,0.0,0.0,0.0,0.0,0.0,0.0,0.0,0.0,0.0,0.0,0.0,0.0,0.0,0.0,0.0,0.0,0.0,0.0,0.0,0.0,0.0,0.0,0.0,0.0,0.0,0.0,0.0,0.0,0.0,0.0,0.0,0.0,0.0,0.0,0.0,0.0,0.0,0.0,0.0,0.0,0.0,0.0,0.0,0.0,0.0,0.0,0.0,0.0,0.0,0.0,0.0,0.0,0.0,0.0,0.0,0.0,0.0,-0.8035,0.0,0.0,0.0,0.0,0.0,0.0,0.0,0.0,0.0,0.0,0.0,0.0,0.0,0.0,0.0,0.0,0.0,0.0,0.0,0.0,0.0,0.0,0.0,0.0,0.0,0.0,0.0,0.0,0.0,0.0,0.0,0.0,0.0,0.0,0.0,0.0,0.0,0.0,0.0,0.0,-1.004,-1.1278,-1.2175,-1.2372,-1.2455,-1.2505,-1.2505,-1.2402,-1.2014,-1.1265,-1.0207,0.0,0.0,0.0,0.0,0.0,0.0,0.0,0.0,0.0,0.0,0.0,0.0,0.0,0.0,0.0,0.0,0.0,0.0,0.0,0.0,0.0,0.0,0.0,0.0,0.0,0.0,0.0,0.0,0.0,0.0,0.0,0.0,0.0,0.0,0.0,0.0,0.0,0.0,0.0,0.0,0.0,0.0,0.0,0.0,0.0,0.0,0.0,0.0,0.0,0.0,0.0,0.0,0.0,-0.9772,-1.0143,-1.1159,-1.0512,-1.034,-1.0484,-0.9674,-0.9167,-0.8884,-0.8532,0.0,0.0,0.0,0.0,0.0,0.0,0.0,0.0,0.0,0.0,0.0,0.0,0.0,0.0,0.0,0.0,0.0,0.0,0.0,0.0,0.0,0.0,0.0,0.0,-1.2073,-1.2165,0.0,0.0,0.0,0.0,0.0,0.0,0.0,0.0,0.0,0.0,0.0,0.0,-1.0408,-1.144,-1.22,-1.2431,-1.248,-1.248,-1.248,-1.2578,-1.2421,-1.1804,-1.1048,-1.0337,0.0,0.0,0.0,0.0,0.0,0.0,0.0,0.0,0.0,0.0,0.0,0.0,0.0,0.0,0.0,0.0,0.0,0.0,0.0,0.0,0.0,0.0,0.0,0.0,0.0,0.0,0.0,0.0,0.0,0.0,0.0,0.0,-0.5204,-0.5611,0.0,0.0,0.0,0.0,0.0,0.0,0.0,0.0,0.0,0.0,0.0,0.0,0.0,-0.9083,-0.9588,-1.0334,-1.07,-1.0626,-1.1258,-1.1359,-1.1132,-1.1461,-1.1513,-1.1339,-1.1464,0.0,-0.9735,-0.9622,0.0,0.0,0.0,0.0,0.0,0.0,0.0,0.0,0.0,0.0,0.0,0.0,0.0,0.0,0.0,0.0,0.0,0.0,0.0,0.0,0.0,0.0,-1.3424,-1.3057,-1.3121,-1.3112,0.0,-1.1301,-0.9813,-0.9004,-0.8572,0.0,0.0,0.0,0.0,0.0,0.0,0.0,-1.0801,-1.1615,-1.215,-1.2298,-1.2332,-1.2332,-1.2332,-1.2455,-1.2276,-1.1663,-1.1298,-1.0903,-1.0381,-0.9179,0.0,0.0,0.0,0.0,0.0,0.0,0.0,0.0,0.0,0.0,0.0,0.0,0.0,0.0,0.0,0.0,0.0,0.0,0.0,0.0,0.0,0.0,0.0,0.0,0.0,0.0,0.0,0.0,0.0,-0.5149,-0.5982,-0.6131,-0.6233,-0.6168,0.0,0.0,0.0,0.0,0.0,0.0,0.0,0.0,0.0,-0.9424,-0.9942,-1.04,-1.0791,-1.1285,-1.1582,-1.1579,-1.1974,-1.2095,-1.2017,-1.2252,-1.23,-1.2192,-1.2155,-1.1772,-1.1208,-1.0578,-0.9785,-0.9042,0.0,0.0,0.0,0.0,-0.971,-0.9729,-0.9664,-0.9568,0.0,-0.8705,0.0,0.0,0.0,0.0,0.0,0.0,0.0,0.0,0.0,0.0,-1.3865,-1.3671,-1.3809,-1.391,-1.3681,-1.2955,-1.1954,0.0,-1.0107,-0.9482,-0.8381,0.0,0.0,0.0,0.0,-1.0628,-1.1218,-1.1776,-1.215,-1.2283,-1.2298,-1.2298,-1.2298,-1.2348,-1.2273,-1.2022,-1.1812,-1.1565,-1.12,-1.0454,-0.9658,0.0,0.0,0.0,0.0,0.0,0.0,0.0,0.0,0.0,0.0,0.0,0.0,0.0,0.0,0.0,0.0,0.0,0.0,0.0,0.0,0.0,0.0,0.0,0.0,0.0,0.0,0.0,0.0,-0.5916,-0.6643,-0.6579,-0.6913,-0.6951,0.0,0.0,0.0,0.0,0.0,0.0,-0.871,-0.9246,-0.9904,-1.0676,-1.1167,-1.1582,-1.1892,-1.2024,-1.2258,-1.2518,-1.2445,-1.2518,-1.2705,-1.2705,-1.2705,-1.2693,-1.2499,-1.2373,-1.224,-1.1273,-1.0503,-0.9922,-1.0168,-1.0094,-0.9921,-1.0533,-1.0739,-1.0739,-1.0699,-1.0638,-1.0457,-0.9712,-0.9525,-0.9609,-0.9655,0.0,0.0,0.0,0.0,-1.2565,-1.2572,-1.34,-1.4167,-1.4066,-1.4286,-1.4433,-1.4112,-1.3956,-1.3525,0.0,-1.1724,-1.1063,-0.9667,0.0,0.0,0.0,0.0,-1.1255,-1.1614,-1.1917,-1.215,-1.2249,-1.2258,-1.2258,-1.2258,-1.2274,-1.2283,-1.2249,-1.2175,-1.2046,-1.1821,-1.1458,-1.0744,-0.962,0.0,0.0,0.0,0.0,0.0,0.0,0.0,0.0,0.0,0.0,0.0,0.0,0.0,0.0,0.0,0.0,0.0,0.0,0.0,0.0,0.0,0.0,0.0,0.0,0.0,0.0,0.0,0.0,0.0,-0.7079,-0.7865,0.0,0.0,0.0,0.0,-0.8371,-0.8516,-0.8942,-0.9675,-1.0361,-1.0968,-1.1529,-1.1991,-1.2506,-1.2993,-1.2789,-1.2807,-1.3079,-1.2813,-1.2693,-1.2705,-1.2705,-1.2705,-1.2705,-1.2693,-1.2542,-1.227,-1.1676,-1.131,-1.1046,-1.139,-1.1353,-1.1111,-1.1158,-1.1165,-1.1096,-1.0504,-1.0146,-0.9971,-1.0182,-1.0203,-1.0225,-1.0619,-1.0881,0.0,0.0,-1.2196,-1.3588,-1.2573,-1.3677,-1.4946,-1.457,-1.4497,-1.4476,-1.4458,-1.4167,-1.3745,0.0,-1.3186,-1.2901,-1.2064,0.0,-1.1844,-1.1448,-1.1416,-1.1623,-1.2018,-1.2092,-1.2101,-1.2101,-1.2101,-1.2101,-1.2101,-1.2224,-1.2258,-1.2126,-1.2224,-1.2224,-1.2098,-1.1697,-1.1158,-1.0463,-0.9152,0.0,0.0,0.0,0.0,0.0,0.0,0.0,0.0,0.0,0.0,0.0,0.0,0.0,0.0,0.0,0.0,0.0,0.0,0.0,0.0,0.0,0.0,0.0,0.0,0.0,0.0,0.0,0.0,-0.8219,-0.8662,0.0,-0.857,-0.8802,-0.9077,-0.9394,-0.9603,-0.997,-1.0529,-1.1079,-1.1619,-1.2083,-1.2554,-1.2998,-1.333,-1.3272,-1.3272,-1.3369,-1.3103,-1.2976,-1.297,-1.2789,-1.2705,-1.2705,-1.2705,-1.265,-1.2548,-1.2361,-1.2029,-1.1624,-1.176,-1.1744,-1.1639,-1.1465,-1.1397,-1.1335,-1.0967,-1.0737,-1.0647,-1.0569,-1.0714,-1.0855,-1.056,-1.1202,-1.1974,-1.1572,-1.2391,-1.338,-1.3352,-1.3839,-1.4356,-1.4478,-1.4515,-1.4515,-1.4515,-1.4396,-1.424,-1.4102,-1.3653,-1.3139,-1.2579,-1.2707,-1.2661,-1.1991,-1.211,-1.2229,-1.2119,-1.2101,-1.2101,-1.2101,-1.2101,-1.2101,-1.2101,-1.215,-1.215,-1.2101,-1.191,-1.1772,-1.1724,-1.1422,-1.0984,-1.0459,-0.9748,-0.8737,0.0,0.0,0.0,0.0,0.0,0.0,0.0,0.0,0.0,0.0,0.0,0.0,0.0,0.0,0.0,0.0,0.0,0.0,0.0,0.0,0.0,0.0,0.0,0.0,0.0,0.0,-0.842,-0.8852,-0.9351,-0.962,-0.9464,-0.9744,-1.003,-1.0261,-1.0509,-1.0816,-1.1203,-1.1674,-1.2098,-1.2529,-1.292,-1.3276,-1.3646,-1.3562,-1.3562,-1.3646,-1.3381,-1.3209,-1.3248,-1.297,-1.2843,-1.2837,-1.2747,-1.2705,-1.2705,-1.2705,-1.2499,-1.2186,-1.2186,-1.2186,-1.2155,-1.185,-1.17,-1.1573,-1.12,-1.1111,-1.1081,-1.0869,-1.1013,-1.1147,-1.0699,-1.1323,-1.2123,-1.1885,-1.2393,-1.3036,-1.3306,-1.3676,-1.3933,-1.3848,-1.401,-1.4169,-1.4169,-1.4169,-1.4228,-1.4455,-1.4075,-1.3571,-1.3176,-1.3332,-1.3295,-1.2615,-1.2615,-1.2597,-1.233,-1.2183,-1.2101,-1.2101,-1.2101,-1.2101,-1.2101,-1.2101,-1.2101,-1.2101,-1.1733,-1.1489,-1.1489,-1.1222,-1.0848,-1.0408,-0.9917,-0.9141,-0.8102,0.0,0.0,0.0,0.0,0.0,0.0,0.0,0.0,0.0,0.0,0.0,0.0,0.0,0.0,0.0,0.0,0.0,0.0,0.0,0.0,0.0,0.0,0.0,-0.7182,-0.835,-0.9152,-0.8987,-0.9949,-1.0426,-0.997,-1.0351,-1.0721,-1.0988,-1.1193,-1.1429,-1.1698,-1.2157,-1.2512,-1.2797,-1.2979,-1.3383,-1.3871,-1.367,-1.367,-1.3918,-1.3652,-1.3525,-1.3519,-1.3209,-1.3095,-1.3121,-1.2837,-1.2717,-1.2717,-1.2705,-1.2705,-1.2705,-1.2705,-1.2705,-1.2674,-1.2409,-1.2137,-1.1796,-1.1304,-1.1117,-1.1111,-1.1111,-1.1111,-1.1111,-1.1111,-1.1223,-1.1446,-1.1632,-1.215,-1.2627,-1.2456,-1.3216,-1.3785,-1.2745,-1.3009,-1.3472,-1.3472,-1.3472,-1.3662,-1.4357,-1.4476,-1.4348,-1.3974,-1.3929,-1.3791,-1.3351,-1.2974,0.0,-1.2645,-1.2314,-1.2076,-1.2076,-1.2076,-1.2076,-1.2101,-1.2101,-1.2092,-1.2082,-1.1706,-1.1494,-1.1494,-1.1167,-1.0804,-1.0426,-0.9618,-0.9189,-0.9124,0.0,0.0,0.0,0.0,0.0,0.0,0.0,0.0,0.0,0.0,0.0,0.0,0.0,0.0,0.0,0.0,0.0,0.0,0.0,0.0,0.0,0.0,-0.834,-0.8597,-0.926,-0.989,-1.0387,-1.0686,-1.0907,-1.0914,-1.123,-1.1435,-1.1499,-1.1725,-1.1932,-1.1997,-1.2229,-1.2499,-1.2785,-1.3189,-1.3559,-1.3915,-1.4028,-1.4117,-1.4183,-1.3924,-1.3797,-1.3791,-1.3525,-1.3405,-1.3393,-1.3127,-1.3006,-1.2988,-1.2789,-1.2705,-1.2705,-1.2705,-1.2705,-1.2674,-1.2409,-1.2029,-1.1579,-1.1429,-1.1242,-1.1111,-1.1111,-1.1111,-1.1111,-1.1111,-1.1149,-1.1223,-1.1446,-1.1723,-1.2015,-1.2136,-1.2531,-1.2818,-1.2562,-1.2634,-1.2757,-1.2757,-1.2757,-1.2978,-1.3631,-1.3761,-1.3885,-1.4262,-1.4341,-1.4102,-1.3396,-1.3222,0.0,-1.1797,-1.1589,-1.1528,-1.1528,-1.1528,-1.1678,-1.2076,-1.2101,-1.1981,-1.1673,-1.1283,-1.1053,-1.1053,-1.0689,-1.0582,-1.0748,-0.9975,-0.955,0.0,0.0,0.0,0.0,0.0,0.0,0.0,0.0,0.0,0.0,0.0,0.0,0.0,0.0,0.0,0.0,0.0,0.0,0.0,0.0,0.0,0.0,-0.7834,-0.8766,-0.9306,-0.9958,-1.0519,-1.0934,-1.1074,-1.1235,-1.1429,-1.1623,-1.1741,-1.1838,-1.211,-1.2245,-1.2245,-1.2431,-1.2655,-1.2942,-1.3177,-1.3539,-1.3883,-1.407,-1.4208,-1.4292,-1.4141,-1.4069,-1.4063,-1.3797,-1.3676,-1.3664,-1.3399,-1.3179,-1.3109,-1.2946,-1.2813,0.0,0.0,0.0,0.0,0.0,-1.2047,-1.1639,-1.1531,-1.1309,-1.1111,-1.1111,-1.1111,-1.1111,-1.1111,-1.1111,-1.1149,-1.1335,-1.1321,-1.1287,-1.1544,-1.1773,-1.1884,-1.1657,-1.1841,-1.2089,-1.2089,-1.2089,-1.2274,-1.2948,-1.307,0.0,-1.3601,-1.4139,-1.4207,-1.3354,-1.3084,-1.2528,-1.1342,-1.1022,-1.0922,-1.0922,-1.1141,-1.1427,-1.1753,-1.1977,0.0,0.0,0.0,-1.0658,-1.0296,-1.0211,0.0,0.0,0.0,0.0,0.0,0.0,0.0,0.0,-0.9791,-0.9626,0.0,0.0,0.0,0.0,0.0,0.0,0.0,0.0,0.0,0.0,0.0,0.0,0.0,0.0,0.0,0.0,-0.8295,-0.8848,-0.9475,-1.0311,-1.0894,-1.0936,-1.1198,-1.1429,-1.1677,-1.1747,-1.1865,-1.2121,-1.2318,-1.2457,-1.2457,0.0,0.0,0.0,0.0,-1.3346,-1.3786,-1.3883,-1.4022,-1.425,-1.4298,-1.4298,-1.4292,-1.4057,-1.3954,-1.3936,-1.367,-1.3411,-1.3119,-1.3095,-1.2958,-1.2705,-1.2705,-1.2705,-1.2674,-1.2445,-1.2174,-1.189,-1.1615,0.0,0.0,-1.1111,-1.1111,-1.1111,-1.1111,-1.1111,-1.1149,-1.1335,-1.1032,-1.0719,-1.083,-1.1075,-1.108,-1.0416,-1.08,-1.1334,-1.1358,-1.1358,-1.1577,-1.2235,-1.2389,-1.242,-1.2481,-1.348,-1.3975,-1.3101,-1.2648,-1.2043,-1.1029,-1.0559,-1.032,-1.032,0.0,0.0,-1.1192,-1.1694,-1.1751,-1.1157,-1.0801,-1.0248,-0.9469,-0.9833,-1.0044,-1.0051,-0.9937,-1.0038,-1.0389,-1.0389,-1.0364,-1.0307,-0.97,-0.9497,0.0,0.0,0.0,0.0,0.0,0.0,0.0,0.0,0.0,0.0,0.0,0.0,0.0,0.0,0.0,-0.7488,-0.8316,-0.9014,-0.9338,-0.9851,-1.0322,-1.0661,-1.1259,-1.165,-1.1693,-1.2048,-1.2296,-1.2339,-1.2565,-1.2694,-1.2694,-1.2786,-1.2813,-1.2861,-1.3001,-1.3147,-1.3244,-1.3684,-1.3931,-1.3979,0.0,0.0,-1.4292,-1.4244,-1.422,-1.4208,-1.3948,-1.3682,-1.3423,-1.3212,-1.2958,-1.2705,-1.2705,-1.2705,-1.2699,-1.265,-1.233,-1.1874,-1.1826,-1.1522,-1.1111,-1.1111,-1.1111,-1.1111,-1.1111,-1.1111,0.0,-1.1149,-1.1187,-1.1149,-1.0756,-1.0838,-1.0808,-1.0187,-1.0174,-1.0333,-1.0491,-1.0523,-1.0769,-1.1545,-1.1694,-1.188,-1.242,-1.2726,-1.2734,-1.2207,-1.1881,-1.136,-1.0414,-0.997,-0.9762,-0.9762,-1.0244,-1.0576,-1.0576,-1.1133,-1.1056,-1.0156,-1.0019,-0.9907,-0.9739,-1.0122,-1.0323,-1.0311,-1.0294,-1.0326,-1.0389,-1.0389,-1.0192,-0.9755,-1.0048,-1.0197,0.0,0.0,0.0,0.0,0.0,0.0,0.0,0.0,0.0,0.0,0.0,-0.5991,-0.6465,0.0,-0.7404,-0.7813,-0.8317,-0.8734,-0.893,-0.9345,-0.982,-1.025,-1.0931,-1.1389,-1.1544,-1.206,-1.2463,-1.2581,-1.2694,-1.2813,-1.2813,-1.2813,-1.2813,-1.2813,-1.291,-1.3001,-1.3098,-1.3394,-1.3642,-1.3883,-1.4022,-1.416,-1.4298,-1.4298,-1.4298,-1.4292,-1.4159,-1.3882,-1.3483,-1.3079,-1.2831,-1.2705,-1.2705,-1.2705,-1.2705,-1.2705,-1.2373,-1.188,-1.188,-1.1564,-1.1111,-1.1111,-1.1111,-1.1111,-1.1111,-1.1111,-1.1111,-1.1111,-1.1095,-1.0967,-1.0534,-1.0504,-1.044,-0.9994,-0.9951,-1.0015,-1.0149,-1.0142,-1.0269,-1.0674,-1.0737,-1.0856,-1.1188,-1.125,-1.1298,-1.1465,-1.1278,-1.0744,-0.9763,-0.9373,-0.9211,-0.9211,-0.9692,-0.9987,-0.9987,-1.0285,-1.024,-0.9733,-0.9693,-0.9575,-0.9304,-0.9757,-0.9865,-0.9614,-0.9588,-0.9588,-0.9588,-0.9588,-0.9465,-0.9211,-0.9484,-0.9588,0.0,0.0,0.0,0.0,0.0,0.0,0.0,0.0,-0.5571,-0.6087,-0.6457,-0.6855,-0.7469,-0.7594,-0.778,-0.8219,-0.8321,-0.8398,-0.8592,-0.8915,-0.9305,-0.9694,-1.0401,-1.1025,-1.1385,-1.1942,-1.2411,-1.2791,-1.2813,-1.2813,-1.2813,-1.2813,-1.2813,-1.2813,-1.2813,-1.2856,-1.305,-1.3098,-1.3298,-1.3738,-1.3786,-1.3925,-1.4154,-1.4202,-1.4202,-1.4202,-1.4189,-1.3906,-1.3471,-1.2928,-1.2705,-1.2705,-1.2705,-1.2705,-1.2705,-1.2705,-1.2403,-1.1952,-1.1938,-1.1561,-1.1184,-1.1129,-1.1111,-1.1111,-1.1111,-1.1111,-1.1111,-1.1111,-1.096,-1.0689,-1.0376,-1.0272,-1.0134,-0.9814,-0.983,-0.9926,-0.9951,-0.9958,-0.9958,-0.9983,-0.9983,-0.9983,-0.9983,-1.0015,-1.0254,-1.0807,-1.0674,-1.0265,-0.9439,-0.9084,-0.8891,-0.8891,-0.9318,-0.9588,-0.9588,-0.9517,-0.9439,-0.9439,-0.9439,-0.9256,-0.8804,-0.9211,-0.9237,-0.8811,-0.8804,-0.8804,-0.8804,-0.8804,-0.8804,-0.8804,-0.8864,-0.8891,-0.4578,-0.4498,-0.4611,-0.5102,-0.5209,-0.5482,0.0,0.0,-0.6686,-0.7192,-0.7506,-0.7673,-0.7755,-0.8029,-0.8219,-0.828,-0.843,-0.8588,-0.8608,-0.8656,-0.8696,-0.874,-0.9736,-1.0655,-1.1339,-1.1651,-1.2067,-1.2743,-1.2813,-1.2813,-1.2813,-1.2813,-1.2813,-1.2813,-1.2813,-1.2813,-1.2813,-1.3001,-1.3147,-1.3195,-1.3443,-1.3539,-1.3588,-1.3829,-1.3931,-1.395,-1.367,-1.3568,-1.3471,-1.2928,-1.2705,-1.2705,-1.2705,-1.2705,-1.2705,-1.2705,-1.2518,-1.2234,-1.1964,-1.1688,-1.1405,-1.119,-1.1111,-1.1111,-1.1111,-1.1111,-1.1111,-1.1111,-1.1093,-1.0954,-1.0418,-1.0274,-1.0158,-0.9663,-0.9548,-0.9612,-0.9772,-0.9836,-0.9862,-0.9983,-0.9983,-0.9983,-0.9983,-1.0142,-1.0231,-1.0129,-1.0045,-0.9939,-0.9853,-0.9425,-0.9164,-0.9164,-0.9425,-0.9588,-0.9588,-0.9159,-0.8883,-0.8883,-0.8883,-0.8857,-0.8804,-0.8857,-0.8857,-0.8804,-0.8804,-0.8804,-0.8804,-0.8804,-0.8804,-0.8811,-0.9044,-0.9164,-0.5121,-0.5214,0.0,0.0,-0.5957,-0.6278,-0.6861,-0.7012,-0.7147,-0.7683,-0.7939,-0.8143,-0.8253,-0.8392,-0.8494,0.0,-0.8559,-0.8612,-0.8612,-0.8612,-0.8571,-0.8418,-0.8955,-0.9633,-1.0454,-1.0942,-1.1537,-1.2306,-1.2322,-1.2467,-1.2759,-1.2813,-1.2813,-1.2813,-1.2813,-1.2813,-1.2813,-1.2856,-1.3001,-1.3098,-1.3195,-1.3346,-1.3491,-1.3636,-1.3738,-1.3854,-1.3333,-1.3241,-1.3471,-1.2798,-1.2577,-1.2705,-1.2705,-1.2705,-1.2705,-1.2705,-1.2439,-1.2071,-1.1922,-1.1603,-1.1268,-1.1148,-1.1111,-1.1111,-1.1111,-1.1111,-1.1111,-1.1111,-1.1111,-1.0991,-1.043,-1.0292,-1.016,-0.9636,-0.9516,-0.9516,-0.9612,-0.9612,-0.9644,-0.9702,-0.9702,-0.9702,-0.9702,-0.9766,-0.9798,-0.9734,-0.9874,-1.0029,-1.0029,-0.9694,-0.9404,-0.9231,-0.9159,-0.9133,-0.9133,-0.8936,-0.8804,-0.8804,-0.8804,-0.8804,-0.8804,-0.8804,-0.8804,-0.8804,-0.8804,-0.8804,-0.8804,-0.8951,-0.9031,-0.9038,-0.9359,-0.9586,-0.5358,0.0,0.0,-0.6117,-0.6525,-0.6887,-0.7098,-0.724,-0.7496,-0.7923,-0.8117,-0.8256,-0.839,-0.8498,-0.8535,-0.8535,-0.8575,-0.8612,-0.8612,-0.8567,-0.8506,-0.8377,-0.8482,-0.8806,-0.9535,-1.0152,-1.091,-1.1859,-1.1933,-1.2157,-1.2759,-1.2813,-1.2813,-1.2813,-1.2813,-1.2813,-1.2813,-1.2813,-1.2861,-1.3001,-1.3001,-1.3098,-1.3298,-1.3346,-1.3539,-1.3757,-1.3142,-1.3104,-1.3335,-1.2711,-1.2577,-1.2705,-1.2705,-1.2705,-1.2705,-1.2705,-1.2415,-1.2023,-1.195,-1.1618,-1.1214,-1.1135,-1.1111,-1.1111,-1.1111,-1.1111,-1.1111,-1.1111,-1.1057,-1.0863,-1.0412,-1.0244,-1.0075,-0.9624,-0.9516,-0.9516,-0.9516,-0.9516,-0.9516,-0.9516,-0.9516,-0.9516,-0.9516,-0.9548,-0.958,-0.958,-0.985,-1.0087,-1.0087,-0.992,-0.9659,-0.9251,-0.9024,-0.8865,-0.8811,-0.8778,-0.8745,-0.8745,-0.8699,-0.8699,-0.8699,-0.8699,-0.8699,-0.8745,-0.8745,-0.8791,-0.8898,-0.9111,-0.9251,-0.9344,-0.9666,-0.9913,0.0,0.0,-0.5213,-0.6013,-0.6709,-0.7253,-0.7427,-0.7649,-0.7837,-0.7975,-0.8016,-0.8024,-0.8028,-0.8178,-0.83,-0.83,-0.8494,-0.8612,-0.8612,-0.841,-0.8361,-0.858,-0.8406,-0.8438,0.0,-0.9326,-1.0218,-1.1611,-1.1694,-1.2029,-1.2748,-1.2813,-1.2813,-1.2813,-1.2813,-1.2813,-1.2813,-1.2813,-1.2813,-1.2813,-1.2813,-1.2813,-1.2813,-1.3001,-1.3249,-1.3511,-1.3234,-1.3099,-1.3103,-1.2798,-1.2705,-1.2705,-1.2705,-1.2705,-1.2705,-1.2705,-1.2536,-1.2264,-1.2011,-1.1706,-1.1435,-1.1196,-1.1111,-1.1111,-1.1111,-1.1111,-1.1111,-1.1111,-1.0894,-1.0635,-1.0364,-1.0106,-0.9847,-0.9582,-0.9516,-0.9516,-0.9516,-0.9516,-0.9516,-0.9516,-0.9516,-0.9516,-0.9516,-0.9676,-0.9804,-0.9804,-0.9919,-1.0002,-1.0002,-1.004,-0.985,-0.9271,-0.9204,-0.9084,-0.8831,-0.8685,-0.86,-0.86,-0.8474,-0.8427,-0.8427,-0.8427,-0.8474,-0.86,-0.86,-0.8797,-0.9198,-0.9211,-0.9357,-0.9708,-0.9967,-1.0077,-0.4572,0.0,-0.5724,-0.6139,-0.6729,-0.7252,-0.7383,-0.7268,-0.7316,-0.7893,-0.7516,-0.7193,-0.7596,-0.7724,-0.7808,-0.7927,-0.8225,-0.8426,-0.8596,-0.8613,-0.8576,-0.8402,-0.8536,0.0,0.0,0.0,0.0,-1.0554,-1.0967,-1.1494,-1.2209,-1.2619,-1.2813,-1.2813,-1.2813,-1.2813,-1.2813,-1.2813,-1.2813,-1.2813,-1.2813,-1.2813,-1.2813,-1.2861,-1.3001,-1.3216,-1.2677,-1.2597,-1.2876,-1.2287,-1.2123,-1.2246,-1.2246,-1.2246,-1.2246,-1.2454,-1.2331,-1.207,-1.193,-1.1712,-1.1447,-1.1202,-1.1111,-1.1111,-1.1111,-1.1111,-1.1111,-1.1111,-1.1051,-1.0845,-1.0406,-1.0232,-1.0051,-0.9618,-0.9516,-0.9516,-0.9516,-0.9516,-0.9516,-0.9516,-0.9516,-0.9516,-0.9516,-0.9548,-0.9612,-0.9612,-0.983,-0.9983,-0.9983,-0.9867,-0.9685,-0.9491,-0.9305,-0.9079,-0.8838,-0.8751,-0.8667,-0.8487,-0.8421,-0.8395,-0.8395,-0.8474,-0.8547,-0.86,-0.8769,-0.8925,-0.9079,-0.9343,-0.9583,-0.983,-1.012,-1.0283,-0.4219,-0.4812,-0.5393,-0.6106,-0.6704,-0.713,-0.7191,-0.6855,-0.6766,-0.7466,-0.6719,-0.6207,-0.7073,-0.7038,-0.7052,-0.7591,-0.8046,-0.8373,-0.8625,-0.8751,-0.8759,-0.8597,-0.8723,0.0,0.0,0.0,0.0,-0.9995,-1.0407,-1.1015,-1.1965,-1.2322,-1.2613,-1.2813,-1.2813,-1.2813,-1.2813,-1.2813,-1.2813,-1.2813,-1.2813,-1.2813,-1.2813,-1.2813,-1.2861,-1.2974,-1.2439,-1.2369,-1.2603,-1.203,-1.1871,-1.2,-1.2,-1.2,-1.2043,-1.2203,-1.2142,-1.1992,-1.1925,-1.1712,-1.1447,-1.1202,-1.1111,-1.1111,-1.1111,-1.1111,-1.1111,-1.1111,-1.1045,-1.0876,-1.0406,-1.0226,-1.0045,-0.9618,-0.9516,-0.9516,-0.9516,-0.9516,-0.9516,-0.9516,-0.9516,-0.9516,-0.9516,-0.9516,-0.9516,-0.9516,-0.967,-0.9862,-0.9926,-0.9831,-0.9717,-0.9616,-0.9451,-0.9229,-0.8966,-0.8906,-0.8802,-0.8625,-0.8557,-0.8502,-0.8502,-0.8585,-0.8661,-0.8743,-0.8907,-0.9083,-0.9221,-0.9462,-0.9721,-0.9947,-1.0122,-1.0269,-0.383,-0.4127,-0.4387,-0.5882,-0.6518,-0.6822,-0.6811,-0.6387,-0.6128,-0.6707,-0.572,-0.5142,0.0,0.0,-0.6178,-0.7281,-0.7908,-0.8402,-0.8771,-0.8828,-0.8897,0.0,0.0,0.0,0.0,0.0,0.0,-0.985,0.0,-1.0631,-1.1868,-1.198,-1.2224,-1.2759,-1.2813,-1.2813,-1.2813,-1.2813,-1.2813,-1.2813,-1.2813,-1.2813,-1.2813,-1.2813,-1.2813,-1.2786,-1.2486,-1.2363,-1.2376,-1.2068,-1.1957,-1.1957,-1.1957,-1.1957,-1.1957,-1.2,-1.2,-1.1969,-1.191,-1.1718,-1.1465,-1.1188,-1.1086,-1.1074,-1.1074,-1.1074,-1.1074,-1.1074,-1.09,-1.0647,-1.0382,-1.013,-0.9877,-0.9618,-0.9546,-0.9534,-0.9534,-0.9528,-0.9516,-0.9516,-0.9516,-0.9516,-0.9516,-0.9516,-0.9516,-0.9516,-0.9516,-0.958,-0.9772,-0.9894,-0.9888,-0.9623,-0.9598,-0.9484,-0.9212,-0.9087,-0.8986,-0.8974,-0.8792,-0.8675,-0.8645,-0.8704,-0.8792,-0.8938,-0.8986,-0.9212,-0.9579,-0.9591,-0.973,-0.9989,-0.9951,-0.9951,-0.275,-0.3719,-0.4729,-0.5193,-0.5517,-0.5707,-0.5717,-0.4884,-0.4375,-0.5358,-0.467,-0.4276,-0.5498,0.0,0.0,-0.6806,-0.7569,0.0,-0.8751,-0.8938,0.0,-0.9092,0.0,-0.9185,-0.9104,-0.9214,0.0,0.0,-0.9897,-1.0294,-1.0792,-1.159,-1.2073,-1.2224,-1.2565,-1.2813,-1.2813,-1.2813,-1.2813,-1.2813,-1.2813,-1.2813,-1.2813,-1.2813,-1.2813,-1.2786,-1.2346,-1.2186,-1.2148,-1.1674,-1.1483,-1.1483,-1.1483,-1.1483,-1.1478,-1.1699,-1.1785,-1.1755,-1.1542,-1.1398,-1.1306,-1.1045,-1.0831,-1.0663,-1.0663,-1.0663,-1.0663,-1.0812,-1.084,-1.077,-1.0617,-1.0533,-1.0418,-1.016,-0.9949,-0.9805,-0.9805,-0.9654,-0.9516,-0.9516,-0.9516,-0.9516,-0.9516,-0.9516,-0.9516,-0.9516,-0.9516,-0.9516,-0.958,-0.9612,-0.9614,-0.9547,-0.9541,-0.9431,-0.9144,-0.909,-0.9005,-0.8775,-0.8733,-0.8469,-0.7968,-0.8587,-0.8704,-0.8198,-0.8909,-0.9357,-0.9463,-0.9506,-0.9635,-0.983,-0.93,-0.939,-0.2307,-0.3086,-0.4,-0.4792,-0.4804,-0.4695,-0.5027,-0.4109,-0.3472,-0.4532,-0.3861,0.0,-0.4853,0.0,0.0,0.0,0.0,0.0,-0.8735,-0.9043,-0.9242,0.0,-0.9417,0.0,-0.934,-0.9417,-0.9474,0.0,-0.9713,-1.0051,-1.0355,-1.0949,-1.1487,-1.198,-1.2273,-1.2565,-1.2813,-1.2813,-1.2813,-1.2813,-1.2813,-1.2813,-1.2813,-1.2813,-1.2759,-1.2587,0.0,-1.2035,-1.191,-1.1455,-1.1305,-1.1305,-1.1305,-1.1305,-1.1311,-1.1483,-1.1527,-1.1472,-1.1255,-1.1085,-1.094,-1.0778,-1.0638,-1.0513,-1.0594,-1.0625,-1.0663,-1.0887,-1.0925,-1.0902,-1.0755,-1.0599,-1.0448,-1.0184,-0.9925,-0.9733,-0.9733,-0.9618,-0.9516,-0.9516,-0.9516,-0.9516,-0.9516,-0.9516,-0.9516,-0.9516,-0.9516,-0.9516,-0.9516,-0.9516,-0.9516,-0.9516,-0.9516,-0.945,-0.9293,-0.9281,-0.9091,-0.863,-0.8619,-0.8312,-0.7603,-0.8343,-0.8429,-0.769,-0.8544,-0.8843,-0.8522,-0.8564,-0.863,-0.8727,-0.8323,-0.8388,-0.2103,-0.2426,-0.2859,-0.4324,-0.4096,-0.3736,-0.4413,-0.3554,-0.2908,-0.387,0.0,-0.2862,-0.4346,-0.4651,-0.5002,-0.6041,0.0,-0.7947,-0.8682,-0.9072,-0.936,-0.9567,-0.9612,-0.9579,-0.9579,-0.9579,-0.9579,-0.9579,-0.9579,-0.9826,-1.0265,-1.0364,-1.0904,-1.198,-1.198,-1.2273,-1.2813,-1.2813,-1.2813,-1.2813,-1.2813,-1.2813,-1.2813,-1.278,-1.2608,-1.2398,-1.217,0.0,-1.1682,-1.1402,-1.1305,-1.1305,-1.1305,-1.1305,-1.1305,-1.1305,-1.1305,-1.1268,-1.1036,-1.0805,-1.0603,-1.0494,-1.0434,-1.0443,-1.0625,-1.0663,-1.07,-1.0925,-1.0962,-1.0946,-1.0725,-1.0497,-1.0264,-1.0008,-0.9745,-0.9542,-0.9512,-0.9476,-0.9446,-0.9446,-0.9446,-0.9446,-0.9478,-0.9452,-0.9452,-0.9478,-0.9382,-0.9318,-0.9318,-0.942,-0.9516,-0.9516,-0.942,-0.935,-0.935,-0.9285,-0.899,-0.8393,-0.8361,-0.8037,-0.7288,-0.7967,-0.7999,-0.7288,-0.7972,-0.8037,-0.7386,-0.7386,-0.7386,-0.7386,-0.7321,-0.7321,-0.1391,-0.1965,-0.2577,-0.2867,-0.2805,-0.271,-0.2733,-0.2022,0.0,0.0,0.0,-0.2791,-0.4055,-0.4636,0.0,-0.6056,0.0,0.0,0.0,0.0,-0.9035,0.0,0.0,0.0,0.0,0.0,0.0,0.0,0.0,-0.9628,-0.9727,-1.0167,-1.0904,-1.198,-1.198,-1.2273,-1.2813,-1.2813,-1.2813,-1.2813,-1.2813,-1.2813,-1.2807,-1.2565,-1.2452,-1.2388,-1.1951,0.0,-1.1682,-1.1402,-1.1305,-1.1305,-1.1305,-1.1305,-1.1305,-1.1305,-1.1305,-1.1246,-1.0807,-1.063,-1.0549,-1.0393,-1.0165,-0.9992,-1.0067,-1.0067,-1.0105,-1.0293,-1.0368,-1.0395,-1.0499,-1.049,-1.0398,-1.0192,-0.9938,-0.9696,-0.9471,-0.9231,-0.9081,-0.9081,-0.9081,-0.9151,-0.9306,-0.9183,-0.9145,-0.9306,-0.8818,-0.8431,-0.8431,-0.9055,-0.9516,-0.9516,-0.9017,-0.8689,-0.8689,-0.8102,-0.7712,-0.7582,-0.7582,-0.7284,-0.6597,-0.7218,-0.7284,-0.6597,-0.7251,-0.7517,-0.7386,-0.7386,-0.7386,-0.7386,-0.6826,-0.6859,-0.1203,-0.1542,-0.199,-0.2398,-0.2172,-0.189,-0.2242,0.0,0.0,0.0,0.0,-0.2349,-0.3347,0.0,0.0,0.0,0.0,0.0,0.0,0.0,0.0,0.0,0.0,0.0,0.0,0.0,0.0,0.0,0.0,-0.9579,-0.9579,-1.0117,-1.0659,-1.1145,-1.1731,-1.2127,-1.237,-1.2662,-1.2813,-1.2813,-1.2813,-1.2813,-1.2802,-1.2522,-1.2344,-1.2204,-1.1849,0.0,-1.1466,-1.1354,-1.1305,-1.1305,-1.1305,-1.1305,-1.1305,-1.1305,-1.1305,-1.1241,-1.0758,-1.0597,-1.0533,-1.0218,-1.0019,-0.9916,-1.003,-1.0067,-1.0105,-1.0293,-1.0368,-1.0368,-1.0481,-1.0324,-1.0107,-1.0023,-0.9668,-0.9348,-0.9222,-0.9102,-0.8985,-0.8985,-0.8721,-0.8517,-0.8613,-0.8226,-0.7939,-0.8032,-0.7739,-0.7517,-0.7517,-0.7874,-0.8204,-0.8398,-0.8102,-0.7939,-0.7939,-0.7614,-0.7223,-0.6765,-0.6732,-0.6371,-0.5617,-0.6235,-0.6301,-0.558,-0.6268,-0.6433,-0.6042,-0.6042,-0.6042,-0.6042,-0.5716,-0.5745,-0.1202,-0.1229,-0.1434,-0.2076,-0.1694,-0.131,-0.1886,-0.1455,0.0,0.0,-0.1566,-0.1908,-0.2786,0.0,0.0,0.0,0.0,0.0,0.0,0.0,0.0,0.0,0.0,0.0,0.0,0.0,0.0,0.0,0.0,0.0,-0.9579,-1.0019,-1.0265,-1.0413,-1.1198,-1.1785,-1.198,-1.2419,-1.2716,-1.2813,-1.2764,-1.2689,-1.2678,-1.2393,-1.2156,-1.2008,-1.1725,0.0,0.0,-1.1305,-1.1305,-1.1305,-1.1305,-1.1278,-1.123,-1.123,-1.1198,-1.1096,-1.0667,-1.0522,-1.0453,-1.0024,-0.9884,-0.9922,-1.0105,-1.0143,-1.018,-1.0331,-1.025,-1.0099,-1.0099,-0.9787,-0.9512,-0.9586,-0.9253,-0.8856,-0.8727,-0.8694,-0.8624,-0.8458,-0.8032,-0.767,-0.7702,-0.7214,-0.6793,-0.6859,-0.6728,-0.6629,-0.6629,-0.6531,-0.6568,-0.683,-0.6994,-0.7088,-0.7088,-0.6924,-0.6535,-0.5881,-0.5815,-0.5521,-0.4831,-0.5352,-0.5385,-0.4797,-0.5385,-0.5385,-0.4797,-0.4797,-0.4797,-0.4797,-0.4797,-0.4797,-0.1196,-0.1214,-0.1209,-0.1288,-0.122,-0.1102,-0.1107,0.0,0.0,-0.1426,-0.1456,-0.1758,-0.2887,-0.3245,-0.3724,0.0,0.0,0.0,0.0,0.0,0.0,0.0,0.0,0.0,0.0,0.0,0.0,0.0,0.0,0.0,-0.9579,-0.9628,-0.9875,-1.0359,-1.0511,-1.0998,-1.198,-1.2029,-1.2322,-1.2807,-1.2549,-1.2447,-1.2431,-1.1973,-1.1752,-1.172,-1.1439,0.0,0.0,-1.1305,-1.1305,-1.1305,-1.1305,-1.1171,-1.102,-1.102,-1.0885,-1.0624,-1.0412,-1.0326,-1.0277,-1.0008,-0.9884,-0.9922,-0.9916,-0.9922,-0.9922,-0.9954,-0.9425,-0.8851,-0.8851,-0.8636,-0.8543,-0.8888,-0.8766,-0.8376,-0.7754,-0.7652,-0.7456,-0.6761,-0.6593,-0.6593,-0.6785,-0.6625,-0.6494,-0.6687,-0.6137,-0.5712,-0.5712,-0.5289,-0.4994,-0.5027,-0.5646,-0.6034,-0.6034,-0.5418,-0.4994,-0.4927,-0.4927,-0.4894,-0.4797,-0.4861,-0.4861,-0.4797,-0.4861,-0.4861,-0.4797,-0.4797,-0.4797,-0.4797,-0.4797,-0.4797,-0.1145,-0.117,-0.1177,-0.1147,-0.1116,-0.1075,-0.1004,0.0,-0.0922,-0.1042,-0.1021,-0.1318,-0.2475,-0.2718,-0.3155,-0.4335,-0.4717,-0.5136,0.0,0.0,0.0,0.0,0.0,0.0,0.0,0.0,0.0,0.0,0.0,0.0,-0.9579,-0.9579,-0.9677,-0.992,-1.0216,-1.0609,-1.1047,-1.134,-1.1634,-1.1829,-1.1604,-1.15,-1.1485,-1.1369,-1.1297,-1.1287,-1.1276,0.0,0.0,-1.1305,-1.1127,-1.0862,-1.0862,-1.0766,-1.0564,-1.0564,-1.0419,-1.0232,-1.0008,-0.9778,-0.9546,-0.9273,-0.8927,-0.8813,-0.9652,-0.9576,-0.9273,-0.9765,-0.896,-0.8168,-0.9038,-0.8625,-0.8003,-0.8051,-0.7649,-0.7158,-0.6896,-0.6826,-0.6761,-0.6465,-0.6034,-0.5771,-0.5833,-0.5444,-0.5153,-0.5253,-0.499,-0.4827,-0.4827,-0.4631,-0.45,-0.45,-0.4924,-0.5253,-0.5253,-0.496,-0.4764,-0.4694,-0.4694,-0.4628,-0.45,-0.45,-0.45,-0.45,-0.45,-0.45,-0.45,-0.45,-0.45,-0.45,-0.45,-0.45,-0.1099,-0.1129,-0.1148,-0.1126,-0.1092,-0.1048,0.0,0.0,-0.0856,-0.08,-0.0755,-0.0997,-0.1928,-0.2308,-0.2778,-0.3785,-0.4287,-0.4777,-0.5384,0.0,0.0,0.0,0.0,0.0,0.0,0.0,0.0,0.0,0.0,0.0,-0.9474,-0.9518,-0.9571,-0.9575,-0.9969,-1.019,-1.0325,-1.071,-1.0925,-1.1057,-1.0839,-1.0735,-1.0725,-1.069,-1.0706,-1.0701,-1.0853,0.0,0.0,-1.0916,-1.0733,-1.0419,-1.0419,-1.0251,-1.0003,-1.0003,-0.9825,-0.9553,-0.9247,-0.8965,-0.8673,-0.8282,-0.7851,-0.7698,-0.8689,-0.8575,-0.8313,-0.9079,-0.8263,-0.7342,-0.8089,-0.7636,-0.6992,-0.7006,-0.6629,-0.6203,-0.6038,-0.5972,-0.587,-0.5708,-0.5279,-0.4915,-0.4848,-0.4558,-0.4267,-0.4233,-0.4267,-0.43,-0.43,-0.43,-0.4267,-0.4233,-0.4431,-0.4597,-0.4631,-0.4664,-0.4597,-0.4528,-0.4495,-0.4464,-0.43,-0.43,-0.43,-0.43,-0.43,-0.4267,-0.4197,-0.4197,-0.4197,-0.4164,-0.4164,-0.4164,-0.1068,-0.1098,-0.1086,-0.1086,-0.1043,-0.0987,0.0,-0.0845,-0.08,-0.0795,-0.0741,-0.0854,-0.1323,-0.2053,-0.2759,-0.3221,-0.4096,-0.4852,-0.535,0.0,0.0,0.0,0.0,0.0,0.0,0.0,0.0,0.0,0.0,0.0,-0.9112,-0.931,-0.9441,-0.9571,-0.9628,-0.9783,-1.0114,-1.0114,-1.0306,-1.0723,-1.0453,-1.0303,-1.0293,-1.0089,-0.9999,0.0,0.0,0.0,0.0,-0.9994,-0.9994,-0.9994,-0.9994,-0.9738,-0.9327,-0.9327,-0.9067,-0.8632,-0.8016,-0.7825,-0.7706,-0.7038,-0.6804,-0.6804,-0.6839,-0.6842,-0.6957,-0.7625,-0.7149,-0.6201,-0.5367,-0.5089,-0.5189,-0.5778,-0.5906,-0.5774,-0.5219,-0.4951,-0.4652,-0.4125,-0.4028,-0.3961,-0.3825,-0.4097,-0.4233,-0.4028,-0.4164,-0.43,-0.43,-0.43,-0.4233,-0.4028,-0.3995,-0.4097,-0.43,-0.43,-0.43,-0.43,-0.43,-0.43,-0.43,-0.43,-0.43,-0.43,-0.43,-0.4197,-0.3995,-0.3995,-0.3928,-0.3792,-0.3792,-0.3792,-0.0946,-0.0961,-0.0963,-0.0973,-0.0954,-0.093,-0.0917,-0.0842,-0.0799,-0.0795,-0.0994,-0.1266,-0.1557,-0.2257,-0.3029,-0.3684,-0.4228,0.0,0.0,0.0,0.0,0.0,0.0,0.0,0.0,0.0,0.0,0.0,0.0,0.0,-0.91,-0.9149,-0.9206,-0.9263,-0.9267,-0.9333,-0.9413,-0.9413,-0.9477,-0.9605,-0.9362,-0.9268,-0.9259,-0.9433,-0.9519,0.0,0.0,0.0,0.0,-0.9946,-0.9777,-0.9519,-0.9519,-0.9233,-0.8837,-0.8837,-0.8343,-0.7663,-0.7472,-0.6896,-0.6279,-0.6044,-0.5696,-0.5351,-0.5351,-0.5657,-0.5928,-0.558,-0.5942,-0.6208,-0.5339,-0.4984,-0.4901,-0.509,-0.4782,-0.442,-0.4256,-0.4156,-0.4056,-0.3892,-0.3859,-0.3859,-0.3792,-0.3892,-0.3928,-0.3859,-0.3928,-0.3961,-0.3961,-0.3961,-0.3928,-0.3859,-0.3859,-0.3928,-0.4097,-0.4097,-0.4097,-0.4097,-0.4233,-0.4233,-0.4097,-0.4097,-0.4097,-0.4097,-0.3995,-0.3928,-0.3859,-0.3859,-0.3825,-0.3792,-0.3792,-0.3522,0.0,-0.0888,-0.0892,-0.0902,-0.0889,-0.09,-0.0868,-0.0837,-0.0783,-0.0777,-0.1097,-0.1446,-0.1553,-0.2349,-0.3132,-0.3647,-0.4106,0.0,0.0,0.0,0.0,0.0,0.0,0.0,0.0,0.0,0.0,0.0,0.0,0.0,-0.876,-0.882,-0.8874,-0.8901,-0.9027,-0.9064,-0.8995,-0.8995,-0.8962,-0.8897,-0.8779,-0.8727,-0.8723,-0.8922,-0.9047,0.0,0.0,0.0,0.0,-0.9432,-0.9213,-0.8931,-0.8931,-0.8531,-0.791,-0.791,-0.7366,-0.6546,-0.6318,-0.5815,-0.5237,-0.5004,-0.4657,-0.4348,-0.4348,-0.4774,-0.5121,-0.4384,-0.4936,-0.5537,-0.4695,-0.4399,-0.4243,-0.4197,-0.3889,-0.3594,-0.3661,-0.3627,-0.3594,-0.3661,-0.3694,-0.3661,-0.3591,-0.3692,-0.3758,-0.3694,-0.3758,-0.3792,-0.3792,-0.3792,-0.3758,-0.3694,-0.3558,-0.3525,-0.3627,-0.3792,-0.3928,-0.3928,-0.4028,-0.4061,-0.3928,-0.3928,-0.3928,-0.3928,-0.3859,-0.3623,-0.3255,-0.2952,-0.2751,-0.2684,-0.2684,-0.2382,0.0,-0.0887,-0.0885,-0.0885,-0.0893,-0.0864,-0.0807,-0.0806,0.0,-0.0703,-0.1077,-0.1414,-0.1422,-0.2343,-0.316,-0.3346,-0.3864,0.0,0.0,0.0,0.0,0.0,0.0,0.0,0.0,0.0,0.0,0.0,0.0,0.0,-0.8164,-0.8356,-0.851,-0.8572,-0.8885,-0.8974,-0.8804,-0.88,-0.8723,-0.8612,-0.8612,-0.8612,-0.8612,-0.8612,-0.8612,0.0,0.0,0.0,0.0,-0.8596,-0.8446,-0.8245,-0.8233,-0.7639,-0.6784,-0.6784,-0.6291,-0.5506,-0.4968,-0.4701,-0.4504,-0.388,-0.3724,-0.3724,-0.3724,-0.4153,-0.4504,-0.3958,-0.4153,-0.4345,-0.3666,-0.3428,-0.3332,-0.3212,-0.3159,-0.3192,-0.3364,-0.3261,-0.3194,-0.3364,-0.3397,-0.3364,-0.3161,-0.3426,-0.3627,-0.3431,-0.356,-0.3692,-0.3692,-0.3656,-0.3558,-0.3362,-0.3023,-0.282,-0.282,-0.3355,-0.3692,-0.3656,-0.3656,-0.3656,-0.3589,-0.3589,-0.3589,-0.3589,-0.3589,-0.3153,-0.2248,-0.1444,-0.0974,-0.0773,-0.0773,-0.0638,-0.0652,0.0,-0.0738,-0.0738,-0.0798,-0.0801,0.0,-0.0753,-0.078,-0.0703,0.0,-0.1483,-0.1745,-0.2503,-0.3293,-0.3883,-0.4409,0.0,0.0,0.0,0.0,0.0,0.0,0.0,0.0,0.0,0.0,0.0,0.0,-0.7941,-0.7988,-0.8022,-0.8115,-0.8292,-0.8367,-0.8484,-0.8625,-0.8625,-0.8653,-0.8612,-0.8612,-0.8612,-0.8612,-0.8612,-0.8612,0.0,0.0,0.0,-0.86,-0.8414,-0.8068,-0.7584,-0.7423,-0.7126,-0.6784,-0.6784,-0.6291,-0.5583,-0.5431,-0.454,-0.3413,-0.2942,-0.2824,-0.2824,-0.2824,-0.3372,-0.3997,-0.3841,-0.3764,-0.3709,-0.3542,-0.3381,-0.3185,-0.2893,-0.282,-0.2755,-0.2557,-0.2456,-0.2456,-0.249,-0.249,-0.249,-0.2456,-0.2522,-0.2555,-0.2523,-0.2555,-0.2589,-0.2589,-0.2183,-0.1882,-0.1814,-0.1375,-0.1072,-0.1072,-0.2112,-0.2549,-0.2146,-0.2246,-0.2078,-0.1541,-0.1507,-0.1507,-0.1507,-0.1339,-0.1172,-0.0938,-0.0737,-0.0603,-0.057,-0.057,-0.0268,-0.0585,-0.0642,-0.0697,-0.0697,-0.0742,-0.0784,-0.0744,0.0,0.0,0.0,0.0,-0.1553,-0.2037,-0.2445,0.0,-0.4152,-0.4372,0.0,0.0,0.0,0.0,0.0,0.0,0.0,0.0,0.0,0.0,0.0,0.0,-0.7588,-0.7724,-0.7724,-0.7812,-0.8072,-0.7804,-0.7984,-0.8612,-0.8612,-0.8612,-0.8612,-0.8612,-0.8612,-0.8612,-0.8252,-0.8296,0.0,0.0,0.0,-0.8029,-0.7727,-0.7359,-0.6992,-0.7074,-0.6579,-0.5844,-0.5844,-0.5132,-0.4183,-0.4183,-0.3602,-0.2787,-0.2589,-0.2511,-0.2511,-0.2511,-0.2823,-0.3207,-0.321,-0.3142,-0.3024,-0.2956,-0.2875,-0.2734,-0.2528,-0.2487,-0.2421,-0.2255,-0.2188,-0.2188,-0.2188,-0.2188,-0.212,-0.185,-0.1783,-0.1715,-0.1444,-0.141,-0.141,-0.141,-0.1141,-0.0939,-0.0939,-0.0537,-0.0268,-0.0268,-0.0772,-0.1073,-0.1106,-0.1206,-0.1072,-0.067,-0.067,-0.0603,-0.0435,0.0167,0.0469,0.0469,0.0804,0.1005,0.1106,0.1106,0.1341,-0.0563,-0.0654,-0.0696,-0.0691,-0.0742,-0.0794,-0.079,0.0,0.0,0.0,0.0,0.0,0.0,0.0,0.0,0.0,0.0,0.0,0.0,0.0,0.0,0.0,0.0,0.0,0.0,0.0,0.0,0.0,0.0,-0.6763,-0.701,-0.699,-0.7119,-0.7408,-0.6939,-0.7149,-0.8034,-0.8105,-0.8164,-0.8164,-0.8072,-0.8028,-0.8028,-0.7401,-0.7474,-0.7983,0.0,0.0,-0.7204,-0.6964,-0.6661,-0.6308,-0.6603,-0.5801,-0.4494,-0.4494,-0.3717,-0.2627,-0.247,-0.2392,-0.2392,-0.2353,-0.2315,-0.2315,-0.2315,-0.2309,-0.229,-0.231,-0.2369,-0.2456,-0.2343,-0.2308,-0.2253,-0.2132,-0.212,-0.2087,-0.2052,-0.2018,-0.2018,-0.1918,-0.1918,-0.1715,-0.1143,-0.0975,-0.0772,-0.0335,-0.0201,-0.0167,-0.0167,-0.01,-0.0067,-0.0067,0.0268,0.0504,0.0504,0.0739,0.0671,0.01,-0.0067,-0.0067,0.0067,0.0067,0.0201,0.0536,0.1441,0.191,0.1944,0.2549,0.2954,0.3123,0.3123,0.319,-0.0511,-0.0648,-0.0691,-0.0709,-0.0741,-0.0794,-0.0794,0.0,0.0,0.0,0.0,0.0,0.0,0.0,0.0,0.0,0.0,0.0,0.0,0.0,0.0,0.0,0.0,0.0,0.0,0.0,0.0,0.0,0.0,-0.4688,-0.4774,-0.4741,-0.4821,-0.509,-0.5049,-0.5173,-0.5556,-0.5964,-0.6151,-0.6151,-0.5753,-0.5531,-0.5531,-0.5442,-0.5434,-0.5599,0.0,-0.6453,-0.6418,-0.7049,-0.6485,-0.5213,-0.5106,-0.447,-0.3602,-0.3602,-0.3446,-0.3134,-0.2273,-0.1999,-0.1921,-0.1609,-0.1492,-0.1492,-0.1492,-0.1433,-0.1401,-0.1403,-0.1831,-0.2327,-0.2297,-0.224,-0.2131,-0.1784,-0.1681,-0.1614,-0.1344,-0.1277,-0.1143,-0.0672,-0.0605,-0.0403,0.0134,0.0504,0.0773,0.084,0.1107,0.1273,0.1273,0.1676,0.1945,0.1945,0.2417,0.2721,0.2721,0.2755,0.2755,0.2653,0.1945,0.1878,0.2618,0.2619,0.2751,0.2948,0.3117,0.3286,0.3456,0.3589,0.3658,0.3692,0.3692,0.3692,-0.0286,-0.0506,-0.069,-0.0703,-0.0777,-0.0858,-0.0862,0.0,0.0,0.0,0.0,0.0,0.0,0.0,0.0,0.0,0.0,0.0,0.0,0.0,0.0,0.0,0.0,0.0,0.0,0.0,0.0,0.0,0.0,0.0,-0.423,-0.4236,-0.4276,-0.4364,-0.4152,-0.4045,-0.417,-0.391,-0.4271,-0.5256,-0.5042,-0.4956,-0.4913,-0.4529,-0.459,-0.492,0.0,-0.4566,-0.4879,-0.5007,-0.4644,-0.3972,-0.416,-0.3679,-0.2862,-0.2431,-0.2157,-0.1999,-0.153,-0.1295,-0.1177,-0.0982,-0.0628,-0.0275,-0.0275,-0.0233,-0.023,-0.0184,-0.0901,-0.1666,-0.1657,-0.1563,-0.1312,-0.0706,-0.0504,-0.0302,0.0235,0.0369,0.0436,0.0671,0.0738,0.0906,0.1443,0.1679,0.1914,0.2183,0.2351,0.245,0.245,0.2785,0.2952,0.2855,0.3257,0.3491,0.3357,0.3458,0.3491,0.3357,0.2986,0.2986,0.3491,0.3692,0.3823,0.392,0.4123,0.4456,0.4948,0.4522,0.4785,0.5635,0.5239,0.5302,-0.0104,-0.0415,-0.0706,-0.0719,0.0,-0.0888,-0.09,0.0,0.0,0.0,0.0,0.0,0.0,0.0,0.0,0.0,0.0,0.0,0.0,0.0,0.0,0.0,0.0,0.0,0.0,0.0,0.0,0.0,0.0,0.0,-0.3524,-0.3508,-0.3506,-0.3524,-0.3176,-0.3002,-0.3002,-0.2282,-0.27,-0.4224,-0.4101,-0.406,-0.4018,-0.3479,-0.351,-0.4024,-0.3066,-0.2953,-0.3412,-0.3351,-0.3171,-0.2976,-0.3365,-0.2937,-0.2041,-0.1375,-0.1021,-0.0825,-0.0825,-0.0746,-0.0589,-0.0589,-0.0196,0.0313,0.0311,0.0464,0.0649,0.0693,0.0248,-0.0347,-0.0643,-0.0471,-0.0101,0.047,0.0671,0.0906,0.1475,0.1609,0.1642,0.1776,0.1811,0.2012,0.2549,0.275,0.2986,0.3391,0.3527,0.356,0.356,0.3725,0.3756,0.3594,0.3992,0.4284,0.4281,0.445,0.4483,0.4408,0.4115,0.4018,0.4287,0.4683,0.4945,0.5011,0.5282,0.5741,0.6392,0.5811,0.6203,0.7437,0.6846,0.6967,-0.0114,-0.0446,-0.0712,-0.0768,-0.0856,0.0,-0.0897,-0.0907,0.0,0.0,0.0,0.0,0.0,0.0,0.0,0.0,0.0,0.0,0.0,0.0,0.0,0.0,0.0,0.0,0.0,0.0,0.0,0.0,0.0,0.0,-0.1514,-0.1527,-0.1524,-0.1514,-0.1485,-0.1468,-0.1468,-0.1397,-0.1694,-0.2311,-0.1809,-0.1557,-0.1557,-0.1515,-0.1498,-0.159,-0.2478,-0.2766,-0.2673,-0.3641,-0.3444,-0.2549,-0.2588,-0.1961,-0.0982,-0.0746,-0.0628,-0.0628,-0.0628,-0.0628,-0.0589,-0.0589,-0.055,-0.0508,-0.0497,0.0112,0.0799,0.0777,0.1433,0.1872,0.0676,0.0906,0.1441,0.1508,0.1508,0.1542,0.1575,0.1609,0.1743,0.2248,0.2484,0.2785,0.332,0.382,0.4187,0.422,0.4492,0.4694,0.4694,0.4697,0.4697,0.4694,0.5315,0.6001,0.6593,0.6658,0.6785,0.7102,0.5895,0.5342,0.5738,0.6363,0.6854,0.7167,0.72,0.7432,0.7864,0.78,0.7892,0.8113,0.8076,0.8173,0.0141,-0.0278,-0.0708,-0.0731,-0.082,0.0,0.0,0.0,0.0,0.0,0.0,0.0,0.0,0.0,0.0,0.0,0.0,0.0,0.0,0.0,0.0,0.0,0.0,0.0,0.0,0.0,0.0,0.0,0.0,0.0,0.0,-0.1281,-0.1319,-0.1291,-0.128,-0.1314,-0.1314,-0.1303,-0.1387,-0.1614,-0.1412,-0.1292,-0.1292,-0.1292,-0.1285,-0.1314,-0.1711,-0.186,-0.1766,-0.1999,-0.1883,-0.1492,-0.1373,-0.106,-0.0707,-0.0628,-0.051,-0.0432,-0.0432,-0.0314,-0.0157,0.0392,0.0931,0.149,0.1967,0.2408,0.2741,0.2739,0.2997,0.298,0.1689,0.1731,0.2155,0.2421,0.2546,0.2748,0.3349,0.3451,0.3551,0.3823,0.3959,0.4059,0.4259,0.4492,0.4625,0.4625,0.512,0.5481,0.5481,0.5972,0.6301,0.6301,0.6715,0.7172,0.754,0.7572,0.7637,0.7762,0.7042,0.678,0.7177,0.7442,0.7697,0.7882,0.7882,0.8237,0.8918,0.8501,0.8886,0.999,0.9532,0.9933,0.0301,-0.0121,-0.055,0.0,0.0,0.0,0.0,0.0,0.0,0.0,0.0,0.0,0.0,0.0,0.0,0.0,0.0,0.0,0.0,0.0,0.0,0.0,0.0,0.0,0.0,0.0,0.0,0.0,0.0,0.0,0.0,-0.1218,-0.1178,-0.1178,-0.11,-0.1061,-0.1061,-0.1061,-0.1061,-0.1061,-0.1061,-0.11,-0.1178,-0.1257,-0.1257,-0.1178,-0.1257,-0.1257,-0.1178,-0.0982,-0.0864,-0.0786,-0.0589,-0.051,-0.051,-0.0432,-0.0157,0.0196,0.0275,0.0549,0.0979,0.1592,0.2219,0.2783,0.329,0.367,0.3921,0.3919,0.4155,0.4158,0.3171,0.3022,0.3223,0.35,0.3651,0.3887,0.4525,0.4661,0.4694,0.4797,0.4897,0.506,0.5256,0.5388,0.555,0.5778,0.6231,0.6556,0.6556,0.7079,0.7567,0.7827,0.8108,0.8431,0.8801,0.8833,0.8833,0.8898,0.8694,0.8533,0.8409,0.8672,0.8898,0.902,0.9259,0.973,1.0368,1.0191,1.0701,1.1903,1.1439,1.1866,0.0334,0.0043,-0.0214,0.0,0.0,0.0,0.0,0.0,0.0,0.0,0.0,0.0,0.0,0.0,0.0,0.0,0.0,0.0,0.0,0.0,0.0,0.0,0.0,0.0,0.0,0.0,0.0,0.0,0.0,0.0,0.0,-0.1061,-0.0904,-0.0904,-0.0707,-0.0589,-0.0589,-0.0589,-0.0589,-0.0589,-0.0589,-0.0707,-0.0904,-0.1178,-0.1139,-0.0904,-0.1139,-0.1139,-0.0904,-0.0904,-0.0786,-0.0589,-0.0393,-0.0275,-0.0275,-0.0039,0.0549,0.1332,0.1528,0.2154,0.2806,0.289,0.2904,0.2876,0.2765,0.3313,0.402,0.4012,0.4781,0.5518,0.5192,0.496,0.4831,0.4797,0.4797,0.4797,0.4831,0.4831,0.4827,0.4831,0.5163,0.562,0.6301,0.6695,0.7153,0.7897,0.7994,0.8027,0.8027,0.8027,0.8345,0.9212,0.943,0.9818,1.0555,1.0624,1.0688,1.0807,1.0996,1.0573,0.9372,1.0161,1.0681,1.0839,1.1586,1.2104,1.2328,1.3105,1.3588,1.3708,1.3862,1.4019,0.032,-0.0021,0.0,0.0,0.0,0.0,0.0,0.0,0.0,0.0,0.0,0.0,0.0,0.0,0.0,0.0,0.0,0.0,0.0,0.0,0.0,0.0,0.0,0.0,0.0,0.0,0.0,0.0,0.0,0.0,0.0,-0.0746,-0.0707,-0.0707,-0.0628,-0.0314,0.0235,0.0235,0.0549,0.1174,0.1174,0.0509,-0.0668,-0.0196,0.0078,0.0196,0.0704,0.0666,0.0118,-0.0314,-0.0353,-0.0157,-0.0118,0.0275,0.0862,0.1058,0.1646,0.2387,0.2581,0.2746,0.2971,0.3592,0.3754,0.3774,0.4346,0.4751,0.4974,0.5,0.5286,0.571,0.6115,0.6268,0.6075,0.5219,0.5126,0.5392,0.6005,0.6133,0.633,0.6915,0.7149,0.7312,0.7627,0.7757,0.7887,0.8113,0.8661,0.9244,0.9773,1.0028,1.0281,1.0541,1.0818,1.1076,1.1279,1.131,1.149,1.1965,1.2182,1.181,1.0755,1.1083,1.1584,1.2182,1.2543,1.3,1.3636,1.3969,1.4236,1.4403,1.4453,1.4816,0.0588,0.0,0.0,0.0,0.0,0.0,0.0,0.0,0.0,0.0,0.0,0.0,0.0,0.0,0.0,0.0,0.0,0.0,0.0,0.0,0.0,0.0,0.0,0.0,0.0,0.0,0.0,0.0,0.0,0.0,0.0,-0.0534,-0.0343,-0.0038,0.0038,0.0419,0.1179,0.1179,0.1446,0.1976,0.1976,0.1446,0.0496,0.0932,0.0978,0.0744,0.094,0.0744,0.0235,0.0314,0.0471,0.0666,0.0931,0.1437,0.2032,0.2092,0.2623,0.3392,0.358,0.3825,0.4149,0.4658,0.4832,0.4907,0.5406,0.5762,0.598,0.598,0.6305,0.6752,0.7172,0.747,0.7377,0.6461,0.6334,0.6564,0.7111,0.727,0.7465,0.7989,0.8183,0.8409,0.8763,0.8886,0.9014,0.9308,0.985,1.0395,1.0933,1.1216,1.149,1.1732,1.2011,1.229,1.262,1.2612,1.2818,1.3226,1.3446,1.3265,1.2687,1.2642,1.2879,1.3446,1.3837,1.4284,1.4767,1.5167,1.5429,1.5536,1.5584,1.593,0.0959,0.0,0.0,0.0,0.0,0.0,0.0,0.0,0.0,0.0,0.0,0.0,0.0,0.0,0.0,0.0,0.0,0.0,0.0,0.0,0.0,0.0,0.0,0.0,0.0,0.0,0.0,0.0,0.0,0.0,0.0,-0.0219,0.0219,0.0911,0.1093,0.153,0.2218,0.2218,0.2254,0.2327,0.2363,0.2363,0.2331,0.2133,0.1748,0.1206,0.039,0.0039,0.0117,0.1012,0.1518,0.1747,0.2389,0.2855,0.3172,0.3068,0.357,0.4358,0.4577,0.5164,0.583,0.5832,0.5986,0.6158,0.6037,0.6474,0.7022,0.7055,0.7632,0.8275,0.8339,0.8565,0.8737,0.8382,0.8183,0.8124,0.8156,0.828,0.8372,0.8468,0.8699,0.9154,0.9837,1.0085,1.0376,1.109,1.1279,1.1428,1.1685,1.1833,1.2197,1.2856,1.307,1.3455,1.4213,1.4264,1.4344,1.4532,1.4718,1.4845,1.4963,1.4501,1.4344,1.4532,1.5303,1.5718,1.5776,1.6588,1.6965,1.6976,1.7151,1.739,0.0,0.0529,0.0,0.0,0.0,0.0,0.0,0.0,0.0,0.0,0.0,0.0,0.0,0.0,0.0,0.0,0.0,0.0,0.0,0.0,0.0,0.0,0.0,0.0,0.0,0.0,0.0,0.0,0.0,0.0,0.0729,0.1274,0.1673,0.182,0.1856,0.2291,0.3125,0.3125,0.3453,0.0,0.4253,0.429,0.4256,0.3455,0.336,0.384,0.2992,0.2697,0.2809,0.2362,0.2287,0.2472,0.2605,0.3119,0.3758,0.3887,0.4572,0.5485,0.5669,0.5862,0.6047,0.6046,0.635,0.675,0.6872,0.7372,0.7952,0.8108,0.8372,0.8737,0.9314,0.9576,0.9856,1.0433,0.9665,0.8924,0.9468,0.9602,0.9793,1.0376,1.0541,1.073,1.1146,1.124,1.1397,1.1809,1.1778,1.195,1.2612,1.2864,1.3252,1.3969,1.4216,1.4462,1.4737,1.4767,1.5002,1.5536,1.5633,1.6026,1.686,1.5516,1.5002,1.5565,1.6063,1.6574,1.7095,1.7891,1.8286,1.8298,1.87,1.9006,0.0,0.0,0.0,0.0,0.0,0.0,0.0,0.0,0.0,0.0,0.0,0.0,0.0,0.0,0.0,0.0,0.0,0.0,0.0,0.0,0.0,0.0,0.0,0.0,0.0,0.0,0.0,0.0,0.0,0.0738,0.1088,0.1437,0.1926,0.2589,0.2624,0.301,0.3818,0.392,0.4199,0.4656,0.4798,0.4868,0.4836,0.3953,0.3815,0.4248,0.334,0.3051,0.3234,0.3157,0.3228,0.3443,0.3795,0.4306,0.4814,0.4935,0.5303,0.587,0.6398,0.6597,0.668,0.7116,0.747,0.78,0.7989,0.8533,0.9079,0.9175,0.9564,1.0053,1.0534,1.0755,1.1007,1.1553,1.0881,1.0212,1.0661,1.0818,1.0975,1.1365,1.1498,1.1622,1.1809,1.2081,1.2351,1.2636,1.2887,1.3235,1.3747,1.3965,1.4353,1.5051,1.5206,1.5439,1.5872,1.6044,1.6312,1.674,1.687,1.7279,1.8038,1.7186,1.6778,1.6955,1.7473,1.7927,1.8259,1.8996,1.9375,1.9375,1.962,1.9812,0.0,0.0,0.0,0.0,0.0,0.0,0.0,0.0,0.0,0.0,0.0,0.0,0.0,0.0,0.0,0.0,0.0,0.0,0.0,0.0,0.0,0.0,0.0,0.0,0.0,0.0,0.0,0.0,0.0,0.0706,0.1478,0.1646,0.2248,0.3451,0.3485,0.3756,0.4367,0.4561,0.4628,0.4628,0.4794,0.4861,0.487,0.4252,0.3977,0.4008,0.3186,0.2935,0.3151,0.383,0.4224,0.4468,0.5101,0.5613,0.5951,0.5996,0.6086,0.6321,0.7035,0.7356,0.7567,0.8291,0.8705,0.8962,0.9148,0.9729,1.0275,1.0307,1.085,1.1466,1.1654,1.1778,1.1934,1.2243,1.1988,1.167,1.1685,1.1778,1.1895,1.2011,1.232,1.2536,1.2536,1.2978,1.3364,1.3563,1.4127,1.465,1.4933,1.5109,1.5487,1.6179,1.6247,1.6521,1.7224,1.7556,1.7799,1.7975,1.8209,1.8494,1.8874,1.8874,1.8792,1.8548,1.898,1.9232,1.9284,1.9953,2.0306,2.0356,2.0492,2.0593,0.0,0.0,0.0,0.0,0.0,0.0,0.0,0.0,0.0,0.0,0.0,0.0,0.0,0.0,0.0,0.0,0.0,0.0,0.0,0.0,0.0,0.0,0.0,0.0,0.0,0.0,0.0,0.0,0.1478,0.2214,0.3117,0.3787,0.4256,0.4595,0.4595,0.4628,0.4731,0.4764,0.4764,0.4764,0.4957,0.5156,0.5296,0.5028,0.4843,0.4681,0.4543,0.4607,0.4803,0.4907,0.5044,0.5249,0.5493,0.5988,0.6593,0.6709,0.7227,0.7887,0.8017,0.8252,0.8511,0.864,0.9186,0.9856,1.0078,1.0724,1.1397,1.1522,1.1771,1.1996,1.2034,1.2058,1.2243,1.2972,1.3177,1.2995,1.2212,1.2058,1.2236,1.2887,1.3747,1.4344,1.4344,1.4521,1.4669,1.4669,1.4982,1.5409,1.6016,1.6291,1.6771,1.7556,1.7623,1.7847,1.8421,1.8501,1.8727,1.9135,1.9214,1.9345,1.9643,1.9643,1.985,2.0258,1.9888,1.9837,2.0042,2.072,2.1175,2.142,2.2058,2.2475,0.0,0.0,0.0,0.0,0.0,0.0,0.0,0.0,0.0,0.0,0.0,0.0,0.0,0.0,0.0,0.0,0.0,0.0,0.0,0.0,0.0,0.0,0.0,0.0,0.0,0.0,0.0,0.0,0.1946,0.2447,0.3284,0.3754,0.4189,0.4661,0.4764,0.4797,0.4797,0.4927,0.5223,0.5716,0.5778,0.6075,0.6507,0.6437,0.5947,0.5163,0.5422,0.565,0.5844,0.6235,0.6502,0.6699,0.6761,0.7051,0.7437,0.7567,0.7929,0.8425,0.8941,0.9256,0.9506,0.9983,1.0503,1.0919,1.1101,1.149,1.1965,1.2343,1.2528,1.272,1.3169,1.3334,1.3507,1.3965,1.4174,1.4174,1.3756,1.3666,1.3756,1.4076,1.4521,1.4816,1.4816,1.5284,1.5689,1.5689,1.6291,1.6929,1.7468,1.7704,1.8058,1.8658,1.8738,1.8845,1.9071,1.9228,1.9463,1.9837,1.9991,2.0295,2.0784,2.0991,2.1318,2.1775,2.114,2.0944,2.1213,2.2044,2.2483,2.2626,2.3179,2.3399,0.0,0.0,0.0,0.0,0.0,0.0,0.0,0.0,0.0,0.0,0.0,0.0,0.0,0.0,0.0,0.0,0.0,0.0,0.0,0.0,0.0,0.0,0.0,0.0,0.0,0.0,0.0,0.0,0.238,0.275,0.3551,0.3754,0.4123,0.4794,0.4894,0.4964,0.4964,0.5286,0.584,0.6662,0.6662,0.6957,0.7484,0.7484,0.6961,0.6079,0.6371,0.6629,0.6854,0.7349,0.7642,0.7767,0.7804,0.8064,0.8415,0.8538,0.8833,0.9262,0.9901,1.0218,1.0465,1.132,1.1732,1.1957,1.2259,1.2505,1.272,1.3191,1.3364,1.3575,1.4174,1.4433,1.4601,1.4933,1.5109,1.5138,1.4933,1.5109,1.5313,1.5313,1.5545,1.5737,1.5861,1.644,1.694,1.7069,1.7836,1.8483,1.8792,1.8992,1.9228,1.9553,1.9657,1.976,1.985,2.0093,2.0421,2.0818,2.1028,2.1407,2.1992,2.2253,2.2583,2.2995,2.2475,2.2258,2.2411,2.315,2.3537,2.3573,2.4057,2.4141,0.0,0.0,0.0,0.0,0.0,0.0,0.0,0.0,0.0,0.0,0.0,0.0,0.0,0.0,0.0,0.0,0.0,0.0,0.0,0.0,0.0,0.0,0.0,0.0,0.0,0.0,0.0,0.0,0.3149,0.362,0.4661,0.4731,0.4927,0.5329,0.5362,0.5362,0.5362,0.6009,0.6662,0.7354,0.7354,0.7479,0.7674,0.7674,0.7739,0.7864,0.7674,0.7735,0.7929,0.7962,0.7962,0.7994,0.8134,0.8683,0.9454,0.9646,1.0256,1.0965,1.1028,1.1122,1.1365,1.2174,1.2581,1.2887,1.3636,1.3965,1.4085,1.4124,1.4382,1.461,1.4669,1.4757,1.5031,1.569,1.594,1.5833,1.5051,1.5708,1.6412,1.6412,1.724,1.8061,1.8447,1.8543,1.8741,1.9176,1.9501,1.9721,1.9721,1.9965,2.0118,2.0156,2.0397,2.0696,2.1077,2.1348,2.1803,2.2535,2.2581,2.2748,2.3106,2.3128,2.3355,2.3834,2.3813,2.37,2.3508,2.3764,2.3921,2.3982,2.4715,2.4934,0.0,0.0,0.0,0.0,0.0,0.0,0.0,0.0,0.0,0.0,0.0,0.0,0.0,0.0,0.0,0.0,0.0,0.0,0.0,0.0,0.0,0.0,0.0,0.0,0.0,0.0,0.0,0.0,0.0,0.3903,0.4505,0.4634,0.4834,0.5186,0.5749,0.6239,0.6671,0.6929,0.7414,0.8102,0.8188,0.8522,0.9049,0.9139,0.93,0.9486,0.955,0.9288,0.886,0.9288,0.9614,0.9805,0.9837,1.0129,1.0548,1.0611,1.0895,1.1303,1.1818,1.2128,1.2397,1.3213,1.3575,1.3756,1.4025,1.4323,1.461,1.4992,1.5294,1.5565,1.595,1.6425,1.7034,1.7825,1.8112,1.8128,1.7834,1.7845,1.7911,1.7911,1.8486,1.8989,1.9123,1.9281,1.9449,1.9643,1.9888,2.0144,2.0409,2.0671,2.0932,2.1215,2.167,2.2011,2.2151,2.2452,2.2815,2.3246,2.329,2.3399,2.3696,2.3909,2.4099,2.4287,2.4619,2.4603,2.4235,2.4522,2.4664,2.4715,2.5188,2.5301,0.1547,0.0,0.0,0.0,0.0,0.0,0.0,0.0,0.0,0.0,0.0,0.0,0.0,0.0,0.0,0.0,0.0,0.0,0.0,0.0,0.0,0.0,0.0,0.0,0.0,0.0,0.0,0.0,0.0,0.0,0.4744,0.4838,0.5153,0.5759,0.6347,0.702,0.7837,0.7837,0.8226,0.9011,0.9102,0.9428,0.9958,1.0053,1.0238,1.0491,1.0624,1.0351,0.9831,1.0358,1.0832,1.1195,1.1195,1.1476,1.1911,1.1911,1.2027,1.2274,1.2818,1.3092,1.3342,1.4145,1.4501,1.4649,1.4914,1.5342,1.5795,1.6205,1.6574,1.695,1.7379,1.7957,1.8563,1.9121,1.9397,1.9527,1.9527,1.9281,1.9071,1.9071,1.9397,1.9721,1.9863,2.0016,2.0194,2.0434,2.0721,2.1042,2.1393,2.169,2.1974,2.2235,2.2717,2.3009,2.3009,2.3275,2.3595,2.3888,2.3909,2.4015,2.4317,2.469,2.493,2.4993,2.5513,2.5647,2.5411,2.5307,2.5262,2.5262,2.5584,2.5715,0.0,0.0,0.0,0.0,0.0,0.0,0.0,0.0,0.0,0.0,0.0,0.0,0.0,0.0,0.0,0.0,0.0,0.0,0.0,0.0,0.0,0.0,0.0,0.0,0.0,0.0,0.0,0.0,0.4232,0.4628,0.5472,0.5536,0.6014,0.7077,0.7113,0.764,0.8715,0.8715,0.9137,0.9958,0.9996,1.0085,1.0281,1.0313,1.0503,1.0825,1.085,1.0856,1.0895,1.1059,1.1507,1.2043,1.2043,1.2649,1.3498,1.3498,1.3717,1.4004,1.4055,1.4055,1.4213,1.5011,1.5381,1.5632,1.6418,1.7179,1.7722,1.7738,1.8217,1.8741,1.8915,1.919,1.9423,1.9449,1.9657,1.985,1.9875,1.9875,1.985,1.9824,2.0067,2.0372,2.0784,2.0845,2.1066,2.1746,2.2133,2.242,2.2672,2.2995,2.3216,2.3216,2.345,2.3616,2.3616,2.3882,2.4172,2.4498,2.4539,2.4701,2.5025,2.5476,2.5813,2.6013,2.6453,2.6808,2.6989,2.6083,2.564,2.5654,2.5842,2.6169,0.1378,0.0,0.0,0.0,0.0,0.0,0.0,0.0,0.0,0.0,0.0,0.0,0.0,0.0,0.0,0.0,0.0,0.0,0.0,0.0,0.0,0.0,0.0,0.0,0.0,0.0,0.0,0.0,0.5232,0.5539,0.5984,0.624,0.6731,0.7496,0.7616,0.8089,0.8915,0.9017,0.9173,0.9419,0.9509,0.9652,0.9824,1.0344,1.0842,1.1323,1.187,1.2342,1.271,1.2174,1.2473,1.3226,1.3226,1.3498,1.3876,1.3876,1.3936,1.4145,1.5119,1.5438,1.5659,1.7002,1.7473,1.7567,1.7863,1.819,1.8447,1.8543,1.8806,1.9188,1.9709,1.9991,2.0232,2.061,2.0833,2.1055,2.1455,2.1561,2.1379,2.0671,2.0981,2.1468,2.1823,2.2058,2.2314,2.2748,2.2883,2.2972,2.3039,2.3319,2.3486,2.3486,2.3952,2.4255,2.4255,2.467,2.4985,2.5064,2.54,2.5629,2.5721,2.6033,2.6245,2.6298,2.6556,2.6725,2.6775,2.6674,2.6607,2.6624,2.6504,2.6555,0.0,0.0,0.0,0.0,0.0,0.0,0.0,0.0,0.0,0.0,0.0,0.0,0.0,0.0,0.0,0.0,0.0,0.0,0.0,0.0,0.0,0.0,0.0,0.0,0.0,0.5058,0.5277,0.5574,0.5769,0.6119,0.663,0.7097,0.7589,0.8126,0.8242,0.8561,0.9149,0.9249,0.9366,0.9505,0.9789,1.0006,1.0143,1.0814,1.1339,1.1728,1.2233,1.2817,1.3429,1.3006,1.3391,1.4186,1.4186,1.463,1.5255,1.5255,1.5448,1.5832,1.6683,1.6963,1.713,1.807,1.8421,1.8501,1.8635,1.8927,1.9268,1.9412,1.9889,2.0459,2.0856,2.1186,2.151,2.1837,2.1978,2.2151,2.2466,2.2603,2.2483,2.1842,2.2081,2.2443,2.2634,2.2815,2.2995,2.3319,2.3493,2.3623,2.3724,2.4,2.4251,2.4369,2.4759,2.5052,2.5195,2.5554,2.5756,2.5756,2.6031,2.6175,2.6175,2.6505,2.6691,2.6691,2.6971,2.7116,2.7116,2.6956,2.6858,2.6858,2.6842,2.6891,0.0,0.0,0.0,0.0,0.0,0.0,0.277,0.2687,0.0,0.0,0.0,0.0,0.0,0.0,0.0,0.0,0.0,0.0,0.0,0.0,0.0,0.0,0.0,0.0,0.5855,0.5909,0.5987,0.6172,0.6249,0.6632,0.7471,0.8023,0.8516,0.8917,0.8951,0.9138,0.9515,0.9522,0.9687,1.0002,1.0491,1.0793,1.0926,1.1475,1.1859,1.2102,1.2295,1.2869,1.3648,1.3763,1.4265,1.4975,1.4975,1.5808,1.7036,1.7064,1.7501,1.8147,1.834,1.8421,1.8447,1.8658,1.8806,1.8953,1.9139,1.9671,2.0245,2.0434,2.1248,2.21,2.21,2.2503,2.2912,2.2912,2.2965,2.3047,2.3091,2.3216,2.3282,2.3201,2.3216,2.326,2.3282,2.3326,2.345,2.3724,2.4042,2.4333,2.4584,2.4926,2.5246,2.554,2.5705,2.5888,2.6211,2.6351,2.6436,2.6436,2.6471,2.6505,2.6505,2.6939,2.7181,2.7213,2.7595,2.7786,2.7786,2.7115,2.6808,2.6825,2.6989,2.723,0.0,0.0,0.0,0.0,0.0,0.0,0.0,0.235,0.0,0.0,0.0,0.0,0.0,0.0,0.0,0.0,0.0,0.0,0.0,0.0,0.0,0.0,0.0,0.0,0.6253,0.6529,0.688,0.7343,0.7717,0.8196,0.8784,0.8949,0.9232,0.9747,0.9877,1.0012,1.0203,1.0308,1.0457,1.0639,1.0717,1.0847,1.0994,1.166,1.2229,1.2747,1.3329,1.4146,1.5086,1.5112,1.5232,1.5373,1.5373,1.6126,1.7247,1.7368,1.7779,1.834,1.8965,1.9188,1.9293,1.9926,2.0169,2.0346,2.0906,2.1237,2.1565,2.2058,2.2466,2.2709,2.2709,2.2852,2.2995,2.2995,2.3084,2.326,2.3629,2.3837,2.4021,2.4369,2.3937,2.3616,2.3873,2.4099,2.4359,2.467,2.5001,2.5256,2.531,2.5689,2.5998,2.607,2.6176,2.6281,2.6351,2.6522,2.6641,2.6641,2.7005,2.7197,2.7197,2.7446,2.7681,2.7908,2.8192,2.835,2.835,2.7779,2.7504,2.7504,2.7552,2.7713,0.0,0.0,0.0,0.3679,0.0,0.0,0.0,0.0,0.3203,0.0,0.0,0.0,0.0,0.0,0.0,0.0,0.0,0.0,0.0,0.0,0.0,0.0,0.0,0.0,0.7128,0.7626,0.821,0.8791,0.9138,0.9451,0.9788,0.9865,1.0038,1.0389,1.0466,1.0542,1.0593,1.0669,1.0771,1.0889,1.1166,1.14,1.1609,1.227,1.2876,1.3476,1.3864,1.4502,1.5218,1.5363,1.5545,1.5758,1.5961,1.6587,1.741,1.7536,1.7929,1.8547,1.9508,1.9882,2.0093,2.107,2.1479,2.1633,2.2025,2.2249,2.2411,2.2694,2.3068,2.3334,2.3334,2.3558,2.38,2.38,2.39,2.4063,2.4307,2.4451,2.4675,2.5056,2.4808,2.4547,2.4553,2.4795,2.5091,2.5304,2.5631,2.5873,2.5928,2.6142,2.6368,2.6539,2.6674,2.6824,2.6971,2.7132,2.7195,2.7195,2.755,2.7757,2.7757,2.7964,2.8152,2.8298,2.8422,2.8504,2.8504,2.8232,2.8102,2.8102,2.8102,2.8166,0.0,0.0,0.0,0.0,0.0,0.437,0.0,0.0,0.0,0.4367,0.0,0.0,0.0,0.0,0.0,0.0,0.0,0.0,0.0,0.0,0.0,0.0,0.0,0.0,0.0,0.8715,0.9314,1.0031,1.0068,1.0229,1.061,1.072,1.0897,1.1124,1.1124,1.1149,1.1174,1.12,1.1275,1.14,1.1864,1.2242,1.2564,1.3079,1.3621,1.4188,1.4328,1.4674,1.513,1.5456,1.5876,1.6302,1.6445,1.6979,1.7661,1.779,1.824,1.893,1.9955,2.0356,2.0635,2.1772,2.2304,2.2536,2.2801,2.2936,2.304,2.3172,2.3616,2.4063,2.4063,2.4395,2.4775,2.4855,2.491,2.4966,2.5029,2.5146,2.5323,2.5577,2.567,2.5577,2.5285,2.5462,2.567,2.5797,2.6123,2.6368,2.6488,2.6573,2.6757,2.708,2.7225,2.7413,2.7745,2.7829,2.7855,2.7855,2.8061,2.8166,2.8166,2.844,2.8609,2.8609,2.8658,2.8664,2.8664,2.8664,2.8615,2.8504,2.8504,2.8541,0.0,0.0,0.0,0.0,0.5128,0.0,0.0,0.0,0.4173,0.394,0.0,0.0,0.0,0.0,0.0,0.0,0.0,0.0,0.0,0.0,0.0,0.0,0.0,0.0,0.0,0.9207,0.9444,1.0299,0.9867,1.0121,1.1391,1.1476,1.1726,1.2298,1.2323,1.2372,1.2471,1.2593,1.2725,1.2871,1.2977,1.3304,1.3802,1.3988,1.4339,1.4812,1.5062,1.5445,1.5923,1.6416,1.6917,1.7248,1.6467,1.7002,1.8218,1.8354,1.9014,1.9869,2.0178,2.0314,2.0455,2.1316,2.1954,2.2543,2.3286,2.3459,2.3548,2.4148,2.4675,2.5056,2.5056,2.5157,2.5387,2.5758,2.5631,2.5521,2.5888,2.6016,2.6071,2.6106,2.6229,2.6246,2.6105,2.6105,2.6176,2.6298,2.6624,2.6839,2.6856,2.7211,2.7567,2.7855,2.7936,2.8098,2.8376,2.8397,2.8415,2.8415,2.844,2.8448,2.8448,2.8761,2.8938,2.8938,2.9178,2.9304,2.9304,2.9304,2.9012,2.8504,2.8504,2.8658,0.0,0.0,0.0,0.0,0.0,0.0,0.5475,0.0,0.4958,0.0,0.0,0.0,0.0,0.0,0.0,0.0,0.0,0.0,0.0,0.0,0.0,0.0,0.0,0.0,0.0,0.0,0.0,0.0,1.0938,1.133,1.2629,1.3155,1.3474,1.365,1.365,1.3661,1.3634,1.3766,1.386,1.3907,1.4014,1.4224,1.4525,1.4903,1.5364,1.5915,1.6345,1.6768,1.7237,1.7544,1.7794,1.7948,1.7646,1.7855,1.8324,1.85,1.8828,1.9276,2.0036,2.0353,2.0595,2.1634,2.2139,2.2534,2.3535,2.3826,2.398,2.4968,2.5462,2.5668,2.5668,2.5742,2.5852,2.6015,2.5944,2.589,2.6052,2.6282,2.6506,2.6722,2.6948,2.7182,2.7425,2.6981,2.664,2.6723,2.7206,2.7557,2.7584,2.7904,2.817,2.829,2.8311,2.8376,2.8485,2.8504,2.8504,2.8504,2.8682,2.8862,2.903,2.9167,2.9222,2.9222,2.9336,2.9396,2.9396,2.9396,2.9265,2.9012,2.9012,2.9104,0.6359,0.0,0.0,0.0,0.0,0.0,0.0,0.0,0.0,0.0,0.0,0.0,0.0,0.0,0.0,0.0,0.0,0.0,0.0,0.0,0.0,0.0,0.0,0.0,0.0,0.0,0.0,0.0,0.0,1.194,1.3521,1.4161,1.4484,1.4549,1.4549,1.4514,1.441,1.4537,1.4664,1.479,1.4903,1.5174,1.5542,1.5922,1.6426,1.7019,1.7471,1.784,1.8179,1.8422,1.8519,1.8577,1.893,1.9006,1.8893,1.8831,1.8945,1.9246,2.0091,2.0657,2.1127,2.2048,2.2329,2.2559,2.3816,2.4072,2.4213,2.5484,2.6071,2.6299,2.6299,2.642,2.6522,2.6623,2.6573,2.6539,2.6623,2.6869,2.7153,2.7427,2.7688,2.7968,2.8345,2.7812,2.7326,2.7402,2.7833,2.8156,2.8206,2.8389,2.8541,2.8633,2.8633,2.867,2.8742,2.8742,2.8742,2.8742,2.8973,2.9189,2.9396,2.9396,2.9427,2.9451,2.9451,2.9481,2.954,2.954,2.954,2.954,2.944,2.9396,0.0,0.0,0.0,0.6745,0.0,0.0,0.0,0.0,0.7253,0.0,0.0,0.0,0.0,0.0,0.0,0.0,0.0,0.0,0.0,0.0,0.0,0.0,0.0,0.0,0.0,0.0,0.0,0.0,0.0,0.0,1.3749,1.3915,1.4161,1.4687,1.4698,1.4686,1.4686,1.4823,1.5085,1.5486,1.5594,1.6191,1.7137,1.7124,1.7477,1.8066,1.8212,1.8285,1.8324,1.886,1.9124,1.9244,1.9954,2.0314,2.033,1.9627,1.9841,2.0464,2.0562,2.1321,2.2263,2.2362,2.2411,2.2687,2.4206,2.4261,2.4099,2.5583,2.6505,2.706,2.706,2.7309,2.7622,2.7974,2.7784,2.7637,2.7974,2.8152,2.8241,2.8272,2.8371,2.8473,2.8485,2.8415,2.8376,2.8435,2.846,2.8473,2.8491,2.8485,2.8615,2.8938,2.898,2.91,2.9347,2.9357,2.9357,2.9357,2.9386,2.9396,2.9396,2.9396,2.9461,2.9589,2.9598,2.9698,2.9886,2.9886,2.9886,2.9878,2.956,2.9396,0.0,0.0,0.9739,0.8185,0.0,0.0,0.0,0.0,0.0,0.0,0.0,0.0,0.0,0.0,0.0,0.0,0.0,0.0,0.0,0.0,0.0,0.0,0.0,0.0,0.0,0.0,0.0,0.0,1.1004,0.0,0.0,1.4918,1.5332,1.5864,1.5844,1.5898,1.6083,1.6235,1.6532,1.7032,1.7169,1.7416,1.7806,1.8163,1.843,1.865,1.9058,1.9391,1.9636,1.9811,2.0091,2.0433,2.0699,2.0862,2.0862,2.0617,2.0667,2.091,2.1087,2.1391,2.1824,2.2609,2.2866,2.3223,2.5231,2.5672,2.5779,2.7046,2.7566,2.7755,2.7755,2.7844,2.7956,2.8071,2.8043,2.8029,2.8143,2.8376,2.8591,2.8615,2.8862,2.9041,2.9086,2.9075,2.8932,2.8554,2.8682,2.8827,2.8827,2.8996,2.9138,2.9243,2.9272,2.9304,2.9396,2.9491,2.9522,2.9522,2.9663,2.9735,2.9735,2.9735,2.9742,2.9803,2.9803,2.9836,2.9902,2.9902,2.9902,2.9894,2.9777,2.9735,1.0063,1.0612,0.0,0.9355,0.9476,0.0,0.7592,0.0,0.0,0.0,0.0,0.0,0.0,0.0,0.0,0.0,0.0,0.0,0.0,0.0,0.0,0.0,0.0,0.0,0.0,0.0,0.9288,1.0758,0.0,0.0,0.0,0.0,1.6159,1.6702,1.691,1.7097,1.725,1.7353,1.7646,1.8159,1.8232,1.8422,1.8645,1.9118,1.9358,1.9434,1.9912,2.0294,2.055,2.055,2.0732,2.1055,2.1212,2.1367,2.1475,2.1243,2.1305,2.1532,2.1788,2.1948,2.222,2.3271,2.3591,2.3981,2.6004,2.6604,2.6821,2.7829,2.8183,2.8281,2.8281,2.8373,2.8464,2.8464,2.8515,2.8565,2.8565,2.8749,2.8932,2.8966,2.916,2.9355,2.9396,2.944,2.9312,2.889,2.9007,2.9145,2.9145,2.9294,2.9409,2.9461,2.9471,2.9501,2.957,2.9663,2.9716,2.9716,2.9828,2.9902,2.9902,2.9902,2.9926,2.9962,2.9962,3.0011,3.0082,3.0082,3.0082,3.0082,3.0082,3.0082]}]]